     2.11           OBSERVATION DATA    G (GPS)             RINEX VERSION / TYPE
teqc 2010Oct21 OPUS Account 20111028 22:16:34UTC            PGM / RUN BY / DATE
3206                                                        MARKER NAME
1135                                                        MARKER NUMBER
CSMIDDLETON NGS                                             OBSERVER / AGENCY
0440103897 TRIMBLE 5700 1.04                                REC # / TYPE / VERS
12299603 TRM41249.00 NONE                                   ANT # / TYPE
  -739477.8848 -5478997.5617  3169957.4347                  APPROX POSITION XYZ
        2.0000        0.0000        0.0000                  ANTENNA: DELTA H/E/N
     1     1                                                WAVELENGTH FACT L1/2
     5    L1    L2    C1    P1    P2                        # / TYPES OF OBSERV
    15                                                      LEAP SECONDS
  2011     9    22     0     0   30.0000000     GPS         TIME OF FIRST OBS
                                                            END OF HEADER
 11  9 22  0  0 30.0000000  0  8G10G05G25G02G12G26G30G29
 -44820935.96356 -34885337.75753  23468982.7734                   23468984.1954
 -49463559.92458 -38527108.91557  20256691.8054                   20256690.8094
 -36113423.93758 -28124330.71356  21477987.4454                   21477989.7934
 -48155162.75858 -37512748.04856  21485666.4924                   21485663.9224
 -48612938.98657 -37869264.88056  21469754.5164                   21469754.9144
  -9336506.24756  -7260431.04353  23748128.0864                   23748132.2194
 -18695100.09057 -14552562.92755  22606383.2114                   22606384.7274
 -20627859.92557 -16064320.75055  22482890.3134                   22482891.5664
 11  9 22  0  1  0.0000000  0  8G10G05G25G02G12G26G30G29
 -44789721.28047 -34861014.65444  23474923.5944                   23474925.6564
 -49516266.23248 -38568178.74347  20246662.2424                   20246661.2544
 -36179964.68747 -28176180.62146  21465325.5704                   21465327.3204
 -48188450.83347 -37538686.78346  21479332.2664                   21479329.5704
 -48620561.76547 -37875204.72246  21468304.1414                   21468303.9734
  -9505994.97446  -7392499.86443  23715874.7424                   23715879.3244
 -18799953.13347 -14634266.53944  22586430.2424                   22586431.5664
 -20782625.52547 -16184917.21345  22453439.4694                   22453441.1374
 11  9 22  0  1 30.0000000  0  8G10G05G25G02G12G26G30G29
 -44758352.41047 -34836571.41144  23480892.5004                   23480896.1914
 -49568456.81948 -38608846.70347  20236730.8134                   20236729.9574
 -36245942.97648 -28227592.26046  21452769.8834                   21452772.4574
 -48221652.09447 -37564557.87646  21473013.3984                   21473011.2624
 -48627779.64148 -37880829.06646  21466930.7194                   21466930.5594
  -9675444.91546  -7524538.47343  23683628.7814                   23683633.2974
 -18904242.90147 -14715531.23844  22566584.5864                   22566585.3204
 -20937317.15647 -16305456.01745  22424002.5314                   22424003.7344
 11  9 22  0  2  0.0000000  0  8G10G05G25G02G12G26G30G29
 -44726833.94747 -34812011.62643  23486890.5704                   23486894.1484
 -49620135.49648 -38649115.76647  20226896.4614                   20226895.6954
 -36311361.41448 -28278567.65246  21440321.4844                   21440323.2424
 -48254768.89547 -37590363.14846  21466712.1884                   21466709.4144
 -48634597.09647 -37886141.38646  21465633.4534                   21465633.3874
  -9844854.56046  -7656545.70043  23651391.8524                   23651395.2034
 -19007970.52447 -14796357.94044  22546845.8834                   22546847.3014
 -21091934.83347 -16425937.19445  22394580.1174                   22394580.4224
 11  9 22  0  2 30.0000000  0  8G10G05G25G02G12G26G30G29
 -44695168.12547 -34787336.97444  23492916.2664                   23492919.2934
 -49671302.74148 -38688986.31947  20217159.6884                   20217158.6844
 -36376220.19348 -28329106.93546  21427978.8984                   21427980.8364
 -48287800.73347 -37616102.24546  21460426.1334                   21460423.7344
 -48641016.41347 -37891143.46946  21464412.1094                   21464411.5824
 -10014220.19346  -7788518.65043  23619162.2734                   23619165.1134
 -19111134.88847 -14876745.70745  22527213.6334                   22527215.2734
 -21246476.21647 -16546358.93845  22365171.7734                   22365171.8164
 11  9 22  0  3  0.0000000  0  8G10G05G25G02G12G26G30G29
 -44663357.58947 -34762549.63943  23498970.2584                   23498972.7464
 -49721960.54648 -38728459.89947  20207519.8204                   20207518.8094
 -36440520.26248 -28379210.87146  21415743.1024                   21415745.1884
 -48320747.90847 -37641775.36446  21454156.7584                   21454154.0514
 -48647040.27647 -37895837.41546  21463265.7974                   21463266.0004
 -10183538.26946  -7920454.51343  23586941.2584                   23586944.7274
 -19213735.40847 -14956694.12144  22507690.4144                   22507691.5514
 -21400939.69147 -16666719.97945  22335778.3204                   22335779.3524
 11  9 22  0  3 30.0000000  0  8G10G05G25G02G12G26G30G29
 -43055988.17047 -33510053.99944  23804842.1724                   23804843.3984
 -48196690.48848 -37539937.74247  20497768.8444                   20497768.1604
 -34928842.01248 -27201279.75446  21703405.7894                   21703407.6764
 -46778191.55147 -36439783.38446  21747695.1414                   21747693.1564
 -47077252.89347 -36672626.48946  21761986.1804                   21761986.4024
  -8777381.71946  -6824747.83043  23854524.4614                   23854529.1484
 -17740349.85947 -13808601.40845  22788065.8594                   22788067.0864
 -19979900.02147 -15559416.21345  22606192.6254                   22606193.0354
 11  9 22  0  4  0.0000000  0  8G10G05G25G02G12G26G30G29
 -43023898.09447 -33485048.79943  23810948.1954                   23810950.8984
 -48246335.08948 -37578621.81847  20488322.1564                   20488321.2464
 -34992028.25148 -27250515.77046  21691381.9304                   21691383.5594
 -46810971.75847 -36465326.37946  21741457.6804                   21741455.2544
 -47082495.16848 -36676711.39846  21760988.5554                   21760989.5164
  -8946596.11946  -6956602.93943  23822323.7274                   23822327.4064
 -17841822.32047 -13887670.83645  22768756.2894                   22768757.5474
 -20134203.27747 -15679652.42645  22576829.5004                   22576830.4774
 11  9 22  0  4 30.0000000  0  8G10G05G25G02G12G26G30G29
 -42991672.04547 -33459937.60043  23817081.0394                   23817082.8164
 -48295475.26048 -37616912.82547  20478970.9384                   20478969.8524
 -35054658.60648 -27299318.62046  21679463.5944                   21679465.9264
 -46843668.51848 -36490804.37046  21735235.1804                   21735233.7974
 -47087350.19148 -36680494.55146  21760064.8674                   21760065.0594
  -9115753.10147  -7088413.31043  23790133.9844                   23790137.1024
 -17942729.68047 -13966299.87645  22749554.6804                   22749555.8714
 -20288423.41147 -15799823.84045  22547482.7034                   22547483.8954
 11  9 22  0  5  0.0000000  0  9G10G15G05G25G02G12G26G30G29
 -42959315.11247 -33434724.44643  23823238.4064                   23823240.5474
   1332540.83156   1053205.60953  24697453.6884                   24697460.7544
 -48344114.63748 -37654813.62047  20469714.8914                   20469714.4454
 -35116735.95748 -27347690.55346  21667650.7664                   21667652.9884
 -46876284.03547 -36516219.02946  21729029.0554                   21729026.9304
 -47091822.68047 -36683979.63946  21759213.1414                   21759214.0514
  -9284851.43346  -7220178.03244  23757955.2734                   23757957.8324
 -18043073.45547 -14044489.78245  22730459.9064                   22730461.5744
 -20442560.74347 -15919930.74445  22518150.6644                   22518151.2114
 11  9 22  0  5 30.0000000  0  9G10G15G05G25G02G12G26G30G29
 -42926834.38746 -33409414.82143  23829418.6414                   23829420.9064
   1164449.90346    922226.07842  24665466.2194                   24665472.9574
 -48392259.67948 -37692329.20847  20460553.4224                   20460552.1524
 -35178266.15248 -27395636.14946  21655942.2424                   21655944.2934
 -46908823.30147 -36541574.28446  21722836.8524                   21722835.0554
 -47095920.93848 -36687173.10546  21758433.7424                   21758433.4694
  -9453892.28546  -7351897.92843  23725787.9844                   23725791.1174
 -18142857.97947 -14122243.91045  22711471.0704                   22711472.1484
 -20596618.20447 -16039975.43745  22488835.5864                   22488835.1054
 11  9 22  0  6  0.0000000  0  9G10G15G05G25G02G12G26G30G29
 -42894232.45346 -33384010.84243  23835623.0944                   23835625.9344
    996219.51746    791137.87942  24633453.1804                   24633459.5784
 -48439911.28748 -37729460.30447  20451485.4304                   20451484.6914
 -35239249.58048 -27443155.68446  21644337.7274                   21644339.6174
 -46941286.39147 -36566870.18846  21716659.6094                   21716656.7704
 -47099646.77147 -36690076.37646  21757725.4694                   21757725.3954
  -9622871.86746  -7483570.12443  23693632.5394                   23693634.3984
 -18242082.37347 -14199561.59245  22692589.6484                   22692590.5274
 -20750593.46947 -16159956.07045  22459534.2274                   22459535.4734
 11  9 22  0  6 30.0000000  0  9G10G15G05G25G02G12G26G30G29
 -42861510.67646 -33358513.45743  23841849.8444                   23841852.1914
    827853.22045    659943.82442  24601413.0394                   24601421.6334
 -48487069.86548 -37766207.21847  20442511.5164                   20442510.5084
 -35299685.94348 -27490248.92046  21632837.0084                   21632838.4144
 -46973672.09447 -36592105.79446  21710496.6564                   21710494.0274
 -47103001.55347 -36692690.51246  21757086.2424                   21757086.6644
  -9791785.45347  -7615190.84444  23661488.9774                   23661492.0394
 -18340744.93147 -14276441.48045  22673814.8204                   22673816.0314
 -20904483.40647 -16279870.21445  22430249.6884                   22430250.2154
 11  9 22  0  7  0.0000000  0  9G10G15G05G25G02G12G26G30G29
 -42828667.70847 -33332921.60244  23848101.2814                   23848102.3094
    659358.06546    528649.32842  24569349.3914                   24569357.1884
 -48533733.39348 -37802568.38147  20433631.7974                   20433630.4534
 -35359572.38948 -27536913.64146  21621440.9384                   21621442.3484
 -47005976.65747 -36617278.17646  21704349.2034                   21704346.7384
 -47105983.94847 -36695014.47746  21756519.3444                   21756519.4064
  -9960625.84947  -7746754.55144  23629359.0704                   23629362.0594
 -18438841.35647 -14352880.21745  22655147.5164                   22655148.1604
 -21058282.16747 -16399713.33645  22400983.0474                   22400984.3204
 11  9 22  0  7 30.0000000  0  9G10G15G05G25G02G12G26G30G29
 -42795710.10246 -33307240.36944  23854372.2584                   23854373.7814
    490732.25545    397253.05942  24537260.5864                   24537268.8754
 -48579906.89748 -37838547.70347  20424845.1094                   20424844.0084
 -35418913.36648 -27583153.33846  21610148.7114                   21610150.4384
 -47038203.77847 -36642390.20946  21698216.2664                   21698214.1764
 -47108600.59948 -36697053.43846  21756021.3914                   21756021.3914
 -10129392.78547  -7878261.07544  23597243.8054                   23597247.0274
 -18536374.72147 -14428880.18545  22636588.0554                   22636588.4574
 -21211991.19947 -16519486.53445  22371732.8674                   22371733.1914
 11  9 22  0  8  0.0000000  0  9G10G15G05G25G02G12G26G30G29
 -42762635.39446 -33281467.97443  23860665.6094                   23860668.8164
    321983.58645    265761.04342  24505148.4774                   24505156.8634
 -48625587.30348 -37874142.80347  20416152.4304                   20416151.4614
 -35477704.94248 -27628964.92646  21598960.7114                   21598962.1334
 -47070348.65447 -36667438.15246  21692099.1414                   21692097.5904
 -47110849.22948 -36698805.63746  21755593.3204                   21755593.5744
 -10298078.12647  -8009703.97744  23565144.5944                   23565146.7424
 -18633339.74247 -14504437.29645  22618135.5164                   22618136.1054
 -21365603.82947 -16639184.61845  22342501.2194                   22342502.0204
 11  9 22  0  8 30.0000000  0  9G10G15G05G25G02G12G26G30G29
 -42729443.77846 -33255604.42043  23866981.3914                   23866983.9654
    153117.03745    134177.23842  24473013.2974                   24473021.0634
 -48670773.74948 -37909352.98647  20407553.9694                   20407553.3554
 -35535945.73748 -27674347.33846  21587877.8594                   21587880.0004
 -47102408.85747 -36692420.10746  21685998.7734                   21685996.5124
 -47112730.13748 -36700271.29946  21755235.7344                   21755235.3054
 -10466675.58347  -8141078.39444  23533060.8674                   23533063.3714
 -18729733.66247 -14579549.39345  22599792.5314                   22599793.5354
 -21519115.79947 -16758804.24745  22313288.9064                   22313289.5394
 11  9 22  0  9  0.0000000  0  9G10G15G05G25G02G12G26G30G29
 -42696140.53846 -33229653.86543  23873319.0004                   23873321.2504
    -15867.56246      2501.32543  24440856.4614                   24440862.9534
 -48715470.70548 -37944181.76347  20399048.1174                   20399047.0514
 -35593639.60348 -27719303.56246  21576899.0234                   21576901.1524
 -47134387.45347 -36717338.49146  21679913.4614                   21679910.7814
 -47114248.78648 -36701454.68046  21754946.3134                   21754946.2974
 -10635184.54647  -8272383.86444  23500994.0554                   23500997.1604
 -18825558.85447 -14654218.34245  22581557.4384                   22581558.9264
 -21672527.69747 -16878345.93645  22284095.3914                   22284095.7664
 11  9 22  0  9 30.0000000  0  9G10G15G05G25G02G12G26G30G29
 -42662727.17047 -33203617.51044  23879677.8674                   23879680.5664
   -184966.23946   -129263.45643  24408678.7344                   24408684.9064
 -48759678.30348 -37978629.21147  20390635.6334                   20390634.2504
 -35650786.28048 -27763833.43046  21566024.2814                   21566026.3444
 -47166283.43647 -36742192.48346  21673843.9384                   21673841.2384
 -47115406.60647 -36702356.89746  21754725.9064                   21754726.6914
 -10803600.19847  -8403616.67244  23468945.9774                   23468948.0204
 -18920813.72447 -14728442.90045  22563431.0864                   22563432.7274
 -21825836.34847 -16997807.18245  22254922.1414                   22254922.5044
 11  9 22  0 10  0.0000000  0  9G10G15G05G25G02G12G26G30G29
 -42629206.43247 -33177497.55044  23886056.5234                   23886058.3714
   -354176.80946   -261115.40743  24376478.4844                   24376485.1764
 -48803398.81548 -38012697.10947  20382316.2504                   20382314.8634
 -35707387.13748 -27807937.97046  21555253.5004                   21555255.3914
 -47198096.69947 -36766982.03246  21667789.7894                   21667787.7074
 -47116206.44847 -36702980.17646  21754574.1334                   21754574.1294
 -10971919.10846  -8534774.05844  23436915.1484                   23436918.6844
 -19015498.27747 -14802223.00745  22545413.1094                   22545414.9774
 -21979039.92047 -17117186.52245  22225768.4454                   22225768.5904
 11  9 22  0 10 30.0000000  0  9G10G15G05G25G02G12G26G30G29
 -42595582.02847 -33151296.73044  23892454.8284                   23892456.5474
   -523497.00246   -393052.80743  24344257.7974                   24344264.1994
 -48846634.69248 -38046387.37747  20374088.3364                   20374087.5474
 -35763443.92748 -27851618.57646  21544586.3984                   21544588.2704
 -47229828.36847 -36791708.01845  21661751.6094                   21661748.9844
 -47116652.18248 -36703327.51946  21754489.5704                   21754489.9574
 -11140138.66747  -8665853.98044  23404903.6884                   23404907.3834
 -19109612.87147 -14875559.01945  22527503.7504                   22527505.4804
 -22132137.24247 -17236483.08445  22196634.7814                   22196634.9384
 11  9 22  0 11  0.0000000  0  9G10G15G05G25G02G12G26G30G29
 -42561853.44046 -33125014.77843  23898872.7814                   23898875.2424
   -692921.81146   -525071.63043  24312016.0784                   24312023.2074
 -48889384.88248 -38079699.17846  20365953.3914                   20365952.7624
 -35818955.07148 -27894873.99946  21534023.0784                   21534024.8404
 -47261475.59347 -36816368.18545  21655729.3834                   21655726.6524
 -47116743.59848 -36703398.79546  21754472.2274                   21754471.6884
 -11308252.27746  -8796851.38944  23372912.3594                   23372915.9694
 -19203154.49647 -14948448.56245  22509703.8674                   22509703.8754
 -22285123.48447 -17355693.07045  22167522.1564                   22167522.5514
 11  9 22  0 11 30.0000000  0  9G10G15G05G25G02G12G26G30G29
 -42528025.30146 -33098655.26743  23905310.2424                   23905310.4104
   -862450.42546   -657171.39644  24279756.5704                   24279762.4184
 -48931652.80748 -38112635.19947  20357909.9844                   20357909.2194
 -35873923.65048 -27937706.64446  21523562.8204                   21523564.8094
 -47293040.77347 -36840964.41045  21649722.6094                   21649720.0124
 -47116485.45348 -36703197.66846  21754520.8674                   21754521.0354
 -11476258.48746  -8927765.09444  23340941.4924                   23340945.1844
 -19296124.95247 -15020893.02445  22492011.8834                   22492012.4304
 -22437998.56447 -17474816.44645  22138430.9924                   22138431.6294
 11  9 22  0 12  0.0000000  0  9G10G15G05G25G02G12G26G30G29
 -42494100.63646 -33072220.45643  23911766.0234                   23911767.6254
  -1032080.75446   -789350.40944  24247476.4384                   24247482.6174
 -48973441.16548 -38145197.52847  20349958.0784                   20349956.9844
 -35928351.37948 -27980117.83846  21513205.1644                   21513207.4494
 -47324524.33447 -36865497.05546  21643731.1724                   21643728.5164
 -47115881.14948 -36702726.80246  21754635.6414                   21754636.2584
 -11644154.08746  -9058592.59244  23308991.6724                   23308994.8874
 -19388524.47247 -15092892.62345  22474428.8984                   22474429.5004
 -22590761.11847 -17593852.11245  22109361.3524                   22109361.9804
 11  9 22  0 12 30.0000000  0  9G10G15G05G25G02G12G26G30G29
 -42460082.87146 -33045713.22342  23918239.2814                   23918240.5044
  -1201811.54846   -921607.68644  24215177.2424                   24215183.5314
 -49014752.86548 -38177388.44747  20342096.5554                   20342095.0784
 -35982240.70748 -28022109.51846  21502950.6414                   21502952.7034
 -47355927.53847 -36889967.09445  21637755.2344                   21637753.2974
 -47114934.61248 -36701989.26846  21754816.2274                   21754815.6374
 -11811936.90847  -9189332.18944  23277064.4844                   23277067.6134
 -19480354.26347 -15164448.26745  22456953.6414                   22456954.4574
 -22743410.01047 -17712799.22845  22080313.0554                   22080314.0164
 11  9 22  0 13  0.0000000  0  9G10G15G05G25G02G12G26G30G29
 -42425974.37046 -33019135.06242  23924730.5554                   23924729.2974
  -1371639.34246  -1053940.59843  24182860.4614                   24182865.3014
 -49055588.83448 -38209208.65847  20334325.6484                   20334325.0864
 -36035592.40448 -28063682.26846  21492798.0004                   21492800.0274
 -47387249.72547 -36914374.00145  21631795.5234                   21631792.8094
 -47113648.36348 -36700987.03646  21755061.0164                   21755060.9414
 -11979602.71647  -9319980.68444  23245158.3364                   23245160.2114
 -19571613.69347 -15235559.45344  22439587.8364                   22439588.0514
 -22895943.18547 -17831656.16446  22051287.2194                   22051287.8524
 11  9 22  0 13 30.0000000  0  9G10G15G05G25G02G12G26G30G29
 -42391776.51746 -32992487.39643  23931237.8444                   23931239.6254
  -1541560.49046  -1186346.17043  24150523.6024                   24150531.1954
 -49095950.00848 -38240658.90647  20326645.0944                   20326644.2974
 -36088406.46648 -28104836.07246  21482747.8594                   21482750.6294
 -47418489.75047 -36938716.89146  21625850.6414                   21625848.7544
 -47112023.77448 -36699721.15246  21755370.2734                   21755369.6374
 -12147146.88447  -9450534.36044  23213276.7194                   23213277.4924
 -19662301.24947 -15306225.01144  22422329.7814                   22422330.1884
 -23048357.08847 -17950420.14546  22022283.3204                   22022284.0434
 11  9 22  0 14  0.0000000  0  9G10G15G05G25G02G12G26G30G29
 -40782072.94246 -31738172.97043  24237554.9774                   24237556.0004
   -136146.31146    -91217.81143  24417965.2194                   24417971.6844
 -47560416.91548 -37044139.59047  20618847.4534                   20618846.3634
 -34565262.13348 -26917970.36146  21772592.8204                   21772594.7664
 -45874226.88247 -35735395.18846  21919713.8284                   21919711.7544
 -45534643.52548 -35470593.72646  22055535.5164                   22055535.2344
 -10739139.72247  -8353385.70244  23481210.9844                   23481212.8444
 -18176993.61947 -14148842.41244  22704975.0784                   22704975.0354
 -21625224.31647 -16841485.43746  22293096.8754                   22293096.2664
 11  9 22  0 14 30.0000000  0  9G10G15G05G25G02G12G26G30G29
 -40747703.83646 -31711391.84743  24244094.1804                   24244096.7464
   -306245.63046   -223762.21543  24385595.7194                   24385602.2234
 -47599833.75648 -37074853.99147  20611346.7584                   20611345.6484
 -34617004.44848 -26958289.04846  21762746.4454                   21762747.9344
 -45905303.13147 -35759610.47645  21913800.1094                   21913798.2194
 -45532350.80047 -35468807.22046  22055971.6644                   22055972.3094
 -10906429.03647  -8483740.81644  23449376.2424                   23449378.6764
 -18266537.09247 -14218616.49444  22687935.3984                   22687935.3634
 -21777393.20647 -16960058.50746  22264139.8914                   22264140.2934
 11  9 22  0 15  0.0000000  0  9G10G15G05G25G02G12G26G30G29
 -40713256.56646 -31684549.90743  24250650.1174                   24250651.3284
   -476433.78146   -356375.80243  24353210.3674                   24353214.9224
 -47638784.91548 -37105205.52246  20603934.3984                   20603932.6914
 -34668216.77148 -26998194.76046  21753000.9224                   21753001.9654
 -45936301.31747 -35783764.90846  21907901.3984                   21907899.8244
 -45529732.24448 -35466766.82046  22056470.1254                   22056470.7504
 -11073589.46047  -8613995.46644  23417567.1484                   23417568.1764
 -18355512.42547 -14287947.88644  22671003.6024                   22671004.3754
 -21929440.39447 -17078536.71546  22235206.0944                   22235206.9844
 11  9 22  0 15 30.0000000  0  9G10G15G05G25G02G12G26G30G29
 -40678729.51746 -31657645.84443  24257219.3754                   24257222.2464
   -646704.04846   -489053.58242  24320808.3594                   24320811.3674
 -47677268.13748 -37135192.42947  20596611.4144                   20596610.3164
 -34718896.24748 -27037685.26946  21743357.0704                   21743358.5394
 -45967217.07147 -35807855.12745  21902018.2424                   21902016.9734
 -45526786.23648 -35464471.27146  22057030.8674                   22057031.1414
 -11240613.10547  -8744143.54044  23385783.4694                   23385785.4224
 -18443915.23547 -14356833.10445  22654181.5784                   22654181.8754
 -22081359.50447 -17196915.15446  22206296.9844                   22206296.8834
 11  9 22  0 16  0.0000000  0  9G10G15G05G25G02G12G26G30G29
 -40644128.28346 -31630683.82743  24263803.9774                   24263806.3404
   -817056.69746   -621795.49343  24288390.9844                   24288395.9494
 -47715288.55448 -37164818.70947  20589376.4454                   20589375.1604
 -34769047.34148 -27076764.05146  21733813.9064                   21733815.6054
 -45998053.50947 -35831883.54645  21896150.7194                   21896148.9654
 -45523519.08448 -35461925.47046  22057652.5164                   22057653.1024
 -11407499.46247  -8874184.67244  23354025.6174                   23354026.9224
 -18531748.74247 -14425274.74044  22637467.3834                   22637468.0594
 -22233151.79947 -17315194.76946  22177411.4844                   22177411.6054
 11  9 22  0 16 30.0000000  0  9G10G15G05G25G02G12G26G30G29
 -40609456.19347 -31603666.64943  24270403.0864                   24270403.7274
   -987489.60546   -754599.82443  24255958.8364                   24255963.6414
 -47752848.59448 -37194086.25247  20582228.6174                   20582227.5044
 -34818672.07648 -27115432.68246  21724370.5634                   21724372.4384
 -46028811.44547 -35855850.77645  21890297.6024                   21890295.5044
 -45519933.75847 -35459131.75345  22058334.8284                   22058334.5204
 -11574245.56547  -9004116.44244  23322294.7114                   23322295.6724
 -18619013.67047 -14493273.33544  22620861.0314                   22620861.6134
 -22384815.76647 -17433374.37846  22148550.7504                   22148550.8674
 11  9 22  0 17  0.0000000  0  9G10G15G05G25G02G12G26G30G29
 -40574713.80547 -31576594.62544  24277013.5474                   24277014.3444
  -1157997.80646   -887462.95843  24223512.6334                   24223516.9024
 -47789948.25948 -37222995.05947  20575169.1564                   20575168.3754
 -34867769.93148 -27153690.75846  21715027.5234                   21715029.9734
 -46059488.95947 -35879755.34645  21884460.1024                   21884457.5864
 -45516031.72248 -35456091.25146  22059077.0164                   22059077.4964
 -11740845.73347  -9133934.52844  23290591.5864                   23290593.8714
 -18705707.98847 -14560827.28444  22604363.0314                   22604365.0864
 -22536347.18347 -17551450.69846  22119715.0944                   22119715.3674
 11  9 22  0 17 30.0000000  0  9G10G15G05G25G02G12G26G30G29
 -40539905.62946 -31549471.41043  24283637.6094                   24283639.3484
  -1328581.76346  -1020385.05043  24191048.9774                   24191054.3914
 -47826591.61648 -37251548.29947  20568195.9224                   20568194.8054
 -34916344.63648 -27191541.19546  21705783.7274                   21705786.0784
 -46090087.90947 -35903598.68745  21878637.1024                   21878634.7274
 -45511817.82148 -35452807.73346  22059879.4454                   22059879.6024
 -11907299.09347  -9263638.24044  23258916.6094                   23258917.8244
 -18791834.31247 -14627938.67545  22587973.6414                   22587975.2624
 -22687746.34347 -17669423.96946  22090904.6254                   22090906.0944
 11  9 22  0 18  0.0000000  0  9G10G15G05G25G02G12G26G30G29
 -40505033.52146 -31522298.39243  24290273.1024                   24290274.4844
  -1499237.75647  -1153363.25644  24158575.1334                   24158580.5634
 -47862780.38748 -37279747.31947  20561309.2424                   20561307.6764
 -34964397.35048 -27228984.87546  21696639.5394                   21696641.5944
 -46120608.42147 -35927380.90045  21872829.0004                   21872827.0594
 -45507294.98748 -35449283.47646  22060740.0634                   22060739.6334
 -12073600.87047  -9393223.86744  23227269.5944                   23227272.1024
 -18877392.23247 -14694607.11945  22571693.0084                   22571693.6484
 -22839010.67547 -17787292.17746  22062120.2344                   22062120.1954
 11  9 22  0 18 30.0000000  0  9G10G15G05G25G02G12G26G30G29
 -40470100.96446 -31495078.15043  24296921.0234                   24296923.1294
  -1669963.69647  -1286396.00444  24126086.4924                   24126091.1844
 -47898517.03848 -37307594.04046  20554508.8834                   20554507.3484
 -35011930.04248 -27266023.35646  21687594.5554                   21687596.4614
 -46151051.16847 -35951102.53245  21867035.8204                   21867034.3134
 -45502466.22548 -35445520.83745  22061658.5314                   22061658.3364
 -12239748.48547  -9522689.37444  23195652.7974                   23195654.3954
 -18962382.52047 -14760833.28945  22555519.8054                   22555520.6644
 -22990138.61448 -17905054.12346  22033361.5004                   22033362.0434
 11  9 22  0 19  0.0000000  0  9G10G15G05G25G02G12G26G30G29
 -40435107.75046 -31467810.84243  24303580.3524                   24303581.9924
  -1840754.28147  -1419479.09944  24093586.4064                   24093590.9064
 -47933800.76048 -37335087.82347  20547794.7274                   20547793.6484
 -35058941.69848 -27302655.82446  21678648.3524                   21678650.1174
 -46181413.43448 -35974761.42545  21861258.8594                   21861255.9304
 -45497332.31748 -35441520.42546  22062636.0004                   22062635.3054
 -12405735.39946  -9652029.60544  23164066.7194                   23164068.8674
 -19046802.77147 -14826615.25945  22539455.3364                   22539456.6484
 -23141125.50948 -18022706.16446  22004629.9924                   22004630.1604
 11  9 22  0 19 30.0000000  0  9G10G15G05G25G02G12G26G30G29
 -40400058.97646 -31440500.07543  24310249.8984                   24310251.1134
  -2011609.27947  -1552612.47144  24061073.4924                   24061077.0004
 -47968636.75848 -37362232.72846  20541165.5474                   20541164.6294
 -35105436.57748 -27338885.60146  21669800.9844                   21669802.9384
 -46211697.59748 -35998359.46545  21855495.6484                   21855492.6564
 -45491898.43048 -35437286.25546  22063669.9064                   22063670.5664
 -12571561.01046  -9781244.19044  23132510.6254                   23132512.4734
 -19130655.93447 -14891955.34545  22523498.0554                   22523499.8954
 -23291971.90848 -18140248.73446  21975924.2894                   21975924.6764
 11  9 22  0 20  0.0000000  0  9G10G15G05G25G02G12G26G30G29
 -40364954.99046 -31413146.31843  24316929.8594                   24316931.2544
  -2182524.04647  -1685792.37444  24028548.5474                   24028553.2934
 -48003024.55948 -37389028.39546  20534621.7974                   20534620.6484
 -35151414.38448 -27374712.49346  21661051.3524                   21661054.0944
 -46241901.96647 -36021895.31545  21849747.5474                   21849745.7624
 -45486165.99247 -35432819.44046  22064760.9384                   22064761.5274
 -12737219.61447  -9910328.63544  23100986.7894                   23100989.2584
 -19213940.41447 -14956852.28245  22507649.5704                   22507651.4924
 -23442673.91248 -18257678.78246  21947246.6174                   21947247.3284
 11  9 22  0 20 30.0000000  0  9G10G15G05G25G02G12G26G30G29
 -40329797.74746 -31385751.05143  24323619.7034                   24323621.0044
  -2353495.37647  -1819016.35144  23996014.0234                   23996017.7384
 -48036966.22848 -37415476.42246  20528162.5864                   20528161.8714
 -35196876.15448 -27410137.27446  21652400.3754                   21652402.7194
 -46272026.05747 -36045368.61545  21844015.3914                   21844013.1484
 -45480137.03247 -35428121.59345  22065908.1954                   22065908.3954
 -12902706.98546 -10039279.63244  23069494.8524                   23069498.0164
 -19296655.92847 -15021305.88145  22491909.8984                   22491910.5864
 -23593228.92548 -18374994.29346  21918596.8754                   21918597.3134
 11  9 22  0 21  0.0000000  0  9G10G15G05G25G02G12G26G30G29
 -40294590.37846 -31358316.75042  24330318.8524                   24330320.8444
  -2524521.07447  -1952282.75744  23963468.3594                   23963472.3554
 -48070464.01448 -37441578.56846  20521788.5634                   20521787.4344
 -35241824.02647 -27445161.59646  21643847.6804                   21643848.9804
 -46302070.28447 -36068779.69945  21838297.7814                   21838296.0274
 -45473815.37847 -35423195.65545  22067110.9384                   22067111.6214
 -13068020.01246 -10168094.80644  23038036.7114                   23038039.1254
 -19378803.24847 -15085316.74545  22476278.2424                   22476278.3984
 -23743635.08248 -18492193.81246  21889975.2584                   21889975.5004
 11  9 22  0 21 30.0000000  0  9G10G15G05G25G02G12G26G30G29
 -40259336.21145 -31330845.94942  24337027.7974                   24337027.9844
  -2695599.68946  -2085590.35244  23930912.8984                   23930916.7384
 -48103521.26348 -37467337.44146  20515497.8674                   20515497.0514
 -35286260.80048 -27479787.65946  21635391.4064                   21635393.3834
 -46332035.56847 -36092129.24345  21832595.4694                   21832593.0314
 -45467204.96147 -35418044.71745  22068368.7424                   22068369.5314
 -13233156.22846 -10296772.21444  23006613.2734                   23006614.0044
 -19460383.89447 -15148886.04845  22460753.7194                   22460754.4024
 -23893891.60848 -18609276.74946  21861382.5944                   21861381.9804
 11  9 22  0 22  0.0000000  0  9G10G15G05G25G02G12G26G30G29
 -40224040.132 6                  24343745.773
  -2866730.14246  -2218938.35044  23898347.4534                   23898351.5234
 -48136141.90548 -37492756.10246  20509290.2274                   20509289.5744
 -35330190.27648 -27514018.42146  21627031.9774                   21627033.7304
 -46361924.26647 -36115419.10945  21826907.8134                   21826905.8054
 -45460311.25347 -35412673.00945  22069681.1094                   22069680.8554
 -13398114.01647 -10425310.58244  22975222.2584                   22975224.6684
 -19541400.46447 -15212015.80345  22445336.2504                   22445336.9494
 -24043998.49148 -18726243.08346  21832818.1174                   21832818.2464
 11  9 22  0 22 30.0000000  0  9G10G15G05G25G02G12G26G30G29
 -40188702.79246 -31275806.81553  24350468.6884                   24350470.2234
  -3037908.46346  -2352323.67144  23865772.9694                   23865777.5514
 -48168326.24448 -37517834.78247  20503165.7664                   20503164.1954
 -35373612.52248 -27547853.93746  21618768.8674                   21618770.6764
 -46391734.51347 -36138647.84145  21821235.7734                   21821233.8054
 -45453135.40348 -35407081.45745  22071046.3444                   22071046.4924
 -13562888.10547 -10553705.82544  22943866.7424                   22943868.1804
 -19621851.61847 -15274704.98645  22430027.4614                   22430027.5744
 -24193951.90247 -18843089.82446  21804283.0234                   21804283.0314
 11  9 22  0 23  0.0000000  0  9G10G15G05G25G02G12G26G30G29
 -40153326.93346 -31248241.26643  24357201.8524                   24357203.7424
  -3209131.75646  -2485744.07244  23833190.3444                   23833193.4104
 -48200077.07348 -37542575.67246  20497123.5164                   20497122.4574
 -35416529.47848 -27581295.72746  21610601.7734                   21610604.1724
 -46421466.82548 -36161815.84645  21815577.8524                   21815575.5904
 -45445680.07847 -35401272.14045  22072464.8524                   22072465.9264
 -13727475.17347 -10681955.30544  22912546.8284                   22912548.2234
 -19701737.99147 -15336954.08345  22414825.0944                   22414826.1214
 -24343749.59547 -18959815.22646  21775777.2814                   21775777.1174
 11  9 22  0 23 30.0000000  0  9G10G15G05G25G02G12G26G30G29
 -40117914.29246 -31220646.96943  24363939.4774                   24363942.6054
  -3380396.60046  -2619196.83943  23800598.6884                   23800602.8164
 -48231395.57147 -37566979.67746  20491164.0164                   20491162.8404
 -35458942.26648 -27614344.65446  21602531.5164                   21602533.3634
 -46451120.46547 -36184922.55845  21809935.0164                   21809933.0314
 -45437948.32047 -35395247.41445  22073936.2344                   22073936.6954
 -13891870.77347 -10810055.61344  22881263.0234                   22881264.5004
 -19781059.41247 -15398762.96245  22399730.6564                   22399731.4104
 -24493389.11948 -19076417.38546  21747302.0554                   21747301.5204
 11  9 22  0 24  0.0000000  0  9G10G15G05G25G02G12G26G30G29
 -40082467.60947 -31193026.17143  24370685.4694                   24370688.1884
  -3551700.23046  -2752679.89643  23767999.4614                   23768002.8714
 -48262284.35348 -37591048.84446  20485286.0084                   20485284.6484
 -35500852.92648 -27647002.31846  21594556.0864                   21594557.8794
 -46480695.52048 -36207968.02945  21804306.7034                   21804304.4344
 -45429943.21247 -35389009.68145  22075460.1484                   22075459.7974
 -14056071.55047 -10938004.11544  22850016.6644                   22850018.2464
 -19859816.64847 -15460132.22445  22384743.6724                   22384743.6174
 -24642868.34247 -19192894.63346  21718856.8054                   21718857.0354
 11  9 22  0 24 30.0000000  0  9G10G15G05G25G02G12G26G30G29
 -40046990.00247 -31165381.24244  24377436.7504                   24377439.0594
  -3723041.37446  -2886192.06243  23735395.4694                   23735398.8444
 -48292746.41048 -37614785.48746  20479489.6804                   20479488.5704
 -35542264.28448 -27679270.91446  21586675.5234                   21586677.5594
 -46510192.89847 -36230952.98245  21798693.4534                   21798691.2814
 -45421668.84747 -35382562.15945  22077034.3914                   22077034.4574
 -14220074.97547 -11065798.78844  22818807.6804                   22818808.8714
 -19938011.36247 -15521063.14845  22369863.9694                   22369864.2854
 -24792186.41547 -19309246.30346  21690442.1094                   21690442.2934
 11  9 22  0 25  0.0000000  0  9G10G15G05G25G02G12G26G30G29
 -38436062.54746 -29910113.08543  24683985.3054                   24683986.8834
  -2318988.68446  -1792124.76544  24002577.1954                   24002580.3674
 -46747360.32248 -36410588.52246  20773566.6884                   20773565.8954
 -34007754.29648 -26483548.85346  21878682.8444                   21878685.0904
 -44964189.18247 -35026274.74545  22092888.6484                   22092886.6214
 -43837705.76247 -34148305.24045  22378452.5164                   22378452.8364
 -12808449.48147  -9965830.70644  23087430.9774                   23087431.9774
 -18440218.83947 -14353952.04645  22654884.3674                   22654884.1724
 -23365913.46747 -18197864.70846  21961852.8594                   21961853.1294
 11  9 22  0 25 30.0000000  0 10G10G15G05G25G02G12G26G30G29G21
 -38400536.45546 -29882430.52343  24690746.4224                   24690747.7624
  -2490402.02747  -1925693.22044  23969958.3444                   23969962.1454
 -46776981.66148 -36433670.07246  20767929.3984                   20767928.6024
 -34048178.80248 -26515048.47546  21870990.1804                   21870992.7774
 -44993537.50047 -35049143.53945  22087303.4144                   22087301.6524
 -43828908.10147 -34141449.93645  22380126.8674                   22380126.6884
 -12972053.36247 -10093314.06244  23056297.8674                   23056299.5784
 -18517296.12347 -14414012.24045  22640216.9844                   22640217.5474
 -23514908.47248 -18313964.64546  21933499.9384                   21933500.2424
   4407171.89655   3521692.67453  25286914.0554                   25286915.8634
 11  9 22  0 26  0.0000000  0 10G10G15G05G25G02G12G26G30G29G21
 -38364993.45446 -29854734.64143  24697509.7424                   24697510.9304
  -2661851.32247  -2059289.76544  23937332.7814                   23937335.3484
 -46806189.98348 -36456429.78746  20762371.3914                   20762370.2344
 -34088116.69448 -26546168.91546  21863390.7344                   21863392.4924
 -45022815.49048 -35071957.54145  22081732.7114                   22081730.1174
 -43819857.13747 -34134397.27045  22381848.7424                   22381849.6844
 -13135455.93247 -10220640.55944  23025203.3134                   23025205.1024
 -18593819.74747 -14473641.01545  22625655.0314                   22625655.4694
 -23663742.98148 -18429939.52646  21905177.7344                   21905177.8404
   4274519.84146   3418327.59643  25261671.2814                   25261673.4614
 11  9 22  0 26 30.0000000  0  9G15G05G25G02G12G26G30G29G21
  -2833328.53047  -2192908.06644  23904700.8914                   23904704.8554
 -46834981.94248 -36478865.07046  20756892.2424                   20756891.4264
 -34127564.72948 -26576907.64146  21855883.6024                   21855885.5704
 -45052017.65648 -35094712.46345  22076175.3834                   22076173.5354
 -43810551.17547 -34127145.89945  22383619.5474                   22383620.4964
 -13298648.60347 -10347803.49944  22994148.6024                   22994150.0164
 -18669785.05747 -14532834.73745  22611199.1484                   22611199.6054
 -23812409.55748 -18545783.54946  21876887.5004                   21876887.3134
   4141852.90146   3314950.91143  25236425.8674                   25236429.0784
 11  9 22  0 27  0.0000000  0  9G15G05G25G02G12G26G30G29G21
  -3004829.07347  -2326544.49144  23872065.7424                   23872068.2974
 -46863358.49248 -36500976.65446  20751492.5864                   20751491.5554
 -34166522.90348 -26607264.66946  21848470.5704                   21848472.6884
 -45081142.04647 -35117406.78845  22070633.0004                   22070630.9454
 -43800991.03447 -34119696.46145  22385438.3754                   22385439.0744
 -13461625.88447 -10474798.58944  22963134.9924                   22963136.0234
 -18745190.84147 -14591592.47245  22596849.8054                   22596851.3634
 -23960904.12347 -18661493.55046  21848630.2274                   21848629.3324
   4009172.46446   3211563.67743  25211177.3914                   25211179.7274
 11  9 22  0 27 30.0000000  0  9G15G05G25G02G12G26G30G29G21
  -3176344.29147  -2460192.41344  23839426.8754                   23839428.9574
 -46891315.21748 -36522761.10046  20746173.0164                   20746172.0784
 -34204987.33448 -26637236.96846  21841150.9614                   21841153.4344
 -45110182.54847 -35140035.74945  22065106.3674                   22065104.3714
 -43791174.09747 -34112046.95145  22387306.7344                   22387307.9264
 -13624378.05947 -10601618.29944  22932164.0554                   22932164.9494
 -18820032.02847 -14649910.25345  22582606.7034                   22582608.6724
 -24109218.38247 -18777063.04446  21820406.5004                   21820406.0984
   3876483.81546   3108170.08843  25185927.9844                   25185928.9384
 11  9 22  0 28  0.0000000  0  9G15G05G25G02G12G26G30G29G21
  -3347863.10047  -2593843.10744  23806788.4844                   23806791.4304
 -46918846.81447 -36544214.28546  20740933.7344                   20740932.9884
 -34242951.90048 -26666819.76646  21833926.3524                   21833928.2814
 -45139131.29147 -35162593.22545  22059597.8594                   22059594.9494
 -43781095.24947 -34104193.32545  22389225.1484                   22389226.2504
 -13786893.49047 -10728253.54344  22901238.3054                   22901239.6914
 -18894301.21647 -14707782.32045  22568475.0084                   22568476.4884
 -24257342.38047 -18892484.27546  21792219.3134                   21792219.7114
   3743794.35746   3004775.83143  25160677.3674                   25160677.9694
 11  9 22  0 28 30.0000000  0  9G15G05G25G02G12G26G30G29G21
  -3519387.36346  -2727498.04944  23774147.1954                   23774150.7664
 -46945960.50048 -36565341.82746  20735774.2734                   20735772.9344
 -34280423.40748 -26696018.34646  21826795.8054                   21826797.8054
 -45167993.10147 -35185082.94045  22054105.5004                   22054102.8794
 -43770762.59947 -34096141.93645  22391191.8054                   22391191.5474
 -13949173.31947 -10854705.21044  22870357.6174                   22870358.1484
 -18968004.04147 -14765213.08745  22554449.7424                   22554450.7424
 -24405278.52847 -19007759.13946  21764068.3524                   21764068.2464
   3611098.66846   2901376.71343  25135425.5554                   25135427.4734
 11  9 22  0 29  0.0000000  0  9G15G05G25G02G12G26G30G29G21
  -3690920.05046  -2861159.50244  23741504.7034                   23741509.6374
 -46972663.86648 -36586149.64346  20730692.8204                   20730690.8674
 -34317409.53748 -26724838.71846  21819757.7114                   21819760.3014
 -45196773.50647 -35207509.24045  22048629.0234                   22048625.4654
 -43760184.53247 -34087899.34745  22393205.0004                   22393204.6524
 -14111219.53547 -10980974.83544  22839520.3674                   22839521.2894
 -19041146.81347 -14822207.42745  22540531.0314                   22540531.0704
 -24553030.49747 -19122890.48846  21735952.0634                   21735951.6684
   3478390.26345   2797967.70742  25110171.8594                   25110174.2734
 11  9 22  0 29 30.0000000  0  9G15G05G25G02G12G26G30G29G21
  -3862459.48047  -2994826.24644  23708863.0164                   23708864.9304
 -46998960.28447 -36606640.35546  20725688.8444                   20725687.1724
 -34353913.41848 -26753283.31446  21812810.8594                   21812813.3794
 -45225473.36247 -35229872.77645  22043167.9144                   22043164.5664
 -43749365.81547 -34079469.20245  22395263.4774                   22395263.7034
 -14273029.61147 -11107060.43944  22808729.3054                   22808730.0204
 -19113731.57347 -14878766.95745  22526718.6334                   22526719.0594
 -24700597.06647 -19237877.38246  21707870.6334                   21707870.8754
   3345667.94645   2694547.89542  25084915.5314                   25084917.6374
 11  9 22  0 30  0.0000000  0  9G15G05G25G02G12G26G30G29G21
  -4034003.27846  -3128496.41544  23676217.8444                   23676221.7704
 -47024852.58348 -36626816.16046  20720761.7664                   20720760.1094
 -34389937.59048 -26781354.10346  21805955.7584                   21805958.4694
 -45254093.33347 -35252174.07045  22037721.7664                   22037718.9734
 -43738309.70247 -34070854.10145  22397367.2584                   22397366.9964
 -14434600.44747 -11232959.63244  22777983.1334                   22777984.8794
 -19185759.54447 -14934892.64445  22513012.2274                   22513013.3284
 -24847976.63047 -19352718.53746  21679825.3754                   21679825.1954
   3212930.72046   2591116.40242  25059657.1954                   25059657.2624
 11  9 22  0 30 30.0000000  0  9G15G05G25G02G12G26G30G29G21
  -4205550.13146  -3262168.93944  23643573.6174                   23643577.2344
 -47050344.63048 -36646680.09546  20715910.4534                   20715908.5004
 -34425485.71848 -26809053.96746  21799191.7734                   21799194.0554
 -45282634.78347 -35274414.16345  22032290.4454                   22032287.9384
 -43727020.63947 -34062057.46045  22399515.1564                   22399516.1564
 -14595930.00447 -11358670.85344  22747283.0554                   22747285.3874
 -19257233.24847 -14990586.42245  22499411.4924                   22499411.4574
 -24995168.56347 -19467413.50746  21651815.8054                   21651815.5904
   3080175.90846   2487671.19542  25034394.4144                   25034394.3914
 11  9 22  0 31  0.0000000  0  9G15G05G25G02G12G26G30G29G21
  -4377095.72847  -3395840.47344  23610929.4224                   23610932.6374
 -47075437.31348 -36666232.84446  20711135.6804                   20711133.7624
 -34460558.56848 -26836383.48846  21792517.1724                   21792519.0824
 -45311096.40547 -35296592.05845  22026873.7814                   22026871.9304
 -43715500.62047 -34053080.84645  22401707.5704                   22401708.2464
 -14757013.33047 -11484190.18044  22716630.1724                   22716630.8204
 -19328152.24847 -15045847.95845  22485916.2584                   22485916.8634
 -25142169.25347 -19581959.46346  21623842.5004                   21623842.5004
   2947404.83846   2384213.34743  25009128.2974                   25009130.5124
 11  9 22  0 31 30.0000000  0  9G15G05G25G02G12G26G30G29G21
  -4548637.93347  -3529509.41544  23578286.6884                   23578287.2504
 -47100133.60048 -36685476.69246  20706436.2114                   20706434.7234
 -34495158.82248 -26863344.75046  21785932.8594                   21785935.8634
 -45339478.62447 -35318708.07345  22021472.5394                   22021470.2274
 -43703753.50947 -34043927.31445  22403942.9144                   22403943.2384
 -14917847.30847 -11609515.21645  22686024.5704                   22686025.8134
 -19398517.95647 -15100678.35545  22472525.5944                   22472526.3754
 -25288977.16347 -19696355.17546  21595905.5084                   21595905.1134
   2814616.12847   2280741.70043  24983860.5084                   24983861.6954
 11  9 22  0 32  0.0000000  0  9G15G05G25G02G12G26G30G29G21
  -4720175.53847  -3663174.77444  23545643.4614                   23545645.6724
 -47124437.27948 -36704414.62146  20701811.3754                   20701809.5124
 -34529290.54148 -26889940.90646  21779438.0234                   21779440.3284
 -45367783.27247 -35340763.65445  22016086.7034                   22016084.5594
 -43691784.04247 -34034600.48145  22406220.6334                   22406221.6254
 -15078430.43447 -11734644.81445  22655466.5394                   22655466.6844
 -19468333.35647 -15155079.94445  22459239.5164                   22459240.5904
 -25435591.79747 -19810600.29146  21568005.2034                   21568006.0314
   2681807.10646   2177254.34543  24958588.1334                   24958588.1954
 11  9 22  0 32 30.0000000  0  9G15G05G25G02G12G26G30G29G21
  -4891704.93847  -3796833.72144  23513002.1484                   23513004.4884
 -47148350.25148 -36723048.09146  20697260.2814                   20697259.4694
 -34562954.97148 -26916172.94646  21773032.2034                   21773034.8874
 -45396008.99947 -35362757.71045  22010715.7194                   22010713.2584
 -43679594.15247 -34025101.89545  22408540.5474                   22408540.7234
 -15238757.85547 -11859575.15944  22624956.2664                   22624957.5514
 -19537598.45747 -15209052.77645  22446059.4144                   22446060.6054
 -25582010.29948 -19924692.56646  21540143.1414                   21540142.8444
   2548978.36446   2073751.46943  24933310.1644                   24933311.9614
 11  9 22  0 33  0.0000000  0  9G15G05G25G02G12G26G30G29G21
  -5063223.92947  -3930484.57244  23480363.0084                   23480365.4694
 -47171875.37748 -36741379.35346  20692783.9924                   20692782.6294
 -34596154.74948 -26942042.93446  21766714.3134                   21766716.5204
 -45424156.59147 -35384690.91045  22005359.3754                   22005356.9224
 -43667188.02647 -34015434.82745  22410901.2034                   22410901.9494
 -15398826.62647 -11984303.95145  22594497.0554                   22594497.6914
 -19606314.76547 -15262597.93545  22432983.1884                   22432983.8594
 -25728230.81948 -20038630.57746  21512318.4304                   21512318.8634
   2416128.86746   1970232.62343  24908029.4534                   24908031.3404
 11  9 22  0 33 30.0000000  0  9G15G05G25G02G12G26G30G29G21
  -5234728.23547  -4064124.01844  23447726.5784                   23447728.7854
 -47195013.85548 -36759409.32846  20688380.7194                   20688379.2584
 -34628891.15748 -26967551.83746  21760484.5864                   21760486.9414
 -45452224.58348 -35406562.06645  22000018.6564                   22000016.2274
 -43654567.57947 -34005600.76145  22413302.9384                   22413303.4454
 -15558632.14047 -12108827.60745  22564086.8754                   22564087.6884
 -19674482.34747 -15315715.50145  22420011.3284                   22420012.7074
 -25874249.94748 -20152411.64946  21484531.5314                   21484530.5554
   2283258.81046   1866697.62243  24882745.2114                   24882746.4344
 11  9 22  0 34  0.0000000  0  9G15G05G25G02G12G26G30G29G21
  -5406213.96047  -4197748.98044  23415093.7734                   23415096.2974
 -47217766.83248 -36777138.90446  20684050.8204                   20684049.3324
 -34661165.23648 -26992700.49446  21754343.8754                   21754345.6724
 -45480212.34047 -35428370.72445  21994692.3754                   21994689.7074
 -43641734.90247 -33995601.32645  22415745.6954                   22415745.6884
 -15718169.60947 -12233142.40045  22533727.9454                   22533727.8204
 -19742101.12647 -15368405.46945  22407143.7424                   22407144.7274
 -26020064.74348 -20266033.49946  21456784.0634                   21456783.9804
   2150368.99445   1763147.24743  24857456.2974                   24857458.2034
 11  9 22  0 34 30.0000000  0  9G15G05G25G02G12G26G30G29G21
  -5577679.38947  -4331358.15544  23382464.9614                   23382466.7584
 -47240137.67248 -36794570.72246  20679793.5164                   20679792.4654
 -34692980.23448 -27017491.42846  21748289.0394                   21748291.4414
 -45508120.65347 -35450117.43645  21989381.4614                   21989379.5204
 -43628693.71947 -33985439.41445  22418226.4534                   22418227.2814
 -15877436.15647 -12357246.08644  22503420.1334                   22503420.4734
 -19809173.10347 -15420669.33945  22394380.7584                   22394381.7034
 -26165673.74148 -20379494.97546  21429075.6094                   21429075.0124
   2017457.85546   1659580.20043  24832164.3134                   24832167.2774
 11  9 22  0 35  0.0000000  0  9G15G05G25G02G12G26G30G29G21
  -5749121.46646  -4464949.10144  23349839.7894                   23349841.8284
 -47262128.96348 -36811706.78046  20675609.2664                   20675607.4964
 -34724338.63348 -27041926.55646  21742321.7034                   21742324.4614
 -45535949.27947 -35471802.06745  21984085.4924                   21984084.3134
 -43615447.90847 -33975118.04145  22420747.6094                   22420747.9804
 -16036428.62647 -12481136.20945  22473164.8054                   22473165.5514
 -19875699.77247 -15472508.31145  22381721.1254                   22381722.3324
 -26311074.84848 -20492794.45246  21401406.8754                   21401406.3674
   1884524.40846   1555995.88743  24806868.8364                   24806869.6054
 11  9 22  0 35 30.0000000  0  9G15G05G25G02G12G26G30G29G21
  -4345109.52947  -3370913.59244  23617014.9224                   23617016.3554
 -45708320.02948 -35600946.57146  20971289.0084                   20971287.6764
 -33179819.27948 -25838404.99946  22036233.5394                   22036236.1334
 -43988274.85948 -34265821.98045  22278598.4384                   22278596.2734
 -42026578.44147 -32737037.97845  22723098.9224                   22723100.7034
 -14619715.83247 -11377204.05045  22742755.9454                   22742757.2074
 -18366257.53547 -14296319.55445  22668958.5474                   22668959.8794
 -24880838.70248 -19378324.64346  21673571.1644                   21673570.9104
   3326994.99246   2679998.99743  25081361.8674                   25081363.4064
 11  9 22  0 36  0.0000000  0  9G15G05G25G02G12G26G30G29G21
  -4516492.09047  -3504458.17744  23584400.9534                   23584403.8834
 -45729554.74648 -35617493.09246  20967248.3364                   20967247.1094
 -33210266.65048 -25862130.24246  22030440.1174                   22030442.5984
 -44015939.23548 -34287378.61445  22273334.5234                   22273331.4064
 -42012927.60647 -32726400.99045  22725696.8054                   22725697.6024
 -14778144.63147 -11500654.94445  22712608.1024                   22712608.1954
 -18431692.16247 -14347307.55945  22656506.5394                   22656508.1214
 -25025812.98948 -19491291.54046  21645983.6644                   21645983.5744
   3194020.03846   2576382.20743  25056057.1414                   25056059.4924
 11  9 22  0 36 30.0000000  0  9G15G05G25G02G12G26G30G29G21
  -4687844.26847  -3637979.09344  23551794.1484                   23551795.4454
 -45750418.44348 -35633750.51346  20963278.4384                   20963276.8634
 -33240265.75448 -25885506.18446  22024731.4144                   22024733.9344
 -44043525.14348 -34308874.11845  22268084.4224                   22268081.9414
 -41999082.96947 -32715613.03045  22728331.9454                   22728332.1764
 -14936290.06247 -11623885.05045  22682513.6564                   22682515.0744
 -18496586.29347 -14397874.42645  22644157.7034                   22644158.3164
 -25170574.31348 -19604092.47446  21618436.1334                   21618435.4534
   3061019.81146   2472745.70443  25030748.1884                   25030748.9384
 11  9 22  0 37  0.0000000  0  9G15G05G25G02G12G26G30G29G21
  -4859162.77047  -3771473.81344  23519192.6644                   23519194.7894
 -45770913.36548 -35649720.58946  20959378.0234                   20959376.4774
 -33269818.64248 -25908534.42346  22019107.7584                   22019110.1764
 -44071032.16747 -34330308.15745  22262850.7424                   22262847.2504
 -41985047.23547 -32704676.11745  22731002.8364                   22731002.4454
 -15094148.09447 -11746891.22245  22652473.7664                   22652474.7704
 -18560940.92447 -14448020.88045  22631911.0164                   22631911.8674
 -25315120.04848 -19716725.42446  21590929.8674                   21590929.3984
   2927994.27946   2369089.43243  25005433.3834                   25005433.4064
 11  9 22  0 37 30.0000000  0  9G15G05G25G02G12G26G30G29G21
  -5030443.20347  -3904938.82544  23486598.8284                   23486600.9964
 -45791040.05848 -35665403.71146  20955547.8054                   20955546.8794
 -33298926.10348 -25931215.56746  22013568.5314                   22013570.9614
 -44098458.58347 -34351679.36545  22257631.2584                   22257628.3444
 -41970821.87347 -32693591.44945  22733709.2894                   22733709.7664
 -15251713.58247 -11869669.39645  22622490.6174                   22622491.1254
 -18624755.70747 -14497746.66045  22619767.4064                   22619768.6484
 -25459446.18648 -19829187.23846  21563465.8984                   21563465.4924
   2794943.95345   2265413.98443  24980115.7034                   24980116.5204
 11  9 22  0 38  0.0000000  0  9G15G05G25G02G12G26G30G29G21
  -5201683.72447  -4038372.78244  23454013.1884                   23454014.4884
 -45810802.34548 -35680802.89946  20951787.0944                   20951785.9344
 -33327591.63848 -25953552.37346  22008114.3204                   22008115.7584
 -44125805.55947 -34372988.67545  22252427.1484                   22252424.8674
 -41956411.07947 -32682362.32645  22736451.6094                   22736452.7304
 -15408984.27247 -11992217.88944  22592562.8134                   22592562.9184
 -18688033.06047 -14547053.71445  22607725.7664                   22607726.8714
 -25603551.87748 -19941477.29346  21536043.1174                   21536042.9024
   2661867.25646   2161717.86543  24954791.2664                   24954792.4184
 11  9 22  0 38 30.0000000  0  9G15G05G25G02G12G26G30G29G21
  -5372878.90447  -4171771.38744  23421435.2274                   23421436.9654
 -45830200.22248 -35695918.11046  20948095.9924                   20948094.8484
 -33355815.24248 -25975544.80146  22002743.2194                   22002745.3524
 -44153070.27247 -34394233.89045  22247238.6804                   22247236.5084
 -41941815.44147 -32670989.14545  22739229.1484                   22739229.6844
 -15565953.87147 -12114531.74044  22562692.1724                   22562692.2544
 -18750771.93047 -14595941.13245  22595787.7734                   22595788.7154
 -25747432.48348 -20053591.94646  21508663.5634                   21508663.8554
   2528765.98146   2058002.64443  24929463.2344                   24929463.5354
 11  9 22  0 39  0.0000000  0  9G15G05G25G02G12G26G30G29G21
  -5544027.02847  -4305133.31744  23388866.5864                   23388868.6094
 -45849237.36248 -35710752.23246  20944473.4844                   20944472.2854
 -33383600.63848 -25997195.76246  21997456.3984                   21997458.5234
 -44180253.94347 -34415415.94545  22242065.9224                   22242063.0474
 -41927040.15347 -32659475.97545  22742041.2344                   22742041.3244
 -15722620.35147 -12236609.43345  22532880.2114                   22532880.1994
 -18812974.82747 -14644410.93745  22583950.6954                   22583951.5354
 -25891087.08148 -20165530.50246  21481327.0554                   21481326.2974
   2395638.70546   1954267.15343  24904129.6954                   24904131.1214
 11  9 22  0 39 30.0000000  0  9G15G05G25G02G12G26G30G29G21
  -5715126.02447  -4438456.99244  23356307.4694                   23356308.8874
 -45867916.66048 -35725307.51546  20940919.0234                   20940917.6804
 -33410950.62648 -26018507.44746  21992251.1484                   21992253.4224
 -44207356.91448 -34436535.12245  22236908.7194                   22236906.0044
 -41912088.34047 -32647825.24845  22744886.0784                   22744885.9414
 -15878980.37447 -12358448.33145  22503125.1024                   22503125.7704
 -18874643.59347 -14692464.50845  22572216.2664                   22572216.6884
 -26034513.64348 -20277291.35246  21454033.5784                   21454033.2384
   2262484.07646   1850510.35843  24878791.7034                   24878792.8284
 11  9 22  0 40  0.0000000  0  9G15G05G25G02G12G26G30G29G21
  -5886174.07747  -4571740.95544  23323758.0944                   23323759.1294
 -45886241.94348 -35739586.95346  20937431.3444                   20937430.9574
 -33437869.19648 -26039482.96146  21987129.0634                   21987131.0824
 -44234380.46448 -34457592.41645  22231766.2584                   22231763.3204
 -41896964.74947 -32636040.68245  22747763.7894                   22747764.4024
 -16035031.74847 -12480046.68745  22473429.5944                   22473430.1254
 -18935781.12547 -14740104.13645  22560581.7504                   22560582.5434
 -26177711.60548 -20388874.08146  21426784.0864                   21426783.8634
   2129300.19646   1746730.78343  24853448.1954                   24853448.6804
 11  9 22  0 40 30.0000000  0  9G15G05G25G02G12G26G30G29G21
  -6057163.83447  -4704979.49444  23291219.5784                   23291220.9144
 -45904211.25348 -35753588.99646  20934012.5864                   20934011.6414
 -33464354.64848 -26060120.97346  21982088.9844                   21982091.1334
 -44261320.52347 -34478584.66245  22226639.7584                   22226637.4144
 -41881668.37347 -32624121.48245  22750674.6484                   22750674.8914
 -16190766.99547 -12601398.73745  22443794.6334                   22443794.8594
 -18996384.65547 -14787327.66945  22549049.7034                   22549050.0784
 -26320674.63748 -20500273.74846  21399578.9614                   21399578.5394
   1996090.87746   1642931.29743  24828098.3204                   24828099.5354
 11  9 22  0 41  0.0000000  0  9G15G05G25G02G12G26G30G29G21
  -6228093.87547  -4838171.51945  23258692.9534                   23258693.8284
 -45921828.75148 -35767316.89746  20930659.6804                   20930658.6334
 -33490410.67648 -26080424.38546  21977130.5084                   21977132.6564
 -44288178.00548 -34499512.54645  22221529.3674                   22221526.5274
 -41866203.62847 -32612071.08145  22753617.5084                   22753619.0904
 -16346183.66747 -12722502.56445  22414219.1174                   22414219.5004
 -19056456.78947 -14834137.12645  22537617.8834                   22537617.7814
 -26463401.59048 -20611489.46746  21372419.1024                   21372418.6604
   1862854.03146   1539110.36243  24802744.0864                   24802745.3284
 11  9 22  0 41 30.0000000  0  9G15G05G25G02G12G26G30G29G21
  -6398960.79447  -4971314.35745  23226177.9454                   23226178.0204
 -45939096.14448 -35780771.99446  20927373.9774                   20927372.5904
 -33516039.28048 -26100394.73646  21972253.7424                   21972255.9924
 -44314952.22147 -34520375.55845  22216433.8674                   22216431.1414
 -41850572.93947 -32599891.37945  22756592.4534                   22756593.1804
 -16501277.78747 -12843355.01745  22384705.8134                   22384706.5554
 -19115998.55447 -14880533.32145  22526287.5234                   22526287.7344
 -26605889.68248 -20722519.05246  21345304.3674                   21345304.1994
   1729589.42346   1435267.92043  24777384.0394                   24777385.7504
 11  9 22  0 42  0.0000000  0  9G15G05G25G02G12G26G30G29G21
  -6569763.71847  -5104407.33245  23193674.1254                   23193676.3404
 -45956017.74648 -35793957.63246  20924154.0864                   20924152.7304
 -33541244.98948 -26120035.55846  21967456.7274                   21967459.4414
 -44341644.95847 -34541175.06845  22211354.2974                   22211352.2114
 -41834781.39947 -32587586.32645  22759597.3444                   22759597.6914
 -16656047.73347 -12963954.91245  22355254.0314                   22355253.4184
 -19175013.36147 -14926518.88545  22515057.3054                   22515057.5784
 -26748138.73248 -20833362.38746  21318235.1884                   21318234.8674
   1596294.86946   1331402.02643  24752019.1414                   24752021.5704
 11  9 22  0 42 30.0000000  0  9G15G05G25G02G12G26G30G29G21
  -6740499.36347  -5237447.87945  23161184.4064                   23161185.7034
 -45972596.08948 -35806875.79846  20920999.3284                   20920997.8284
 -33566030.29748 -26139348.80046  21962740.4454                   21962742.8794
 -44368256.24647 -34561911.13345  22206290.2814                   22206288.0274
 -41818832.46447 -32575158.65845  22762632.5394                   22762632.6054
 -16810489.88647 -13084299.35844  22325864.2114                   22325864.3094
 -19233502.71247 -14972094.98545  22503926.9224                   22503927.1054
 -26890146.34248 -20944017.58246  21291211.8054                   21291211.2974
   1462969.88046   1227512.57143  24726648.7664                   24726649.8754
 11  9 22  0 43  0.0000000  0  9G15G05G25G02G12G26G30G29G21
  -6911164.06047  -5370433.14345  23128708.0784                   23128709.3324
 -45988832.89848 -35819527.84146  20917909.2344                   20917907.8284
 -33590396.93548 -26158335.80546  21958104.1024                   21958106.3204
 -44394784.85947 -34582582.77045  22201242.2424                   22201239.9534
 -41802728.21147 -32562609.93245  22765696.7814                   22765697.0274
 -16964599.89747 -13204384.99445  22296538.1724                   22296538.8674
 -19291467.39347 -15017262.27944  22492896.2584                   22492896.4304
 -27031909.63048 -21054482.39346  21264235.2274                   21264234.3594
   1329614.62146   1123599.52343  24701270.9694                   24701273.6954
 11  9 22  0 43 30.0000000  0  9G15G05G25G02G12G26G30G29G21
  -7081754.66647  -5503360.71845  23096246.1484                   23096246.5164
 -46004730.48648 -35831915.54046  20914883.9304                   20914882.8324
 -33614347.31548 -26176998.45646  21953546.6564                   21953548.8164
 -44421230.61147 -34603189.82145  22196209.5864                   22196207.7464
 -41786472.26847 -32549943.02945  22768790.2424                   22768790.8554
 -17118374.14447 -13324209.00545  22267276.0394                   22267276.1454
 -19348908.73047 -15062021.76345  22481966.0784                   22481966.5944
 -27173426.14648 -21164754.93746  21237305.1484                   21237304.4304
   1196228.63746   1019662.46943  24675889.0004                   24675891.0744
 11  9 22  0 44  0.0000000  0  9G15G05G25G02G12G26G30G29G21
  -7252266.09147  -5636226.57445  23063798.1024                   23063799.1054
 -46020289.22948 -35844039.20546  20911923.7584                   20911922.0664
 -33637881.72148 -26195336.97446  21949067.9844                   21949069.8284
 -44447591.01047 -34623730.37545  22191193.3444                   22191190.5234
 -41770064.94647 -32537158.16045  22771912.0634                   22771913.5434
 -17271806.83047 -13443766.86045  22238078.7274                   22238078.6024
 -19405826.01847 -15106372.90845  22471134.8834                   22471135.2384
 -27314691.11648 -21274831.45146  21210423.5474                   21210423.2734
   1062813.65146    915702.87143  24650501.4384                   24650502.3594
 11  9 22  0 44 30.0000000  0  9G15G05G25G02G12G26G30G29G21
  -7422696.22747  -5769029.11445  23031366.5554                   23031367.9534
 -46035512.49448 -35855901.46246  20909026.3284                   20909024.9964
 -33661003.94948 -26213354.30346  21944667.7274                   21944669.8204
 -44473867.13748 -34644205.25945  22186193.6414                   22186190.2734
 -41753510.40647 -32524258.57845  22775062.7664                   22775063.9574
 -17424895.74647 -13563056.85845  22208946.6954                   22208946.6994
 -19462222.15947 -15150317.92445  22460402.8674                   22460402.7384
 -27455703.77448 -21384711.37546  21183589.7974                   21183589.1644
    929368.07446    811719.41343  24625107.3754                   24625108.7544
 11  9 22  0 45  0.0000000  0  9G15G05G25G02G12G26G30G29G21
  -7593042.67047  -5901766.41744  22998950.1724                   22998951.5944
 -46050403.07747 -35867504.49546  20906192.8984                   20906191.4774
 -33683716.89148 -26231052.72646  21940345.4924                   21940347.9454
 -44500059.04447 -34664614.54445  22181208.9064                   22181206.6414
 -41736812.49847 -32511247.30945  22778240.5314                   22778240.9414
 -17577637.39047 -13682076.23745  22179881.1804                   22179881.4264
 -19518098.95347 -15193858.29445  22449770.5084                   22449770.4224
 -27596462.01348 -21494393.04946  21156804.2114                   21156803.7074
    795891.04346    707711.45443  24599707.3284                   24599708.1454
 11  9 22  0 45 30.0000000  0  9G15G05G25G02G12G26G30G29G21
  -7763300.01946  -6034434.30644  22966551.3054                   22966552.5354
 -46064961.03048 -35878848.32046  20903422.7424                   20903421.7664
 -33706020.96147 -26248432.55546  21936101.5474                   21936103.3244
 -44526164.27247 -34684956.27145  22176241.2664                   22176238.9844
 -41719972.03747 -32498124.96245  22781445.1414                   22781445.6024
 -17730026.18847 -13800820.67745  22150882.6254                   22150883.0744
 -19573455.83347 -15236993.54045  22439235.8594                   22439236.0434
 -27736961.08447 -21603872.78246  21130067.9064                   21130067.3754
    662384.33446    603680.31342  24574301.7814                   24574301.8324
 11  9 22  0 46  0.0000000  0  9G15G05G25G02G12G26G30G29G21
  -6358041.62147  -4939427.62044  23233962.9224                   23233963.2704
 -44503770.92847 -34662336.52346  21200506.7974                   21200506.0944
 -32152500.10448 -25037896.85246  22231726.6804                   22231728.5314
 -42976763.81047 -33477631.23145  22471082.2034                   22471080.5274
 -40127574.90147 -31257296.11545  23084468.1954                   23084468.5514
 -16306635.62347 -12691685.07845  22421744.6334                   22421744.6294
 -18052874.67847 -14052125.08645  22728592.7664                   22728593.6254
 -26301776.41047 -20485546.99146  21403174.4064                   21403173.8324
   2104269.50746   1727227.32443  24848682.9774                   24848683.8554
 11  9 22  0 46 30.0000000  0  9G15G05G25G02G12G26G30G29G21
  -6528115.49346  -5071952.57344  23201598.5944                   23201599.3524
 -44517675.26847 -34673171.05146  21197861.4064                   21197859.9024
 -32173997.69747 -25054648.25346  22227635.7584                   22227637.7974
 -43002698.45147 -33497840.05045  22466146.9304                   22466144.8204
 -40110462.32747 -31243961.69545  23087724.5634                   23087725.4384
 -16458311.62447 -12809874.10645  22392881.5474                   22392882.3754
 -18107200.21747 -14094456.70344  22718255.1724                   22718256.0204
 -26441754.35848 -20594620.65346  21376537.7974                   21376537.5904
   1970697.85146   1623145.54943  24823266.0944                   24823266.3444
 11  9 22  0 47  0.0000000  0 10G18G15G05G25G02G12G26G30G29G21
   7639492.35115                  24786724.531
  -6698094.20046  -5204403.37644  23169252.4844                   23169253.6724
 -44531257.32448 -34683754.43646  21195276.3364                   21195274.6764
 -32195097.01547 -25071089.32746  22223620.6094                   22223623.2304
 -43028548.34447 -33517982.80345  22461228.7504                   22461226.2424
 -40093219.45847 -31230525.74545  23091006.2734                   23091006.6294
 -16609626.67847 -12927781.84945  22364086.8204                   22364087.7304
 -18161013.59447 -14136389.21045  22708015.0084                   22708016.2624
 -26581469.11447 -20703489.22846  21349950.7814                   21349950.1294
   1837092.22646   1519037.40843  24797841.4694                   24797843.1804
 11  9 22  0 47 30.0000000  0 10G18G15G05G25G02G12G26G30G29G21
   7474481.758 5                  24755323.578
  -6867979.42546  -5336781.32244  23136924.8054                   23136925.0554
 -44544524.34148 -34694092.35046  21192752.0944                   21192750.6374
 -32215805.60147 -25087225.91846  22219680.1884                   22219682.4614
 -43054318.54748 -33538063.46645  22456324.7194                   22456321.9384
 -40075853.97847 -31216994.28845  23094310.4694                   23094311.3324
 -16760582.29347 -13045409.52845  22335361.3754                   22335360.9304
 -18214321.45947 -14177927.83145  22697870.2504                   22697871.7664
 -26720923.52547 -20812154.93846  21323413.7274                   21323413.3874
   1703447.32446   1414898.66143  24772409.7344                   24772410.7664
 11  9 22  0 48  0.0000000  0 10G18G15G05G25G02G12G26G30G29G21
   7309603.848 5                  24723947.586
  -7037766.67247  -5469082.92944  23104614.7894                   23104615.6564
 -44557477.72648 -34704185.87346  21190286.6724                   21190285.5274
 -32236124.85647 -25103059.14646  22215813.7584                   22215815.6954
 -43080007.20847 -33558080.59545  22451435.7814                   22451433.9614
 -40058367.93547 -31203368.87145  23097638.4454                   23097638.7274
 -16911174.04347 -13162753.66445  22306704.5634                   22306704.1134
 -18267124.29647 -14219072.89545  22687822.6644                   22687824.1484
 -26860113.79847 -20920614.83146  21296926.5004                   21296925.5514
   1569763.59646   1310729.60843  24746970.5234                   24746971.4024
 11  9 22  0 48 30.0000000  0 10G18G15G05G25G02G12G26G30G29G21
   7144862.264 5                  24692597.422
  -7207451.01946  -5601304.35444  23072325.1954                   23072325.9884
 -44570117.84748 -34714035.28346  21187881.7274                   21187880.3364
 -32256055.44847 -25118589.52545  22212020.6884                   22212022.5234
 -43105612.58247 -33578032.82645  22446563.4304                   22446561.4304
 -40040762.37647 -31189650.36244  23100987.9614                   23100988.7974
 -17061396.02047 -13279809.67245  22278118.7114                   22278118.4884
 -18319421.78447 -14259824.20845  22677870.4064                   22677871.9654
 -26999035.80548 -21028865.69146  21270490.3674                   21270489.5354
   1436042.97546   1206531.83743  24721524.2814                   24721524.7734
 11  9 22  0 49  0.0000000  0 10G18G15G05G25G02G12G26G30G29G21
                                  24661275.000
  -7377026.50247  -5733440.97044  23040055.7504                   23040056.6414
 -44582444.50248 -34723640.46146  21185535.4454                   21185534.5164
 -32275597.17747 -25133816.88046  22208302.1564                   22208304.6174
 -43131131.01847 -33597917.29445  22441707.3204                   22441705.0474
 -40023037.96447 -31175839.21745  23104361.7584                   23104362.0474
 -17211241.98647 -13396572.67945  22249602.8984                   22249603.7034
 -18371212.88847 -14300180.91145  22668015.4304                   22668015.7734
 -27137684.10348 -21136903.26546  21244106.1954                   21244105.3554
   1302287.46746   1102306.86443  24696071.0164                   24696072.0474
 11  9 22  0 49 30.0000000  0 10G18G15G05G25G02G12G26G30G29G21
   6815804.78315                  24629978.625
  -7546487.01847  -5865487.99744  23007808.6024                   23007808.8054
 -44594456.74748 -34733000.61446  21183249.9614                   21183248.8404
 -32294749.56547 -25148740.88145  22204657.7814                   22204660.4804
 -43156559.10847 -33617731.39545  22436868.6334                   22436866.4534
 -40005194.37647 -31161935.24045  23107757.0314                   23107757.6294
 -17360705.33547 -13513037.55045  22221161.5474                   22221161.6914
 -18422496.21347 -14340141.96245  22658256.6954                   22658257.3284
 -27276053.59247 -21244723.57546  21217775.4384                   21217774.5514
   1168500.11346    998057.07243  24670612.0704                   24670613.3134
 11  9 22  0 50  0.0000000  0 10G18G15G05G25G02G12G26G30G29G21
   6651493.57815                  24598712.648
  -7715830.08746  -5997443.50245  22975583.1094                   22975584.0204
 -44606157.82748 -34742118.32546  21181023.2424                   21181022.1724
 -32313515.99147 -25163364.12646  22201086.4454                   22201088.9064
 -43181897.67947 -33637475.71845  22432046.8204                   22432044.0744
 -39987235.16147 -31147941.09745  23111174.8054                   23111175.5744
 -17509783.13347 -13629201.96445  22192792.7974                   22192792.9574
 -18473274.17247 -14379709.17845  22648593.6804                   22648594.3674
 -27414142.41248 -21352325.19946  21191497.9614                   21191497.0234
   1034679.54546    893781.34743  24645147.1484                   24645146.7154
 11  9 22  0 50 30.0000000  0 10G18G15G05G25G02G12G26G30G29G21
   6487330.975 6                  24567473.594
  -7885050.91447  -6129303.74545  22943381.4614                   22943382.2274
 -44617548.14348 -34750993.88046  21178855.8054                   21178854.4184
 -32331897.08247 -25177687.08545  22197588.7814                   22197590.9494
 -43207143.85047 -33657148.01445  22427242.5704                   22427239.7544
 -39969161.68947 -31133857.95345  23114613.9924                   23114614.4654
 -17658469.94547 -13745061.75445  22164498.6804                   22164498.6484
 -18523546.65147 -14418882.54144  22639026.6644                   22639027.5084
 -27551946.18248 -21459704.71046  21165274.6094                   21165273.1374
    900827.34746    789480.98343  24619675.7584                   24619675.7854
 11  9 22  0 51  0.0000000  0 10G18G15G05G25G02G12G26G30G29G21
   6323317.10845   4942037.91052  24536262.3284                   24536266.1914
  -8054147.26247  -6261067.00145  22911203.9384                   22911204.8914
 -44628631.23448 -34759630.03846  21176746.7894                   21176744.6294
 -32349896.81347 -25191712.88645  22194163.6094                   22194165.5664
 -43232298.78147 -33676749.23145  22422455.6174                   22422454.0234
 -39950978.06547 -31119688.96845  23118074.2194                   23118074.8834
 -17806763.62547 -13860615.16545  22136278.6094                   22136278.7424
 -18573316.67046 -14457664.40944  22629556.0314                   22629556.4804
 -27689463.99948 -21566861.39946  21139105.9614                   21139105.5164
    766942.01346    685154.79543  24594197.3984                   24594198.0904
 11  9 22  0 51 30.0000000  0 10G18G15G05G25G02G12G26G30G29G21
   6159453.68445   4814352.57042  24505079.8444                   24505084.6684
  -8223115.61147  -6392730.54645  22879050.1954                   22879050.6724
 -44639409.25848 -34768028.48746  21174695.7894                   21174694.0744
 -32367517.42447 -25205443.27546  22190810.6564                   22190812.6914
 -43257361.98047 -33696278.98645  22417686.2034                   22417683.9884
 -39932686.87147 -31105436.18745  23121554.3444                   23121556.0594
 -17954660.10247 -13975859.09545  22108134.7734                   22108134.8954
 -18622585.60447 -14496055.81245  22620181.3054                   22620182.2234
 -27826692.80648 -21673792.89046  21112992.2664                   21112991.1684
    633023.58846    580802.89044  24568713.6094                   24568714.8284
 11  9 22  0 52  0.0000000  0 10G18G15G05G25G02G12G26G30G29G21
   5995738.63045   4686782.87942  24473925.4924                   24473928.7664
  -8391955.93447  -6524294.29345  22846920.5004                   22846921.9534
 -44649887.26748 -34776193.15746  21172701.9304                   21172700.1724
 -32384764.61047 -25218882.68445  22187528.6174                   22187530.9184
 -43282335.78947 -33715739.07345  22412934.3914                   22412930.4454
 -39914294.25747 -31091104.39245  23125055.3134                   23125056.1454
 -18102158.77047 -14090793.03145  22080067.2894                   22080066.3484
 -18671358.31747 -14534060.55145  22610899.3984                   22610900.6884
 -27963633.26047 -21780499.69346  21086932.9534                   21086932.4964
    499068.88846    476422.70243  24543222.6804                   24543223.9804
 11  9 22  0 52 30.0000000  0 10G18G15G05G25G02G12G26G30G29G21
   5832175.64445   4559331.60242  24442799.9924                   24442801.7504
  -8560663.34547  -6655754.49445  22814817.1174                   22814817.2274
 -44660066.17448 -34784124.75746  21170764.8284                   21170763.8554
 -32401639.19448 -25232031.75345  22184317.8444                   22184319.0634
 -43307218.09247 -33735127.85745  22408199.4304                   22408196.2934
 -39895800.99647 -31076694.15344  23128573.9454                   23128574.6764
 -18249254.50047 -14205412.99445  22052075.9304                   22052075.7504
 -18719634.81547 -14571678.61345  22601712.5944                   22601713.4384
 -28100281.08948 -21886978.47846  21060929.8674                   21060928.7974
    365079.25146    372015.31143  24517724.9304                   24517726.3834
 11  9 22  0 53  0.0000000  0 10G18G15G05G25G02G12G26G30G29G21
   5668767.35045   4432000.89842  24411704.8284                   24411704.8634
  -8729232.96347  -6787107.32145  22782738.8284                   22782739.1684
 -44669946.48048 -34791823.68946  21168884.9534                   21168883.8524
 -32418142.15447 -25244891.24446  22181176.8364                   22181179.1884
 -43332006.77247 -33754443.68745  22403481.5394                   22403478.7584
 -39877209.09347 -31062207.03145  23132112.4304                   23132113.1294
 -18395941.85647 -14319714.75645  22024161.7814                   22024162.0984
 -18767415.21347 -14608910.12245  22592621.1484                   22592620.9384
 -28236632.36447 -21993226.19246  21034983.0784                   21034982.6094
    231055.85146    267581.66243  24492220.8984                   24492222.2624
 11  9 22  0 53 30.0000000  0 10G18G15G05G25G02G12G26G30G29G21
   5505512.44045   4304789.66842  24380637.1484                   24380639.0044
  -8897663.61047  -6918351.89345  22750687.4304                   22750687.3164
 -44679532.73248 -34799293.48946  21167060.2814                   21167059.1724
 -32434278.51047 -25257465.07446  22178106.2504                   22178108.7704
 -43356703.99447 -33773688.24845  22398781.3834                   22398778.8634
 -39858523.54047 -31047646.96344  23135667.6884                   23135668.3444
 -18542219.69747 -14433697.40445  21996325.2584                   21996325.5944
 -18814703.67846 -14645758.29445  22583622.2814                   22583622.5744
 -28372686.85848 -22099242.63946  21009092.4304                   21009091.5124
     96996.09646    163119.58743  24466711.1094                   24466710.9694
 11  9 22  0 54  0.0000000  0 10G18G15G05G25G02G12G26G30G29G21
   5342412.62545   4177699.32842  24349600.4304                   24349603.4804
  -9065952.15547  -7049485.69645  22718663.3284                   22718663.3984
 -44688827.63648 -34806536.25846  21165291.6024                   21165290.7304
 -32450050.90347 -25269755.27645  22175104.9224                   22175107.3054
 -43381309.12947 -33792861.03245  22394100.3134                   22394098.0514
 -39839747.19847 -31033016.11345  23139241.3674                   23139242.2154
 -18688084.49847 -14547358.20045  21968568.6804                   21968568.1724
 -18861502.01846 -14682224.55445  22574716.3524                   22574716.8954
 -28508442.11748 -22205025.91546  20983259.0784                   20983258.7234
    -37100.34046     58628.97443  24441192.7584                   24441192.7424
 11  9 22  0 54 30.0000000  0 10G18G15G05G25G02G12G26G30G29G21
   5179471.68745   4050732.73842  24318592.6564                   24318596.3204
  -9234093.02647  -7180504.45345  22686666.8984                   22686667.5004
 -44697830.79748 -34813551.70846  21163578.7274                   21163577.3524
 -32465459.54747 -25281762.05645  22172173.0164                   22172175.4304
 -43405819.30047 -33811959.82945  22389435.4844                   22389434.4064
 -39820880.57647 -31018314.97045  23142831.0864                   23142833.0594
 -18833530.20347 -14660692.43645  21940891.3594                   21940890.8594
 -18907809.76147 -14718308.53545  22565904.8914                   22565905.0704
 -28643893.27348 -22310572.23946  20957483.3914                   20957482.8594
   -171231.33146    -45888.54643  24415669.4694                   24415668.1564
 11  9 22  0 55  0.0000000  0 10G18G15G05G25G02G12G26G30G29G21
   5016688.15745   3923888.72742  24287615.7504                   24287620.3204
  -9402085.54447  -7311407.59345  22654698.3834                   22654699.1644
 -44706547.18948 -34820343.68246  21161919.5864                   21161918.6564
 -32480509.75647 -25293489.50246  22169309.4534                   22169311.5984
 -43430236.83647 -33830986.48445  22384788.5164                   22384787.2504
 -39801929.04447 -31003547.67345  23146437.9224                   23146439.3134
 -18978556.09647 -14773699.55245  21913293.2734                   21913293.0824
 -18953631.40647 -14754013.74745  22557185.4064                   22557186.1644
 -28779040.58047 -22415881.78446  20931765.7894                   20931765.0164
   -305399.70746   -150435.15243  24390136.9064                   24390136.8594
 11  9 22  0 55 30.0000000  0 10G18G15G05G25G02G12G26G30G29G21
   4854063.39445   3797168.46542  24256667.6954                   24256671.8794
  -9569927.06647  -7442193.10745  22622759.3284                   22622758.7974
 -44714979.38548 -34826914.22446  21160315.0164                   21160313.7304
 -32495204.44147 -25304939.95746  22166512.3364                   22166515.7344
 -43454561.35547 -33849940.59745  22380160.7894                   22380157.2344
 -39782895.95747 -30988716.74945  23150060.8364                   23150060.8524
 -19123158.62847 -14886376.75545  21885776.8284                   21885776.4964
 -18998968.98047 -14789341.72745  22548557.6804                   22548557.8014
 -28913881.39147 -22520952.50146  20906106.6804                   20906105.4414
   -439605.80746   -255011.25243  24364598.9064                   24364599.3404
 11  9 22  0 56  0.0000000  0 10G18G15G05G25G02G12G26G30G29G21
   4691598.96746   3670573.17242  24225753.6484                   24225755.8754
  -9737613.66447  -7572857.89145  22590849.7344                   22590850.0704
 -44723129.44048 -34833264.91346  21158764.4694                   21158762.8014
 -32509545.86947 -25316115.13145  22163783.7424                   22163786.0204
 -43478792.14647 -33868821.70145  22375549.2584                   22375547.1414
 -39763784.04747 -30973824.45244  23153696.9844                   23153698.1954
 -19267333.91547 -14998721.07045  21858340.6804                   21858339.9694
 -19043824.02247 -14824293.73845  22540021.2424                   22540022.8554
 -29048413.70147 -22625782.81646  20880506.0084                   20880505.1214
   -573849.64745   -359616.69943  24339052.4534                   24339052.5744
 11  9 22  0 56 30.0000000  0 10G18G15G05G25G02G12G26G30G29G21
   6104721.34146   4771707.81543  24494662.2894                   24494663.9534
  -8329716.68247  -6475795.19745  22858763.5164                   22858763.1684
 -43155578.88748 -33611796.94546  21457059.3754                   21457057.8204
 -30948116.53947 -24099416.97945  22460913.8674                   22460916.3634
 -41927507.99847 -32660028.88045  22670749.3594                   22670746.0434
 -38169176.61947 -29731273.30244  23457140.7664                   23457141.2814
 -17835654.11147 -13883126.33745  22130780.6414                   22130781.1454
 -17512777.21647 -13631270.27744  22831370.3674                   22831370.3484
 -27607210.18048 -21502767.04146  21154758.1024                   21154756.9494
    867292.66345    763351.54643  24613292.3834                   24613293.9494
 11  9 22  0 57  0.0000000  0 10G18G15G05G25G02G12G26G30G29G21
   5942581.24446   4645365.27243  24463807.5944                   24463809.4574
  -8497083.84447  -6606211.09245  22826914.6334                   22826914.1414
 -43163171.21248 -33617713.03846  21455614.3054                   21455613.2304
 -30961759.88447 -24110048.19545  22458317.2274                   22458320.0904
 -41951550.09347 -32678762.93045  22666174.0004                   22666169.8014
 -38149915.39347 -29716264.63444  23460805.9534                   23460807.1054
 -17978964.89547 -13994796.99745  22103508.8284                   22103509.8984
 -17556673.30047 -13665475.04944  22823017.3524                   22823017.4614
 -27741117.16947 -21607110.08846  21129276.4144                   21129275.0554
    732972.44946    658686.64344  24587733.3834                   24587734.2544
 11  9 22  0 57 30.0000000  0 10G18G15G05G25G02G12G26G30G29G21
   5780606.84046   4519151.71043  24432984.1414                   24432985.8874
  -8664284.86947  -6736497.50845  22795096.8054                   22795098.0204
 -43170486.78648 -33623413.47546  21454222.3204                   21454220.7114
 -30975056.48247 -24120409.20545  22455787.0944                   22455789.6914
 -41975495.40147 -32697421.56045  22661617.0704                   22661614.1024
 -38130582.31047 -29701200.01445  23464485.2814                   23464486.3094
 -18121836.45747 -14106125.38945  22076322.1564                   22076321.9344
 -17600091.08347 -13699307.09645  22814755.3674                   22814755.6684
 -27874706.39347 -21711205.54246  21103854.6884                   21103853.9104
    598615.52646    553993.04543  24562164.6724                   24562164.3874
 11  9 22  0 58  0.0000000  0 10G18G15G05G25G02G12G26G30G29G21
   5618798.24046   4393067.34843  24402192.3594                   24402194.5004
  -8831317.65347  -6866652.82145  22763312.0164                   22763311.6724
 -43177529.35848 -33628901.18446  21452882.3444                   21452880.7704
 -30988010.59847 -24130503.36345  22453322.1884                   22453324.5904
 -41999344.82647 -32716005.52145  22657078.8524                   22657077.1414
 -38111181.70447 -29686082.74945  23468176.8914                   23468178.2274
 -18264266.76147 -14217109.95745  22049217.9304                   22049217.6644
 -17643034.19047 -13732769.25945  22806583.4064                   22806584.1374
 -28007976.64148 -21815052.41846  21078494.3444                   21078493.3794
    464219.88046    449269.30043  24536589.9384                   24536589.3914
 11  9 22  0 58 30.0000000  0 10G18G15G05G25G02G12G26G30G29G21
   5457156.04046   4267112.65443  24371433.2034                   24371434.2854
  -8998179.72347  -6996675.13245  22731558.7424                   22731558.7854
 -43184301.28648 -33634178.00346  21451593.8054                   21451592.3094
 -31000625.46047 -24140333.15445  22450921.9534                   22450924.3524
 -42023098.64847 -32734514.98245  22652558.5704                   22652556.3444
 -38091716.93047 -29670915.48845  23471881.5234                   23471882.4924
 -18406252.98947 -14327748.47645  22022199.2734                   22022198.4494
 -17685504.91347 -13765863.32045  22798501.7734                   22798503.1054
 -28140925.91948 -21918649.18346  21053195.0474                   21053194.1764
    329784.64746    344514.64743  24511007.8054                   24511008.3404
 11  9 22  0 59  0.0000000  0 10G18G15G05G25G02G12G26G30G29G21
   5295683.65546   4141290.21443  24340706.4304                   24340707.0944
  -9164865.91547  -7126560.35745  22699839.2504                   22699839.2704
 -43190803.14448 -33639244.35846  21450356.1484                   21450355.2624
 -31012901.74847 -24149899.11145  22448586.0554                   22448588.0664
 -42046754.04147 -32752947.72845  22648056.8134                   22648054.0904
 -38072188.85446 -29655698.90644  23475596.4534                   23475598.7664
 -18547789.49347 -14438036.56245  21995265.6484                   21995264.8404
 -17727503.45147 -13798589.47145  22790509.2114                   22790510.4344
 -28273549.85048 -22021992.42246  21027957.1644                   21027956.0314
    195312.45246    239731.23143  24485417.8834                   24485418.2154
 11  9 22  0 59 30.0000000  0 10G18G15G05G25G02G12G26G30G29G21
   5134378.81846   4015598.32443  24310010.5554                   24310012.9654
  -9331376.06347  -7256308.45345  22668153.9144                   22668153.8094
 -43197040.58248 -33644104.68746  21449169.6334                   21449168.0514
 -31024845.54247 -24159206.00945  22446312.5554                   22446316.0394
 -42070313.96647 -32771306.09745  22643574.1954                   22643571.4344
 -38052603.53446 -29640437.78244  23479323.3834                   23479325.4184
 -18688876.14447 -14547974.11545  21968417.5944                   21968417.2194
 -17769034.92547 -13830951.66545  22782606.3754                   22782607.2504
 -28405849.27848 -22125082.81146  21002781.4924                   21002780.7154
     60798.96246    134915.72243  24459822.3054                   24459821.6604
 11  9 22  1  0  0.0000000  0 10G18G15G05G25G02G12G26G30G29G21
   4973246.16446   3890040.63843  24279348.1804                   24279350.5084
  -9497703.96047  -7385914.50445  22636503.0394                   22636502.2344
 -43203012.52648 -33648758.13546  21448032.9614                   21448031.0234
 -31036456.41647 -24168253.47545  22444103.5004                   22444106.5004
 -42093775.18047 -32789587.53645  22639109.8364                   22639107.4024
 -38032960.92746 -29625131.90244  23483061.7814                   23483062.0314
 -18829506.36747 -14657555.99645  21941656.2584                   21941656.4884
 -17810098.45847 -13862949.23945  22774792.1174                   22774792.9414
 -28537818.58048 -22227915.96046  20977668.3444                   20977667.5164
    -73752.58447     30070.39544  24434217.8284                   24434217.7704
 11  9 22  1  0 30.0000000  0 10G18G15G05G25G02G12G26G30G29G21
   4812286.22346   3764617.46843  24248718.0314                   24248718.8594
  -9663846.77947  -7515376.35745  22604886.3674                   22604886.6994
 -43208722.14248 -33653207.16946  21446946.4774                   21446944.4924
 -31047737.75847 -24177044.17346  22441956.8914                   22441959.3324
 -42117137.32647 -32807791.79745  22634663.0864                   22634661.3054
 -38013264.54147 -29609784.15144  23486810.8204                   23486810.5554
 -18969677.39847 -14766780.11445  21914982.3914                   21914982.3524
 -17850696.63446 -13894584.20744  22767065.9774                   22767066.7274
 -28669455.84148 -22330490.37746  20952618.7814                   20952617.7464
   -208343.36446    -74805.37844  24408605.7034                   24408606.3134
 11  9 22  1  1  0.0000000  0 10G18G15G05G25G02G12G26G30G29G21
   4651498.70846   3639328.59843  24218120.4384                   24218121.9494
  -9829802.72347  -7644692.57445  22573306.1414                   22573305.7584
 -43214173.19748 -33657454.71946  21445908.9844                   21445907.3404
 -31058693.82247 -24185581.40545  22439872.0704                   22439874.1054
 -42140401.59247 -32825919.74445  22630236.8984                   22630233.0314
 -37993518.43646 -29594397.67244  23490568.4774                   23490568.7624
 -19109387.33147 -14875644.87845  21888396.4064                   21888396.0904
 -17890833.08147 -13925859.35545  22759429.2344                   22759429.1214
 -28800760.24248 -22432805.41446  20927632.6174                   20927631.5474
   -342974.45646   -179712.60643  24382985.2734                   24382986.1254
 11  9 22  1  1 30.0000000  0 10G18G15G05G25G02G12G26G30G29G21
   4490882.88645   3514173.60942  24187554.6564                   24187557.6024
  -9995570.68147  -7773862.32145  22541761.6024                   22541761.4264
 -43219369.75848 -33661503.96546  21444920.1804                   21444918.1764
 -31069329.38247 -24193868.88845  22437848.0634                   22437850.6684
 -42163569.44447 -32843972.58145  22625828.1174                   22625825.1914
 -37973727.79946 -29578976.47944  23494334.3834                   23494334.9804
 -19248634.79647 -14984149.31845  21861898.5314                   21861898.1094
 -17930511.85347 -13956777.88545  22751878.6724                   22751878.9414
 -28931731.41048 -22534860.80146  20902709.4304                   20902707.8834
   -477648.55046   -284653.35243  24357358.2194                   24357358.5234
 11  9 22  1  2  0.0000000  0 10G18G15G05G25G02G12G26G30G29G21
   4330443.41045   3389155.99443  24157025.7664                   24157027.6684
 -10161144.07747  -7902880.44745  22510253.8524                   22510254.2854
 -43224310.98648 -33665354.23746  21443979.5704                   21443978.0204
 -31079643.99647 -24201906.26845  22435885.2814                   22435887.7774
 -42186637.16247 -32861947.44845  22621436.6484                   22621434.9414
 -37953891.82646 -29563519.99344  23498108.6804                   23498110.2154
 -19387413.14847 -15092288.21345  21835489.7894                   21835489.7384
 -17969731.86047 -13987338.91045  22744415.0164                   22744415.8134
 -29062363.53148 -22636651.99046  20877851.0554                   20877849.5784
   -612362.45446   -389625.11443  24331722.8524                   24331723.6334
 11  9 22  1  2 30.0000000  0 10G18G15G05G25G02G12G26G30G29G21
   4170181.29046   3264276.62543  24126529.4694                   24126530.2584
 -10326519.85947  -8031744.59245  22478784.0164                   22478784.0984
 -43228999.21748 -33669007.38846  21443087.7274                   21443085.8014
 -31089640.63247 -24209695.90245  22433982.7344                   22433985.5434
 -42209604.44647 -32879843.99445  22617067.5314                   22617063.4024
 -37934013.64846 -29548030.64844  23501891.5474                   23501893.4144
 -19525719.03647 -15200058.95045  21809171.1484                   21809170.9024
 -18008495.42247 -14017544.29545  22737038.2274                   22737040.1804
 -29192654.21748 -22738177.13846  20853057.3674                   20853056.1954
   -747116.51846   -494628.24143  24306079.1484                   24306079.4924
 11  9 22  1  3  0.0000000  0 10G18G15G05G25G02G12G26G30G29G21
   4010094.54046   3139533.79843  24096065.6024                   24096066.7114
 -10491697.84147  -8160454.63145  22447351.5474                   22447351.6294
 -43233439.76548 -33672467.54046  21442242.7584                   21442240.9384
 -31099325.07447 -24217242.25745  22432139.9144                   22432142.5864
 -42232473.68547 -32897664.14445  22612715.4454                   22612712.8984
 -37914099.41246 -29532513.22744  23505680.8444                   23505682.8204
 -19663552.40947 -15307461.49745  21782942.1024                   21782941.7154
 -18046807.67347 -14047397.99244  22729747.7814                   22729748.4304
 -29322604.31548 -22839436.88246  20828328.4454                   20828327.4144
   -881913.85846   -599664.98743  24280428.8594                   24280427.7504
 11  9 22  1  3 30.0000000  0 10G18G15G05G25G02G12G26G30G29G21
   3850186.91446   3014930.53843  24065636.0634                   24065638.1844
 -10656672.06047  -8289005.86045  22415958.0474                   22415957.7974
 -43237632.59348 -33675734.65346  21441444.9304                   21441443.1054
 -31108697.80647 -24224545.71645  22430356.7894                   22430359.1374
 -42255242.11547 -32915405.78145  22608382.7114                   22608381.5234
 -37894149.73446 -29516968.14144  23509477.6094                   23509478.7194
 -19800907.49047 -15414491.33645  21756804.3284                   21756804.0434
 -18084668.48247 -14076899.94544  22722543.4534                   22722543.7274
 -29452208.77747 -22940427.30646  20803665.6644                   20803664.4184
  -1016752.21246   -704733.75843  24254769.1804                   24254769.4414
 11  9 22  1  4  0.0000000  0 10G18G15G05G25G02G12G26G30G29G21
   3690459.42746   2890467.73043  24035240.6564                   24035241.8134
 -10821439.91047  -8417396.30745  22384603.7974                   22384603.5434
 -43241580.59348 -33678810.98446  21440693.2504                   21440691.6334
 -31117762.12547 -24231608.86745  22428631.6254                   22428634.9694
 -42277909.64347 -32933068.78045  22604070.7894                   22604067.3284
 -37874167.81847 -29501397.84544  23513280.3284                   23513280.3754
 -19937781.34947 -15521146.22645  21730757.9304                   21730757.8594
 -18122080.58047 -14106052.26144  22715424.2274                   22715424.7274
 -29581465.80948 -23041147.01246  20779068.5234                   20779067.3794
  -1151632.31346   -809835.02843  24229103.2344                   24229102.7814
 11  9 22  1  4 30.0000000  0 10G18G15G05G25G02G12G26G30G29G21
   3530911.12946   2766144.52443  24004878.6484                   24004880.6804
 -10986000.03147  -8545624.86345  22353288.8914                   22353288.9224
 -43245287.62748 -33681699.55146  21439988.1484                   21439986.4494
 -31126522.58047 -24238435.22945  22426964.4304                   22426967.3094
 -42300477.67747 -32950654.20045  22599774.9614                   22599771.8204
 -37854157.86047 -29485805.76044  23517088.6174                   23517088.5864
 -20074172.58347 -15627425.03945  21704803.9694                   21704803.2704
 -18159047.82047 -14134857.91444  22708389.6024                   22708389.5234
 -29710374.69948 -23141595.43946  20754538.0634                   20754537.0474
  -1286555.98847   -914970.25644  24203427.7504                   24203427.9104
 11  9 22  1  5  0.0000000  0 10G18G15G05G25G02G12G26G30G29G21
   3371544.02646   2641962.51343  23974552.7664                   23974554.2544
 -11150348.39847  -8673688.41545  22322014.2584                   22322013.6414
 -43248755.31748 -33684401.61546  21439328.2504                   21439326.4574
 -31134981.31147 -24245026.47345  22425354.6094                   22425357.6884
 -42322944.93647 -32968161.11345  22595498.9304                   22595497.0044
 -37834122.00346 -29470193.49544  23520899.7734                   23520901.3204
 -20210077.11947 -15733324.60245  21678941.6174                   21678941.1684
 -18195571.78647 -14163318.15244  22701439.0394                   22701439.4144
 -29838932.43748 -23241770.24446  20730074.3674                   20730073.3014
  -1421522.97146  -1020139.13444  24177744.1724                   24177744.7424
 11  9 22  1  5 30.0000000  0 10G18G15G05G25G02G12G26G30G29G21
   3212359.82046   2517923.10443  23944260.5164                   23944262.0434
 -11314480.93747  -8801583.78245  22290780.6724                   22290781.0204
 -43251984.99348 -33686918.22146  21438713.3914                   21438712.0004
 -31143140.31747 -24251384.18545  22423802.3914                   22423805.1844
 -42345309.97647 -32985588.41245  22591243.1254                   22591241.0234
 -37814062.19146 -29454562.56944  23524717.2584                   23524719.9184
 -20345490.77147 -15838841.66045  21653173.1724                   21653173.0474
 -18231653.81247 -14191434.03244  22694572.3834                   22694573.3014
 -29967135.77448 -23341668.87846  20705678.5864                   20705676.8164
  -1556532.23346  -1125341.08543  24152052.9844                   24152053.2664
 11  9 22  1  6  0.0000000  0 10G18G15G05G25G02G12G26G30G29G21
   3053359.37846   2394026.79243  23914002.8984                   23914005.0664
 -11478395.12747  -8929309.05145  22259588.4774                   22259588.7154
 -43254980.00948 -33689251.95746  21438144.2664                   21438142.3284
 -31151003.28647 -24257511.22745  22422306.3834                   22422308.9024
 -42367573.26747 -33002936.38444  22587006.3444                   22587004.1524
 -37793982.57946 -29438916.27844  23528538.2034                   23528541.3794
 -20480411.31747 -15943974.47145  21627498.6644                   21627498.5634
 -18267297.16047 -14219208.09544  22687790.2504                   22687790.8094
 -30094983.22648 -23441290.21946  20681349.1414                   20681347.7934
  -1691585.02646  -1230576.92843  24126352.8204                   24126352.3444
 11  9 22  1  6 30.0000000  0 10G18G15G05G25G02G12G26G30G29G21
   2894541.54746   2270272.77343  23883781.2424                   23883782.5904
 -11642089.89147  -9056863.29145  22228438.6644                   22228438.8164
 -43257744.34148 -33691405.94846  21437617.8834                   21437615.6134
 -31158575.12447 -24263411.40345  22420865.0634                   22420867.8244
 -42389736.21247 -33020206.16144  22582788.9454                   22582785.6414
 -37773887.80647 -29423258.14644  23532362.8984                   23532364.9064
 -20614837.42047 -16048722.00045  21601918.1024                   21601917.6804
 -18302506.05147 -14246643.62944  22681090.4454                   22681091.0164
 -30222474.05848 -23540633.66446  20657088.9454                   20657087.9694
  -1826683.47946  -1335848.31943  24100644.4844                   24100644.2194
 11  9 22  1  7  0.0000000  0 10G18G15G05G25G02G12G26G30G29G21
   4311333.06646   3374266.31143  24153388.1254                   24153388.3674
 -10230136.19447  -7956639.51145  22497124.4144                   22497124.6294
 -41684859.89748 -32465781.65646  21736927.4774                   21736925.8594
 -29590438.19447 -23041486.57345  22719271.7814                   22719274.6414
 -40836377.38347 -31809796.66345  22878383.9924                   22878381.1484
 -36178360.95447 -28179990.59044  23835981.7814                   23835982.5864
 -19173341.24847 -14925478.17045  21876225.8204                   21876225.8204
 -16761861.41347 -13046141.31444  22974264.9534                   22974265.6054
 -28774181.55948 -22412094.00446  20932689.9384                   20932688.5784
   -386402.91546   -213551.72443  24374720.8204                   24374720.3164
 11  9 22  1  7 30.0000000  0 10G18G15G05G25G02G12G26G30G29G21
   4152888.59246   3250803.23243  24123237.4924                   24123236.5044
 -10393377.82547  -8083840.68845  22466060.0864                   22466059.6884
 -41687165.49848 -32467578.19546  21736488.5864                   21736486.9064
 -29597431.87647 -23046936.24845  22717941.0554                   22717944.4734
 -40858333.54147 -31826905.35045  22874205.8984                   22874203.5744
 -36158239.64547 -28164311.67844  23839810.9614                   23839812.2034
 -19306764.56947 -15029444.29945  21850836.0084                   21850836.2854
 -16796203.83547 -13072901.65744  22967729.6484                   22967731.1804
 -28900947.92348 -22510872.93546  20908566.5784                   20908565.2034
   -521588.11346   -318890.71744  24348994.8444                   24348995.8324
 11  9 22  1  8  0.0000000  0 10G18G15G05G25G02G12G26G30G29G21
   3994631.26446   3127486.00543  24093121.6954                   24093123.0004
 -10556389.24347  -8210862.46145  22435040.2274                   22435039.7584
 -41689246.06748 -32469199.39446  21736092.7034                   21736091.2424
 -29604141.88247 -23052164.87645  22716664.4614                   22716667.7894
 -40880186.76947 -31843933.83545  22870047.0234                   22870043.5944
 -36138109.87547 -28148626.20844  23843641.7194                   23843642.1954
 -19439682.78447 -15133016.86545  21825542.1484                   21825541.8794
 -16830117.73247 -13099328.09944  22961276.5164                   22961277.5314
 -29027349.71048 -22609367.78346  20884513.1804                   20884511.9024
   -656818.70447   -424265.01943  24323262.0474                   24323263.4574
 11  9 22  1  8 30.0000000  0 10G18G15G05G25G02G12G26G30G29G21
   3836559.94546   3004313.65143  24063041.2424                   24063042.4734
 -10719169.02547  -8337703.78045  22404063.8674                   22404063.4414
 -41691105.58148 -32470648.34346  21735739.3054                   21735737.9804
 -29610573.05847 -23057176.26045  22715440.7664                   22715443.9614
 -40901938.60147 -31860883.28645  22865908.3204                   22865904.3984
 -36117977.03747 -28132938.40744  23847472.6564                   23847474.3834
 -19572094.72047 -15236194.91745  21800345.2194                   21800344.4344
 -16863607.41047 -13125423.98644  22954903.4774                   22954903.8364
 -29153386.47048 -22707578.19046  20860529.1954                   20860527.4264
   -792096.44746   -529676.18144  24297519.5084                   24297519.1724
 11  9 22  1  9  0.0000000  0 10G18G15G05G25G02G12G26G30G29G21
   3678677.67446   2881288.69043  24032996.6254                   24032997.9844
 -10881712.90347  -8464361.24945  22373132.9534                   22373131.9574
 -41692745.86548 -32471926.46046  21735426.6804                   21735425.9264
 -29616727.23747 -23061971.78445  22714269.3524                   22714272.0554
 -40923587.15647 -31877752.24645  22861788.5394                   22861787.0984
 -36097843.03147 -28117249.65044  23851304.3444                   23851306.4614
 -19703996.13047 -15338975.15045  21775245.4774                   21775244.3484
 -16896674.03547 -13151190.19445  22948611.5004                   22948611.3984
 -29279054.61048 -22805501.37346  20836615.5164                   20836613.0314
   -927420.11247   -635123.05243  24271768.9304                   24271767.4264
 11  9 22  1  9 30.0000000  0 10G18G15G05G25G02G12G26G30G29G21
   3520987.77946   2758413.54143  24002989.8674                   24002991.2894
 -11044014.87147  -8590830.19145  22342247.7664                   22342247.2114
 -41694166.01747 -32473033.05846  21735156.4924                   21735155.0084
 -29622604.41847 -23066551.46345  22713151.7034                   22713154.0704
 -40945129.38747 -31894538.41645  22857688.7344                   22857688.2034
 -36077707.54747 -28101559.79644  23855136.0314                   23855138.5164
 -19835381.01047 -15441352.89745  21750243.1804                   21750243.1884
 -16929317.17647 -13176626.43245  22942399.2504                   22942400.8444
 -29404348.80048 -22903133.15146  20812772.2344                   20812771.0474
  -1062787.07647   -740603.68443  24246008.6414                   24246008.0004
 11  9 22  1 10  0.0000000  0 10G18G15G05G25G02G12G26G30G29G21
   3363489.47146   2635687.73643  23973018.6174                   23973018.8244
 -11206073.38447  -8717109.45045  22311409.0784                   22311408.0864
 -41695370.31448 -32473971.44546  21734927.2424                   21734925.5554
 -29628209.48047 -23070919.10745  22712084.6414                   22712087.7154
 -40966566.70847 -31911242.77745  22853609.9614                   22853607.4064
 -36057575.18947 -28085872.36045  23858967.5164                   23858970.0044
 -19966248.15447 -15543327.20445  21725340.3444                   21725340.0904
 -16961541.24847 -13201736.11245  22936267.7034                   22936267.7704
 -29529268.85748 -23000473.41946  20789000.8204                   20788999.5474
  -1198199.55647   -846119.76443  24220240.6724                   24220238.2584
 11  9 22  1 10 30.0000000  0 10G18G15G05G25G02G12G26G30G29G21
   3206181.84246   2513110.42343  23943083.7034                   23943084.2114
 -11367887.46447  -8843198.22745  22280616.5784                   22280616.5554
 -41696363.12948 -32474745.04646  21734738.1884                   21734737.2664
 -29633547.47447 -23075078.64045  22711068.8674                   22711071.2854
 -40987900.51447 -31927866.49945  22849550.1804                   22849547.3404
 -36037450.60846 -28070191.00744  23862796.6884                   23862799.2304
 -20096596.80447 -15644897.49845  21700535.6024                   21700535.1844
 -16993350.73947 -13226522.75545  22930214.6414                   22930215.4964
 -29653814.63848 -23097522.03046  20765300.8674                   20765299.3754
  -1333659.60447   -951672.90643  24194463.1564                   24194461.6174
 11  9 22  1 11  0.0000000  0 10G18G15G05G25G02G12G26G30G29G21
   3049067.79646   2390683.99243  23913186.0944                   23913186.5274
 -11529451.78347  -8969092.40945  22249872.2274                   22249872.2664
 -41697144.29848 -32475353.72946  21734589.5474                   21734588.0704
 -29638619.14347 -23079030.65345  22710104.2584                   22710106.2304
 -41009128.35047 -31944407.63045  22845510.6954                   22845508.5864
 -36017334.80646 -28054516.47544  23866624.5164                   23866627.0704
 -20226421.71747 -15746059.67645  21675830.7034                   21675829.6214
 -17024745.96447 -13250986.59145  22924239.6644                   22924240.7384
 -29777981.68748 -23194275.52546  20741672.5554                   20741671.0164
  -1469164.80546  -1057261.30143  24168675.8364                   24168675.9184
 11  9 22  1 11 30.0000000  0 10G18G15G05G25G02G12G26G30G29G21
   2892146.33446   2268407.62943  23883324.8444                   23883326.5784
 -11690765.63647  -9094791.42145  22219175.0634                   22219174.2074
 -41697718.27048 -32475800.97246  21734480.1024                   21734478.8554
 -29643429.72747 -23082779.22445  22709188.7814                   22709191.3444
 -41030251.81547 -31960867.48245  22841490.5474                   22841488.2384
 -35997232.75246 -28038852.66644  23870449.8914                   23870451.1724
 -20355722.07447 -15846813.11845  21651225.5784                   21651224.7894
 -17055731.62247 -13275131.30544  22918342.7974                   22918344.7544
 -29901769.87848 -23290733.81146  20718116.0474                   20718114.4264
  -1604718.28846  -1162887.24144  24142881.4774                   24142882.6094
 11  9 22  1 12  0.0000000  0 10G18G15G05G25G02G12G26G30G29G21
   2735418.71146   2146282.37343  23853499.4924                   23853501.8284
 -11851825.56747  -9220292.56345  22188526.5084                   22188526.1454
 -41698087.59848 -32476088.73946  21734410.1484                   21734408.8164
 -29647982.10647 -23086326.57345  22708322.3054                   22708325.2234
 -41051270.28647 -31977245.49545  22837491.0084                   22837488.2304
 -35977147.15547 -28023201.69244  23874272.6414                   23874273.5004
 -20484494.82848 -15947155.42545  21626720.6564                   21626720.2234
 -17086310.14047 -13298958.75644  22912524.8674                   22912525.8834
 -30025176.68348 -23386894.92346  20694632.8914                   20694631.1524
  -1740319.82847  -1268550.66444  24117078.5004                   24117078.7934
 11  9 22  1 12 30.0000000  0 10G18G15G05G25G02G12G26G30G29G21
   2578887.01446   2024309.80143  23823713.3984                   23823714.4384
 -12012627.21047  -9345592.43745  22157926.4694                   22157926.4024
 -41698253.23548 -32476217.82446  21734379.0554                   21734377.0234
 -29652278.15647 -23089674.22645  22707505.4844                   22707507.7304
 -41072182.48747 -31993540.70044  22833511.1334                   22833508.8954
 -35957079.69947 -28007564.81544  23878091.2974                   23878092.6954
 -20612735.88848 -16047083.45245  21602316.8834                   21602317.1294
 -17116482.98347 -13322470.08744  22906782.9064                   22906784.2464
 -30148198.92148 -23482756.35947  20671222.5554                   20671220.6174
  -1875968.60047  -1374250.90544  24091265.0164                   24091265.3984
 11  9 22  1 13  0.0000000  0 10G18G15G05G25G02G12G26G30G29G21
   2422552.25046   1902490.61943  23793964.3134                   23793964.8874
 -12173167.33347  -9470688.54245  22127376.6724                   22127376.4614
 -41698217.41948 -32476189.90846  21734385.4454                   21734383.6954
 -29656320.67447 -23092824.32445  22706735.7504                   22706738.4574
 -41092987.46347 -32009752.35945  22829552.1724                   22829549.3404
 -35937033.03947 -27991944.17444  23881905.3364                   23881908.5744
 -20740442.38048 -16146594.89745  21578015.8054                   21578015.3364
 -17146252.63547 -13345667.26044  22901118.1564                   22901119.1954
 -30270834.00048 -23578316.11546  20647885.8364                   20647884.0784
  -2011664.41047  -1479987.77944  24065443.5704                   24065443.5904
 11  9 22  1 13 30.0000000  0 10G18G15G05G25G02G12G26G30G29G21
   2266414.41046   1780824.84643  23764251.8134                   23764253.0204
 -12333443.94248  -9595579.29646  22096877.1954                   22096876.7854
 -41697983.50647 -32476007.63846  21734429.9454                   21734428.0474
 -29660113.82847 -23095780.09845  22706013.7344                   22706016.7664
 -41113686.12847 -32025881.18545  22825614.2504                   22825611.8404
 -35917010.71647 -27976342.46144  23885716.1024                   23885718.7274
 -20867612.14648 -16245688.12245  21553816.0634                   21553814.8164
 -17175622.56047 -13368552.95344  22895528.7664                   22895530.2774
 -30393080.94348 -23673573.43147  20624622.6024                   20624621.6374
  -2147408.53947  -1585762.36044  24039610.4534                   24039610.6174
 11  9 22  1 14  0.0000000  0 10G18G15G05G25G02G12G26G30G29G21
   2110476.44646   1659314.96443  23734577.5084                   23734577.5394
 -12493451.81847  -9720260.65845  22066428.5944                   22066428.5904
 -41697551.64248 -32475671.11746  21734512.2504                   21734510.2934
 -29663658.52847 -23098542.29045  22705339.2814                   22705342.9384
 -41134276.01547 -32041925.25445  22821695.1564                   22821692.6804
 -35897013.85246 -27960760.64244  23889521.6484                   23889524.1094
 -20994240.67748 -16344359.63145  21529719.2664                   21529718.2504
 -17204593.40647 -13391127.68344  22890016.8594                   22890017.2424
 -30514935.54248 -23768525.02146  20601434.2814                   20601433.1294
  -2283199.20246  -1691573.17843  24013769.9694                   24013769.4264
 11  9 22  1 14 30.0000000  0 10G18G15G05G25G02G12G26G30G29G21
   1954736.61546   1537959.28543  23704941.3134                   23704941.3364
 -12653190.78047  -9844732.47445  22036031.0164                   22036030.4844
 -41696926.60547 -32475184.06946  21734631.1334                   21734629.9614
 -29666960.35847 -23101115.21845  22704710.8834                   22704713.6414
 -41154758.98247 -32057886.00644  22817797.2584                   22817795.0984
 -35877047.89746 -27945202.91444  23893321.3834                   23893323.6844
 -21120327.52748 -16442609.03645  21505725.8754                   21505724.8954
 -17233170.36247 -13413395.48144  22884578.3204                   22884578.7934
 -30636398.04848 -23863171.07646  20578320.9534                   20578319.5164
  -2419038.86347  -1797422.14243  23987921.0164                   23987920.3914
 11  9 22  1 15  0.0000000  0 10G18G15G05G25G02G12G26G30G29G21
   1799199.15146   1416761.42743  23675342.5704                   23675344.6214
 -12812654.19847  -9968989.59245  22005686.2814                   22005685.6524
 -41696107.70247 -32474545.95746  21734786.6024                   21734785.6054
 -29670019.30847 -23103498.87845  22704129.0164                   22704132.2854
 -41175131.65947 -32073760.77045  22813920.8914                   22813918.3284
 -35857112.07146 -27929668.64844  23897114.9844                   23897117.0234
 -21245866.82848 -16540431.78545  21481836.3914                   21481835.0314
 -17261352.96247 -13435355.98744  22879214.9844                   22879215.9224
 -30757463.09548 -23957507.43046  20555282.9924                   20555281.5984
  -2554924.74447  -1903307.14244  23962063.2114                   23962062.8794
 11  9 22  1 15 30.0000000  0 10G18G15G05G25G02G12G26G30G29G21
   1643863.06546   1295720.51743  23645784.6884                   23645784.4144
 -12971840.70447 -10093030.91645  21975394.0474                   21975393.3984
 -41695098.90247 -32473759.87546  21734978.7194                   21734977.5084
 -29672840.04747 -23105696.92545  22703592.1334                   22703595.3284
 -41195395.39847 -32089550.66445  22810064.6954                   22810063.2894
 -35837211.53847 -27914161.82744  23900902.1724                   23900903.7114
 -21370857.57848 -16637827.09445  21458051.1564                   21458050.4774
 -17289145.54947 -13457012.58944  22873926.8914                   22873927.5944
 -30878130.41248 -24051533.85346  20532320.7194                   20532319.3794
  -2690858.49046  -2009229.45144  23936196.7664                   23936195.3324
 11  9 22  1 16  0.0000000  0 10G18G15G05G25G02G12G26G30G29G21
   1488728.15446   1174836.27543  23616262.1484                   23616262.7274
 -13130748.41647 -10216855.00845  21945155.0164                   21945154.7344
 -41693903.47747 -32472828.37246  21735206.0234                   21735204.9654
 -29675426.95647 -23107712.77645  22703100.1414                   22703102.8954
 -41215550.83547 -32105256.18744  22806228.4614                   22806225.9884
 -35817349.69246 -27898685.13144  23904681.7734                   23904684.5944
 -21495298.14248 -16734793.68545  21434370.9224                   21434370.3054
 -17316552.08647 -13478368.36144  22868711.6564                   22868712.7544
 -30998399.04448 -24145249.61347  20509434.5314                   20509433.0784
  -2826841.67247  -2115190.25144  23910319.3364                   23910318.9694
 11  9 22  1 16 30.0000000  0 10G18G15G05G25G02G12G26G30G29G21
   1333798.29146   1054111.90643  23586780.0704                   23586781.2304
 -13289371.01848 -10340456.92745  21914969.3754                   21914968.6374
 -41692520.52147 -32471750.72146  21735469.5474                   21735468.0744
 -29677779.57547 -23109546.06845  22702652.5164                   22702655.3874
 -41235594.28047 -32120874.45044  22802414.8134                   22802412.5944
 -35797526.20146 -27883238.38444  23908453.7344                   23908455.8524
 -21619182.19747 -16831326.61545  21410796.8984                   21410795.7464
 -17343571.63647 -13499422.63244  22863569.9454                   22863570.8954
 -31118263.31448 -24238650.28647  20486625.2274                   20486623.5274
  -2962871.10147  -2221187.10244  23884434.5394                   23884433.5514
 11  9 22  1 17  0.0000000  0 10G18G15G05G25G02G12G26G30G29G21
   1179072.97446    933546.89843  23557337.1954                   23557338.4264
 -13447707.27347 -10463835.73445  21884838.8204                   21884838.6214
 -41690954.45847 -32470530.41946  21735767.2504                   21735766.0234
 -29679903.00047 -23111200.76445  22702248.6174                   22702251.6454
 -41255527.34547 -32136406.67044  22798622.1564                   22798618.9654
 -35777746.27247 -27867825.57344  23912218.8914                   23912220.1254
 -21742509.20047 -16927425.51545  21387327.8984                   21387327.3524
 -17370208.98747 -13520179.02644  22858501.4694                   22858501.5394
 -31237722.73048 -24331735.49746  20463892.4924                   20463891.2154
  -3098948.62947  -2327221.44944  23858538.5554                   23858537.4574
 11  9 22  1 17 30.0000000  0 10G18G15G05G25G02G12G26G30G29G21
   2599979.02746   2040746.54543  23827726.2114                   23827726.2894
 -12030327.85647  -9359384.14745  22154557.4144                   22154556.6884
 -40113786.33348 -31241568.24046  22035892.4144                   22035891.6174
 -28106379.22147 -21885078.41745  23001680.3364                   23001683.6524
 -39699927.88147 -30924251.18944  23094642.5474                   23094639.7074
 -34182591.97046 -26624848.32143  24215766.1724                   24215768.6134
 -20289851.44947 -15795484.33145  21663759.7734                   21663758.3714
 -15821045.02547 -12313038.34844  23153297.2114                   23153297.8954
 -29781350.76348 -23196900.14547  20741030.8594                   20741029.4184
  -1659649.14647  -1205689.31844  24132428.1484                   24132426.5234
 11  9 22  1 18  0.0000000  0 10G18G15G05G25G02G12G26G30G29G21
   2445667.00246   1920503.59943  23798361.2424                   23798361.0354
 -12188080.39747  -9482308.09945  22124537.8834                   22124537.2424
 -40111858.18547 -31240065.76646  22036259.4844                   22036257.1374
 -28108051.23247 -21886381.36445  23001361.6484                   23001365.0124
 -39719636.35947 -30939608.45844  23090891.6254                   23090889.5984
 -34162904.20946 -26609507.33343  24219512.5784                   24219515.9264
 -20412054.14047 -15890707.12645  21640505.2734                   21640503.9064
 -15846924.01947 -12333203.85244  23148372.3134                   23148373.8554
 -29899992.80148 -23289348.44347  20718453.7274                   20718452.5044
  -1795821.47047  -1311797.50644  24106515.3444                   24106514.7974
 11  9 22  1 18 30.0000000  0 10G18G15G05G25G02G12G26G30G29G21
   2291562.61447   1800422.38843  23769035.8444                   23769035.9494
 -12345536.66748  -9605001.21145  22094575.0394                   22094573.4804
 -40109752.54847 -31238425.00046  22036660.1644                   22036658.4924
 -28109502.53247 -21887512.32845  23001085.9144                   23001088.7894
 -39739232.34247 -30954878.05944  23087163.4614                   23087160.9804
 -34143267.25847 -26594205.99143  24223249.9384                   24223252.2774
 -20533691.23748 -15985489.19645  21617358.0944                   21617357.5084
 -15872428.29547 -12353077.39844  23143519.1484                   23143520.6804
 -30018223.26248 -23381476.02947  20695955.3914                   20695954.6334
  -1932041.64547  -1417943.05544  24080593.7584                   24080592.6764
 11  9 22  1 19  0.0000000  0 10G18G15G05G25G02G12G26G30G29G21
   2137665.56847   1680502.76843  23739750.8754                   23739750.9454
 -12502694.72548  -9727461.91945  22064668.7344                   22064667.8014
 -40107473.03147 -31236648.73246  22037093.2734                   22037091.4964
 -28110737.37047 -21888474.61945  23000850.9774                   23000854.1954
 -39758716.60447 -30970060.57244  23083456.3524                   23083451.7344
 -34123684.95046 -26578947.19744  24226976.1334                   24226978.0124
 -20654761.04648 -16079829.24145  21594319.1954                   21594318.2814
 -15897561.71347 -12372661.93644  23138736.0234                   23138738.3484
 -30136041.21948 -23473282.17747  20673535.2034                   20673533.6954
  -2068310.88547  -1524126.78944  24054662.0634                   24054660.7664
 11  9 22  1 19 30.0000000  0 10G18G15G05G25G02G12G26G30G29G21
   1983976.85746   1560745.52143  23710503.6724                   23710504.7384
 -12659551.50748  -9849687.88745  22034819.8054                   22034819.0944
 -40105021.85647 -31234738.72546  22037560.1094                   22037558.9264
 -28111758.49647 -21889270.38145  23000656.6724                   23000660.5434
 -39778088.34747 -30985155.42944  23079769.2734                   23079764.5004
 -34104159.87047 -26563732.91144  24230692.2344                   24230694.4024
 -20775260.81148 -16173725.07746  21571389.1804                   21571388.9024
 -15922326.77247 -12391959.41244  23134024.5084                   23134024.6294
 -30253444.42048 -23564765.15247  20651194.6094                   20651192.6374
  -2204629.22446  -1630348.69843  24028721.0784                   24028721.2304
 11  9 22  1 20  0.0000000  0 10G18G15G05G25G02G12G26G30G29G21
   1830497.68846   1441151.54943  23681297.6174                   23681298.1174
 -12816103.41147  -9971676.31145  22005029.0474                   22005028.1134
 -40102400.34647 -31232695.95346  22038059.1484                   22038057.2034
 -28112568.45947 -21889901.60845  23000502.9304                   23000505.9884
 -39797346.72447 -31000161.91844  23076105.1564                   23076100.7344
 -34084694.03847 -26548564.83144  24234396.1174                   24234397.9804
 -20895187.42348 -16267174.31145  21548567.3984                   21548567.0904
 -15946725.73747 -12410971.66044  23129381.2274                   23129381.8874
 -30370429.83448 -23655922.58147  20628932.8204                   20628931.1054
  -2340995.95946  -1736608.44343  24002771.4304                   24002771.6374
 11  9 22  1 20 30.0000000  0 10G18G15G05G25G02G12G26G30G29G21
   1677230.40846   1321722.62043  23652131.6884                   23652133.6174
 -12972345.80848 -10093423.55246  21975297.1564                   21975296.5664
 -40099609.36647 -31230521.17246  22038590.2734                   22038589.3364
 -28113168.90947 -21890369.55045  23000388.8594                   23000391.5474
 -39816489.67647 -31015078.47344  23072461.7664                   23072459.0864
 -34065288.69947 -26533443.89644  24238089.4534                   24238090.7974
 -21014536.88547 -16360173.81846  21525856.2974                   21525855.3164
 -15970759.77047 -12429699.55044  23124807.8364                   23124808.3364
 -30486994.02648 -23746751.77747  20606751.1094                   20606749.7234
  -2477409.82847  -1842904.88044  23976813.6484                   23976813.2504
 11  9 22  1 21  0.0000000  0 10G18G15G05G25G02G12G26G30G29G21
   1524173.46347   1202457.59243  23623006.3834                   23623006.4264
 -13128278.17248 -10214929.17046  21945624.1804                   21945623.4614
 -40096653.65147 -31228217.99646  22039152.5704                   22039151.2854
 -28113565.33747 -21890678.52745  23000312.7734                   23000316.3364
 -39835519.74247 -31029907.05444  23068839.9534                   23068837.2814
 -34045949.26247 -26518374.35544  24241769.5314                   24241771.1294
 -21133309.11347 -16452723.53645  21503254.6334                   21503252.8164
 -15994434.38447 -12448147.34244  23120302.4224                   23120302.9574
 -30603137.64248 -23837253.26047  20584649.8524                   20584647.8134
  -2613873.07647  -1949239.78244  23950845.7664                   23950844.7464
 11  9 22  1 21 30.0000000  0 10G18G15G05G25G02G12G26G30G29G21
   1371327.54447   1083357.01844  23593920.9924                   23593920.8634
 -13283897.52548 -10336190.91646  21916011.0164                   21916009.3164
 -40093535.47747 -31225788.22546  22039745.7664                   22039744.6454
 -28113760.89447 -21890830.97345  23000276.3364                   23000278.9964
 -39854436.00347 -31044646.96844  23065240.2274                   23065235.5274
 -34026678.01947 -26503357.95644  24245436.2344                   24245437.8014
 -21251501.53347 -16544821.45545  21480763.4844                   21480762.3594
 -16017752.12847 -12466317.04344  23115865.4454                   23115866.6024
 -30718858.58848 -23927425.39447  20562628.9224                   20562627.2464
  -2750386.42847  -2055613.65744  23924867.8444                   23924868.0044
 11  9 22  1 22  0.0000000  0 10G18G15G05G25G02G12G26G30G29G21
   1218695.65947    964423.20543  23564875.6804                   23564875.7664
 -13439198.79548 -10457204.81546  21886457.6414                   21886456.9414
 -40090255.02947 -31223232.01346  22040370.0784                   22040368.4024
 -28113756.58747 -21890827.65945  23000276.5474                   23000279.6094
 -39873236.17647 -31059296.41744  23061662.6334                   23061659.3914
 -34007475.96747 -26488395.49244  24249090.0394                   24249093.2424
 -21369109.65748 -16636464.08745  21458383.2114                   21458381.9614
 -16040713.90747 -12484209.42344  23111495.8984                   23111496.6994
 -30834152.84948 -24017265.04547  20540688.8674                   20540686.9264
  -2886947.48847  -2162024.76144  23898880.4774                   23898880.0984
 11  9 22  1 22 30.0000000  0 10G18G15G05G25G02G12G26G30G29G21
   1066276.56947    845655.24944  23535871.6334                   23535870.8984
 -13594180.83048 -10577969.95546  21856965.7114                   21856964.5474
 -40086816.21147 -31220552.40546  22041024.9924                   22041022.9304
 -28113557.36147 -21890672.47645  23000314.7424                   23000317.9414
 -39891921.64047 -31073856.49745  23058107.7734                   23058105.0084
 -33988348.03746 -26473490.78144  24252729.6024                   24252733.0984
 -21486133.06048 -16727651.08146  21436114.3054                   21436113.7304
 -16063324.45447 -12501828.05544  23107193.2664                   23107194.1334
 -30949019.87748 -24106771.79447  20518830.3674                   20518829.0984
  -3023558.36247  -2268474.69844  23872884.0314                   23872883.8914
 11  9 22  1 23  0.0000000  0 10G18G15G05G25G02G12G26G30G29G21
    914072.53047    727054.80344  23506907.1024                   23506907.4064
 -13748839.45148 -10698483.07846  21827535.1174                   21827534.1174
 -40083220.08947 -31217750.19146  22041708.9694                   22041706.6604
 -28113165.08347 -21890366.86545  23000389.6724                   23000393.2774
 -39910490.94647 -31088326.08545  23054574.4844                   23054571.2664
 -33969295.31946 -26458644.71444  24256356.3284                   24256358.1414
 -21602567.92048 -16818379.48846  21413957.0394                   21413956.5234
 -16085585.33747 -12519174.21644  23102957.1094                   23102958.8364
 -31063456.86848 -24195943.44347  20497053.8834                   20497051.8914
  -3160217.79147  -2374962.49244  23846878.7344                   23846876.9344
 11  9 22  1 23 30.0000000  0 10G18G15G05G25G02G12G26G30G29G21
    762082.26647    608620.95544  23477984.5944                   23477985.1454
 -13903173.43348 -10818743.22646  21798165.3834                   21798165.3874
 -40079470.07147 -31214828.09145  22042422.6414                   22042420.1994
 -28112584.62747 -21889914.63645  23000499.6414                   23000504.0984
 -39928945.27047 -31102706.04344  23051062.1484                   23051058.2424
 -33950322.24347 -26443860.63244  24259966.9844                   24259970.0634
 -21718413.66647 -16908648.82346  21391912.3054                   21391911.7974
 -16107501.04847 -12536251.44644  23098786.6954                   23098788.3554
 -31177462.99248 -24284779.36147  20475359.1804                   20475357.4534
  -3296927.60647  -2481489.51644  23820864.2894                   23820862.1024
 11  9 22  1 24  0.0000000  0 10G18G15G05G25G02G12G26G30G29G21
    610307.74147    490355.20343  23449102.7734                   23449104.0744
 -14057178.45948 -10938747.05346  21768859.7664                   21768858.1374
 -40075567.83347 -31211787.37346  22043164.8984                   22043162.9144
 -28111817.80747 -21889317.16145  23000645.6484                   23000649.8164
 -39947282.66147 -31116994.90945  23047572.3754                   23047569.4224
 -33931430.17447 -26429139.67544  24263562.4304                   24263564.5594
 -21833666.60447 -16998456.24446  21369980.3674                   21369979.5864
 -16129073.30247 -12553061.02144  23094680.9694                   23094682.4104
 -31291035.45548 -24373277.34847  20453746.8284                   20453745.0554
  -3433686.64147  -2588054.89844  23794839.2034                   23794838.4104
 11  9 22  1 24 30.0000000  0 10G18G15G05G25G02G12G26G30G29G21
    458747.43146    372256.34643  23420261.1414                   23420261.5864
 -14210853.93047 -11058494.06346  21739616.1094                   21739615.0744
 -40071517.95447 -31208631.60145  22043935.5944                   22043933.9654
 -28110870.11347 -21888578.75945  23000826.6254                   23000829.6024
 -39965505.33247 -31131194.37345  23044105.3444                   23044101.9264
 -33912624.17647 -26414485.78044  24267141.0394                   24267143.7234
 -21948327.02348 -17087801.95845  21348161.3524                   21348159.8364
 -16150307.25647 -12569606.99244  23090641.0944                   23090642.9774
 -31404175.03148 -24461438.01947  20432217.4224                   20432215.7974
  -3570497.36546  -2694660.52044  23768804.4614                   23768804.0434
 11  9 22  1 25  0.0000000  0 10G18G15G05G25G02G12G26G30G29G21
    307401.62047    254324.59743  23391461.5394                   23391460.8554
 -14364197.21448 -11177982.24246  21710435.7194                   21710435.0084
 -40067322.65247 -31205362.51046  22044733.6414                   22044732.5434
 -28109744.95447 -21887702.04845  23001040.9304                   23001043.5744
 -39983613.32247 -31145304.47144  23040658.8204                   23040656.6524
 -33893907.22147 -26399901.28843  24270702.3674                   24270705.6604
 -22062392.76947 -17176684.30846  21326455.2584                   21326454.1294
 -16171206.12447 -12585891.84844  23086663.9384                   23086664.8164
 -31516879.55248 -24549259.68947  20410770.1254                   20410768.4344
  -3707359.82947  -2801306.45944  23742760.7274                   23742760.0204
 11  9 22  1 25 30.0000000  0 10G18G15G05G25G02G12G26G30G29G21
    156272.79246    136562.00943  23362702.3914                   23362702.6214
 -14517203.82748 -11297208.08946  21681319.4454                   21681318.5704
 -40062982.36047 -31201980.44546  22045560.1724                   22045559.0124
 -28108443.71747 -21886688.17445  23001288.5474                   23001291.8594
 -40001604.43947 -31159323.55844  23037234.7974                   23037233.0824
 -33875280.07847 -26385386.70343  24274247.5004                   24274250.8444
 -22175859.86448 -17265100.16546  21304863.2734                   21304861.9534
 -16191771.26647 -12601916.62444  23082751.1724                   23082751.8954
 -31629144.85648 -24636739.12047  20389406.6564                   20389404.7894
  -3844272.75747  -2907991.76244  23716707.4064                   23716706.3244
 11  9 22  1 26  0.0000000  0 10G18G15G05G25G02G12G26G30G29G21
      5363.12647     18970.18743  23333985.3834                   23333986.2624
 -14669869.16448 -11416167.98846  21652268.3674                   21652267.1764
 -40058497.87147 -31198486.01145  22046413.0394                   22046412.0984
 -28106968.02447 -21885538.34145  23001568.8134                   23001572.2234
 -40019476.88846 -31173250.15144  23033833.9064                   23033831.6334
 -33856744.32946 -26370943.40243  24277773.9844                   24277778.1294
 -22288724.71048 -17353046.73446  21283385.7584                   21283384.5434
 -16212003.90846 -12617682.35944  23078900.5004                   23078902.5594
 -31740968.34848 -24723874.26547  20368127.4454                   20368126.0944
  -3981234.45647  -3014715.03544  23690644.0394                   23690643.1684
 11  9 22  1 26 30.0000000  0 10G18G15G05G25G02G12G26G30G29G21
   -145327.99647    -98451.38244  23305310.0704                   23305310.4384
 -14822191.63948 -11534860.72846  21623282.1334                   21623281.5944
 -40053872.51147 -31194881.81646  22047293.6804                   22047292.4844
 -28105322.18847 -21884255.92444  23001881.9064                   23001885.2194
 -40037231.21846 -31187084.65144  23030455.1724                   23030452.3404
 -33838303.93346 -26356574.33643  24281284.5234                   24281287.0084
 -22400986.17047 -17440523.13846  21262023.1804                   21262021.9844
 -16231908.18946 -12633192.20044  23075113.6094                   23075113.9694
 -31852349.10548 -24810664.42647  20346932.7194                   20346930.4774
  -4118246.04746  -3121477.19444  23664571.2424                   23664569.9184
 11  9 22  1 27  0.0000000  0 10G18G15G05G25G02G12G26G30G29G21
   -295800.27546   -215702.41643  23276675.9534                   23276675.9344
 -14974168.88248 -11653284.46046  21594361.6804                   21594361.3244
 -40049108.90048 -31191169.87746  22048199.7974                   22048198.8054
 -28103509.80747 -21882843.71545  23002226.9614                   23002230.1764
 -40054867.61846 -31200827.29544  23027099.0704                   23027095.8364
 -33819961.88346 -26342281.84443  24284773.7664                   24284776.4344
 -22512642.34147 -17527527.89246  21240775.8524                   21240774.6644
 -16251487.55347 -12648448.93044  23071387.6174                   23071388.3914
 -31963285.65947 -24897108.45047  20325821.7734                   20325820.2734
  -4255308.14347  -3228278.67144  23638490.3134                   23638488.4414
 11  9 22  1 27 30.0000000  0 10G18G15G05G25G02G12G26G30G29G21
   -446055.25847   -332784.15444  23248083.4924                   23248081.9144
 -15125800.11448 -11771438.57246  21565507.5704                   21565506.4614
 -40044211.46748 -31187353.66945  22049132.2504                   22049130.7384
 -28101536.31347 -21881305.98945  23002602.8594                   23002605.6844
 -40072388.14546 -31214479.69344  23023764.5234                   23023761.9144
 -33801722.87246 -26328069.84943  24288244.4774                   24288247.8714
 -22623693.78047 -17614061.41845  21219643.4694                   21219642.4304
 -16270747.26146 -12663456.50944  23067722.4454                   23067723.7074
 -32073778.45247 -24983206.67947  20304796.0084                   20304794.2854
  -4392423.10447  -3335121.38344  23612397.4924                   23612396.1604
 11  9 22  1 28  0.0000000  0 10G18G15G05G25G02G12G26G30G29G21
    979335.06547    777909.74943  23519325.9694                   23519325.4534
 -13701654.84248 -10661714.89746  21836512.6884                   21836511.7344
 -38463759.73548 -29955832.80646  22349882.1174                   22349880.4454
 -26523982.31147 -20652043.18645  23302801.9064                   23302804.7114
 -38514369.24847 -30000439.03945  23320246.8984                   23320244.7384
 -32208167.91745 -25086338.93442  24591488.4534                   24591491.3674
 -21158711.80947 -16472516.96346  21498420.0784                   21498418.5434
 -14714267.02946 -11450614.81244  23363910.7424                   23363911.1564
 -30608399.13448 -23841352.62647  20583648.2974                   20583646.7344
  -2954163.70847  -2214399.62644  23886088.3984                   23886088.5784
 11  9 22  1 28 30.0000000  0 10G18G15G05G25G02G12G26G30G29G21
    829521.92847    661172.32444  23490817.2584                   23490817.1334
 -13852579.64448 -10779318.54146  21807792.8204                   21807792.3984
 -38458595.47748 -29951808.69245  22350865.0234                   22350862.7504
 -26521690.20047 -20650257.17245  23303237.6334                   23303240.6994
 -38531650.92746 -30013905.30644  23316958.3134                   23316955.8914
 -32190137.61246 -25072289.47743  24594918.9144                   24594922.4534
 -21268541.17247 -16558098.23446  21477520.1414                   21477518.5394
 -14732890.57046 -11465126.66544  23360366.8134                   23360367.4384
 -30717992.67548 -23926750.14247  20562793.2344                   20562791.6764
  -3091378.75647  -2321320.26944  23859977.5234                   23859976.8594
 11  9 22  1 29  0.0000000  0 10G18G15G05G25G02G12G26G30G29G21
    679930.32646    544607.55544  23462350.9144                   23462350.9144
 -14003147.54847 -10896644.09046  21779141.2504                   21779139.5234
 -38453301.48248 -29947683.47545  22351872.2894                   22351869.8284
 -26519243.93147 -20648351.06245  23303703.4924                   23303706.4774
 -38548813.04746 -30027278.31244  23313691.6804                   23313689.2624
 -32172216.08446 -25058324.77844  24598329.6484                   24598333.8204
 -21377757.04748 -16643201.43946  21456736.8054                   21456735.6804
 -14751200.97146 -11479394.55844  23356882.3364                   23356883.3054
 -30827134.42248 -24011795.62547  20542024.3204                   20542022.2154
  -3228644.47247  -2428280.43944  23833856.1644                   23833854.4964
 11  9 22  1 29 30.0000000  0 10G18G15G05G25G02G12G26G30G29G21
    530559.32146    428214.69844  23433925.8674                   23433926.0164
 -14153357.51847 -11013690.71946  21750556.5784                   21750555.5864
 -38447881.65548 -29943460.21645  22352903.3364                   22352901.6214
 -26516648.49347 -20646328.66345  23304196.7034                   23304200.0204
 -38565857.11446 -30040559.44644  23310448.0864                   23310445.6884
 -32154407.70046 -25044448.24144  24601719.3524                   24601722.8094
 -21486359.12547 -16727826.37946  21436070.5864                   21436069.5594
 -14769202.99046 -11493422.15344  23353457.3834                   23353457.6454
 -30935824.21148 -24096488.93547  20521340.7034                   20521339.2504
  -3365962.35447  -2535281.23844  23807725.1334                   23807723.8554
 11  9 22  1 30  0.0000000  0 10G18G15G05G25G02G12G26G30G29G21
    381411.88747    311996.07744  23405544.3364                   23405544.6884
 -14303203.70048 -11130453.88646  21722041.8444                   21722040.6764
 -38442335.24448 -29939138.32945  22353958.8284                   22353956.6484
 -26513904.04847 -20644190.19545  23304719.2894                   23304721.7814
 -38582779.69746 -30053745.91645  23307229.6804                   23307227.0784
 -32136711.82947 -25030659.37344  24605086.5634                   24605090.1804
 -21594342.24747 -16811969.02846  21415521.9614                   21415520.6134
 -14786896.71446 -11507209.52244  23350089.5474                   23350090.4344
 -31044057.82248 -24180826.76547  20500744.9534                   20500743.4844
  -3503329.66046  -2642320.56144  23781585.4924                   23781584.5594
 11  9 22  1 30 30.0000000  0 10G18G15G05G25G02G12G26G30G29G21
    232487.32947    195951.07444  23377204.5234                   23377204.0664
 -14452684.41948 -11246932.26646  21693596.6254                   21693595.2114
 -38436665.52247 -29934720.36845  22355037.5634                   22355036.3324
 -26511015.02047 -20641939.03645  23305269.1334                   23305272.4104
 -38599582.00146 -30066838.64844  23304031.2114                   23304028.7504
 -32119133.28046 -25016961.97644  24608431.6884                   24608434.8594
 -21701706.02447 -16895629.06045  21395091.7584                   21395089.4104
 -14804286.51946 -11520760.09944  23346780.1954                   23346782.1804
 -31151834.47947 -24264808.54147  20480235.7894                   20480233.9884
  -3640747.45646  -2749399.19644  23755435.5634                   23755434.3364
 11  9 22  1 31  0.0000000  0 10G18G15G05G25G02G12G26G30G29G21
     83787.05847     80080.89944  23348907.7814                   23348908.1484
 -14601796.39848 -11363123.33146  21665221.5554                   21665220.0634
 -38430874.08747 -29930207.53645  22356139.6954                   22356137.8484
 -26507983.94047 -20639577.22545  23305845.6094                   23305849.0394
 -38616262.86046 -30079836.74244  23300856.8594                   23300855.0394
 -32101673.34746 -25003357.00543  24611754.7734                   24611756.5164
 -21808447.88347 -16978804.49046  21374779.0474                   21374777.2544
 -14821374.61346 -11534075.53444  23343528.9224                   23343530.0004
 -31259151.62547 -24348432.25747  20459814.3204                   20459811.9924
  -3778215.60146  -2856517.05544  23729275.6484                   23729274.5474
 11  9 22  1 31 30.0000000  0 10G18G15G05G25G02G12G26G30G29G21
    -64688.77347    -35614.40044  23320654.0704                   23320654.4844
 -14750537.04948 -11479025.05046  21636916.9614                   21636915.3204
 -38424963.50247 -29925601.88245  22357264.2894                   22357262.7504
 -26504814.13747 -20637107.33844  23306448.3524                   23306452.4574
 -38632822.19247 -30092740.11044  23297706.3054                   23297702.5984
 -32084335.04046 -24989846.87043  24615054.7894                   24615055.8834
 -21914566.01547 -17061493.88746  21354585.5704                   21354584.4494
 -14838164.37546 -11547158.51344  23340333.9384                   23340335.7814
 -31366007.75448 -24431696.74247  20439479.7424                   20439478.0514
  -3915733.91246  -2963674.01944  23703107.6024                   23703104.7974
 11  9 22  1 32  0.0000000  0 10G18G15G05G25G02G12G26G30G29G21
   -212939.44347   -151134.26544  23292443.2814                   23292442.4924
 -14898903.60748 -11594635.24746  21608683.7974                   21608682.4384
 -38418935.63747 -29920904.83945  22358411.9384                   22358410.0394
 -26501508.77347 -20634531.78344  23307077.7424                   23307081.5164
 -38649259.65447 -30105548.45944  23294578.8364                   23294576.0634
 -32067120.93046 -24976433.36643  24618330.0234                   24618332.3984
 -22020058.51547 -17143695.79545  21334510.8284                   21334509.6604
 -14854658.75246 -11560011.31744  23337194.7504                   23337196.3874
 -31472401.30248 -24514600.77547  20419234.0394                   20419232.2424
  -4053302.38846  -3070870.08544  23676928.9224                   23676926.5164
 11  9 22  1 32 30.0000000  0 10G18G15G05G25G02G12G26G30G29G21
   -360962.97747   -266477.10344  23264274.7424                   23264274.3954
 -15046891.80647 -11709950.65046  21580522.1644                   21580520.9384
 -38412791.17747 -29916116.94745  22359581.1334                   22359579.6724
 -26498069.45947 -20631851.85244  23307733.1174                   23307735.3134
 -38665573.37547 -30118260.45844  23291473.8444                   23291470.6294
 -32050031.82346 -24963117.33043  24621582.1254                   24621583.8164
 -22124922.33747 -17225407.81146  21314556.2034                   21314554.6374
 -14870859.33946 -11572635.19544  23334112.9924                   23334113.0984
 -31578328.90048 -24597141.73247  20399076.4144                   20399074.6414
  -4190919.53646  -3178104.07844  23650740.8914                   23650738.3794
 11  9 22  1 33  0.0000000  0 10G18G15G05G25G02G12G26G30G29G21
   -508760.35847   -381643.71544  23236149.8284                   23236148.9224
 -15194500.33248 -11824970.17346  21552433.4224                   21552432.2974
 -38406533.78447 -29911241.06545  22360771.4694                   22360770.5314
 -26494500.86047 -20629071.15844  23308411.9614                   23308415.2384
 -38681764.64347 -30130876.98544  23288392.0314                   23288389.1724
 -32033071.87846 -24949901.87943  24624809.5164                   24624812.0634
 -22229156.74647 -17306629.37846  21294720.6254                   21294719.1684
 -14886770.77046 -11585033.73644  23331084.9144                   23331084.8444
 -31683790.46048 -24679319.55847  20379007.9774                   20379006.3754
  -4328586.88546  -3285377.17344  23624543.0004                   23624541.6724
 11  9 22  1 33 30.0000000  0 10G18G15G05G25G02G12G26G30G29G21
   -656331.36247   -496633.92144  23208067.5084                   23208067.6374
 -15341726.86048 -11939692.04346  21524416.7114                   21524415.2304
 -38400165.99347 -29906279.17045  22361983.5474                   22361981.8244
 -26490806.62547 -20626192.53244  23309114.9534                   23309117.9964
 -38697833.28647 -30143397.99944  23285334.6094                   23285332.2734
 -32016244.79546 -24936789.98343  24628010.9534                   24628014.8014
 -22332760.75448 -17387359.72046  21275005.6804                   21275004.6134
 -14902396.52446 -11597209.70044  23328110.7894                   23328112.7464
 -31788784.53848 -24761133.09847  20359028.6334                   20359026.2114
  -4466304.90247  -3392689.76944  23598336.4064                   23598335.5234
 11  9 22  1 34  0.0000000  0 10G18G15G05G25G02G12G26G30G29G21
   -803675.96147   -611447.68744  23180028.6414                   23180028.3984
 -15488569.18848 -12054114.54546  21496474.0634                   21496472.3954
 -38393689.89847 -29901232.86545  22363215.1804                   22363213.7734
 -26486990.01546 -20623218.61944  23309841.1414                   23309845.0394
 -38713779.25247 -30155823.40744  23282299.9924                   23282297.6294
 -31999552.95745 -24923783.50843  24631187.5944                   24631191.6564
 -22435732.82947 -17467597.64746  21255410.1334                   21255409.6994
 -14917739.78546 -11609165.51044  23325190.8674                   23325192.8404
 -31893309.74448 -24842581.30147  20339137.6954                   20339135.7234
  -4604073.67847  -3500041.91744  23572119.7894                   23572118.8874
 11  9 22  1 34 30.0000000  0 10G18G15G05G25G02G12G26G30G29G21
   -950791.70947   -726083.14144  23152032.6884                   23152032.9344
 -15635022.55948 -12168233.96146  21468604.3054                   21468603.4064
 -38387105.99547 -29896102.54545  22364468.8444                   22364466.5824
 -26483052.36247 -20620150.44345  23310590.1804                   23310595.1294
 -38729600.53747 -30168151.67944  23279289.1254                   23279285.9454
 -31982996.55846 -24910882.52143  24634337.2504                   24634343.6914
 -22538069.26847 -17547340.27946  21235936.7194                   21235934.8524
 -14932801.91846 -11620902.29444  23322324.8134                   23322327.0394
 -31997362.65948 -24923661.47347  20319336.9614                   20319335.8284
  -4741891.39147  -3607432.20844  23545894.0314                   23545892.2234
 11  9 22  1 35  0.0000000  0 10G18G15G05G25G02G12G26G30G29G21
  -1097677.12146   -840539.07744  23124081.8284                   23124081.6994
 -15781082.94647 -12282047.15446  21440809.9224                   21440808.9774
 -38380414.92747 -29890888.73945  22365741.6254                   22365740.0234
 -26478995.77547 -20616989.51445  23311362.6254                   23311366.6054
 -38745295.64746 -30180381.60744  23276303.2194                   23276299.4774
 -31966577.84346 -24898088.92243  24637463.3754                   24637466.0394
 -22639767.34848 -17626585.49145  21216583.9924                   21216582.4774
 -14947584.91347 -11632421.54144  23319512.1644                   23319512.6054
 -32100940.44648 -25004371.41147  20299626.7894                   20299624.3634
  -4879756.93047  -3714859.79344  23519658.8674                   23519656.3984
 11  9 22  1 35 30.0000000  0 10G18G15G05G25G02G12G26G30G29G21
  -1244332.65047   -954815.94644  23096174.1334                   23096173.8794
 -15926749.02548 -12395553.10346  21413090.6644                   21413089.5234
 -38373620.05347 -29885594.04345  22367035.2194                   22367033.6414
 -26474824.41347 -20613739.15545  23312156.3134                   23312159.8674
 -38760865.51246 -30192514.00144  23273339.9304                   23273335.8674
 -31950300.36246 -24885405.27043  24640560.5704                   24640564.0314
 -22740826.35048 -17705332.70946  21197352.8984                   21197351.6914
 -14962092.83246 -11643726.42944  23316751.4534                   23316752.5984
 -32204042.45248 -25084710.61947  20280007.2194                   20280004.8054
  -5017671.15147  -3822325.35344  23493414.5704                   23493412.8594
 11  9 22  1 36  0.0000000  0 10G18G15G05G25G02G12G26G30G29G21
  -1390759.28047  -1068914.43744  23068310.2344                   23068309.3714
 -16072019.59948 -12508750.87146  21385446.5634                   21385445.2584
 -38366725.29547 -29880221.51545  22368347.3054                   22368345.6334
 -26470543.09347 -20610403.08744  23312971.6174                   23312973.5984
 -38776311.20446 -30204549.63444  23270401.0164                   23270397.4534
 -31934167.84146 -24872834.65943  24643630.6414                   24643634.0864
 -22841246.42448 -17783582.06946  21178243.8134                   21178242.0004
 -14976330.58647 -11654820.83544  23314042.3054                   23314043.6414
 -32306669.12648 -25164679.43147  20260478.0004                   20260475.7664
  -5155635.83047  -3929830.16344  23467160.3754                   23467159.5744
 11  9 22  1 36 30.0000000  0  9G18G15G05G25G02G26G30G29G21
  -1536952.23247  -1182830.84844  23040490.5394                   23040489.6414
 -16216887.04148 -12621634.50246  21357879.3984                   21357877.8164
 -38359727.61147 -29874768.76645  22369678.5474                   22369677.2464
 -26466149.84147 -20606979.82844  23313807.0704                   23313809.5904
 -38791627.39647 -30216484.31144  23267486.6024                   23267482.0784
 -22941021.13648 -17861328.54845  21159257.4614                   21159255.3284
 -14990296.08447 -11665703.07944  23311384.0784                   23311386.0434
 -32408813.45348 -25244272.38347  20241040.2344                   20241038.1524
  -5293646.05447  -4037370.52044  23440898.3674                   23440896.8284
 11  9 22  1 37  0.0000000  0  9G18G15G05G25G02G26G30G29G21
  -1682913.50446  -1296566.73144  23012714.3204                   23012713.7194
 -16361351.73147 -12734204.30846  21330388.4454                   21330386.8244
 -38352631.38247 -29869239.24045  22371028.4844                   22371027.8634
 -26461650.57547 -20603473.95944  23314662.8594                   23314665.3524
 -38806816.49546 -30228319.96044  23264595.7424                   23264592.3244
 -23040151.41848 -17938572.89246  21140393.3134                   21140391.8554
 -15003995.23546 -11676377.71044  23308777.6884                   23308779.3554
 -32510476.79948 -25323490.55647  20221694.5634                   20221692.8054
  -5431704.00047  -4144948.06844  23414626.4614                   23414624.2624
 11  9 22  1 37 30.0000000  0  9G18G15G05G25G02G26G30G29G21
  -1828636.37247  -1410116.85544  22984984.1884                   22984983.6804
 -16505404.23848 -12846452.93846  21302975.8204                   21302973.7934
 -38345432.65847 -29863629.83745  22372399.0554                   22372397.2304
 -26457042.00546 -20599882.88544  23315540.2734                   23315543.8714
 -38821872.10246 -30240051.62843  23261730.5474                   23261727.0744
 -23138629.50748 -18015309.01145  21121653.2734                   21121651.8404
 -15017424.81147 -11686842.37744  23306222.1334                   23306223.3014
 -32611651.27348 -25402327.78747  20202441.7034                   20202439.8984
  -5569803.44047  -4252557.95344  23388346.5394                   23388344.9064
 11  9 22  1 38  0.0000000  0  9G18G15G05G25G02G26G30G29G21
   -398694.19447   -295876.02144  23257092.9534                   23257092.1954
 -15073615.74748 -11730773.51846  21575436.2894                   21575434.7894
 -36762711.90147 -28630340.94045  22673580.5704                   22673579.3524
 -24876906.14547 -19368608.23644  23616230.3284                   23616233.5514
 -37261371.79946 -29024077.32844  23558684.0864                   23558681.5354
 -21661029.19848 -16863932.11245  21402831.3754                   21402829.9144
 -13455166.06246 -10469497.96244  23603510.0314                   23603510.6954
 -31136910.50448 -24253179.11047  20483075.4384                   20483073.4384
  -4132518.18347  -3132595.34744  23661853.3594                   23661851.7814
 11  9 22  1 38 30.0000000  0  9G18G15G05G25G02G26G30G29G21
   -543942.74347   -409056.56644  23229452.9064                   23229452.1334
 -15216840.11047 -11842376.83146  21548181.4224                   21548179.3524
 -36755317.55747 -28624579.11745  22674988.1804                   22674985.4184
 -24872092.31747 -19364857.24745  23617146.6414                   23617150.1254
 -37276162.83046 -29035602.88544  23555869.5394                   23555867.5234
 -21758202.21248 -16939651.29946  21384339.8594                   21384338.2114
 -13468069.59146 -10479552.69644  23601053.8984                   23601056.9384
 -31237106.19048 -24331253.63947  20464008.9774                   20464007.0634
  -4270703.76947  -3240272.35744  23635557.5864                   23635556.0864
 11  9 22  1 39  0.0000000  0  9G18G15G05G25G02G26G30G29G21
   -688957.33647   -522054.79444  23201857.4774                   23201856.6804
 -15359650.38348 -11953657.48246  21521005.5784                   21521003.4964
 -36747832.72547 -28618746.78045  22676412.1254                   22676410.6564
 -24867184.58047 -19361033.08945  23618080.6094                   23618084.2584
 -37290825.19046 -29047028.06244  23553078.3914                   23553076.6134
 -21854724.48348 -17014863.41546  21365972.0234                   21365970.4924
 -13480718.88946 -10489409.35744  23598647.0864                   23598649.7464
 -31336814.35948 -24408948.29147  20445034.9924                   20445032.9104
  -4408936.76247  -3347986.32044  23609252.2504                   23609250.3554
 11  9 22  1 39 30.0000000  0  9G18G15G05G25G02G26G30G29G21
   -833740.32847   -634872.58044  23174306.4774                   23174305.3674
 -15502046.62548 -12064615.51846  21493908.7734                   21493906.3834
 -36740261.59347 -28612847.19445  22677852.7194                   22677851.9494
 -24862188.49847 -19357140.08444  23619030.7814                   23619034.6884
 -37305360.92246 -29058354.67144  23550313.5634                   23550310.4144
 -21950597.26948 -17089569.44346  21347728.0164                   21347726.3794
 -13493119.55546 -10499072.31444  23596287.7504                   23596289.1374
 -31436036.08248 -24486263.89347  20426153.4304                   20426151.2774
  -4547219.13747  -3455738.78644  23582938.2734                   23582936.6994
 11  9 22  1 40  0.0000000  0  9G18G15G05G25G02G26G30G29G21
   -978289.89947   -747508.46144  23146799.0704                   23146798.7034
 -15644024.52648 -12175247.57946  21466891.0164                   21466889.1524
 -36732604.58547 -28606880.69645  22679309.5784                   22679308.6914
 -24857105.51147 -19353179.38344  23619997.5474                   23620001.9614
 -37319768.27547 -29069581.18544  23547571.9694                   23547569.7234
 -22045817.45848 -17163766.95946  21329608.5944                   21329606.5704
 -13505273.00746 -10508542.57544  23593974.7194                   23593977.1724
 -31534767.94748 -24563197.78447  20407365.6884                   20407363.7234
  -4685548.97047  -3563528.19044  23556615.0704                   23556613.0084
 11  9 22  1 40 30.0000000  0  9G18G15G05G25G02G26G30G29G21
  -1122610.64547   -859966.05644  23119336.0864                   23119334.9654
 -15785586.98448 -12285555.91046  21439952.5084                   21439951.2194
 -36724868.97047 -28600852.92645  22680781.5164                   22680780.4184
 -24851944.08147 -19349157.54544  23620980.3204                   23620983.6604
 -37334052.17547 -29080711.52344  23544854.0554                   23544850.8094
 -22140388.94348 -17237458.98246  21311611.8284                   21311610.0474
 -13517187.70646 -10517826.84144  23591707.9384                   23591709.7814
 -31633013.92248 -24639753.07447  20388670.0634                   20388668.4264
  -4823931.76047  -3671358.89644  23530281.4614                   23530278.6724
 11  9 22  1 41  0.0000000  0  9G18G15G05G25G02G26G30G29G21
  -1266700.86347   -972244.02744  23091915.9844                   23091914.9184
 -15926730.10848 -12395537.48246  21413093.6644                   21413092.4414
 -36717055.68447 -28594764.65445  22682268.7734                   22682267.5474
 -24846706.20147 -19345076.13344  23621977.6564                   23621980.9844
 -37348211.12247 -29091744.50145  23542159.6954                   23542157.7974
 -22234309.39748 -17310643.69946  21293739.2974                   21293737.9024
 -13528865.73447 -10526926.60144  23589485.8914                   23589486.7814
 -31730771.47948 -24715927.76647  20370067.1644                   20370065.4064
  -4962365.93047  -3779229.63244  23503937.3834                   23503935.8014
 11  9 22  1 41 30.0000000  0  9G18G15G05G25G02G26G30G29G21
  -1410557.35047  -1084339.84844  23064541.0004                   23064540.2584
 -16067448.11348 -12505187.80946  21386315.9224                   21386314.1954
 -36709163.56747 -28588614.95145  22683770.6174                   22683769.0004
 -24841391.67847 -19340934.98044  23622988.8204                   23622991.8834
 -37362241.88747 -29102677.55845  23539489.5864                   23539487.3674
 -22327574.25548 -17383317.56646  21275991.7034                   21275990.2114
 -13540306.84846 -10535841.82343  23587308.9614                   23587309.4614
 -31828035.89048 -24791718.20047  20351558.5084                   20351556.4534
  -5100848.24447  -3887137.90844  23477584.6724                   23477584.0784
 11  9 22  1 42  0.0000000  0  9G18G15G05G25G02G26G30G29G21
  -1554180.61747  -1196253.97044  23037210.4844                   23037209.7074
 -16207739.43447 -12614505.65346  21359619.0314                   21359618.0354
 -36701195.13047 -28582405.77345  22685286.9384                   22685284.6844
 -24836004.35147 -19336737.08144  23624014.5234                   23624017.2854
 -37376144.67347 -29113510.86145  23536843.4694                   23536841.8794
 -22420182.88548 -17455480.09945  21258369.0474                   21258367.3054
 -13551515.08447 -10544575.61144  23585176.4144                   23585176.5314
 -31924806.41848 -24867123.77847  20333143.5234                   20333141.5164
  -5239379.57447  -3995084.35044  23451223.9224                   23451222.5434
 11  9 22  1 42 30.0000000  0  9G18G15G05G25G02G26G30G29G21
  -1697570.58447  -1307986.33344  23009924.8524                   23009923.0864
 -16347602.09747 -12723489.46446  21333004.3134                   21333002.7384
 -36693152.92347 -28576139.12845  22686817.4614                   22686815.2304
 -24830548.00747 -19332485.45544  23625052.0864                   23625056.0514
 -37389919.80047 -29124244.76344  23534222.6954                   23534220.0984
 -22512134.85648 -17527130.94346  21240870.6414                   21240869.7114
 -13562494.16347 -10553130.80543  23583086.4064                   23583087.8594
 -32021082.39948 -24942143.99947  20314823.0314                   20314820.8284
  -5377960.01546  -4103069.03044  23424853.2734                   23424850.9384
 11  9 22  1 43  0.0000000  0  9G18G15G05G25G02G26G30G29G21
  -1840725.26347  -1419535.34344  22982682.7274                   22982681.8874
 -16487031.75047 -12832135.86946  21306471.2034                   21306470.1564
 -36685037.18147 -28569815.17845  22688361.5234                   22688359.8754
 -24825023.89647 -19328181.02844  23626103.9064                   23626107.3554
 -37403565.10547 -29134877.48644  23531626.5314                   23531622.6414
 -22603427.20148 -17598267.80045  21223498.4304                   21223497.2664
 -13573245.43546 -10561508.47943  23581040.6954                   23581042.6334
 -32116860.54248 -25016776.29447  20296596.8054                   20296594.9454
  -5516587.67346  -4211090.53444  23398473.2664                   23398469.6334
 11  9 22  1 43 30.0000000  0  9G18G15G05G25G02G26G30G29G21
  -1983644.23047  -1530900.65444  22955486.2734                   22955485.2234
 -16626025.98147 -12940442.98846  21280021.4924                   21280020.1604
 -36676849.78947 -28563435.38745  22689919.1484                   22689918.0664
 -24819435.06847 -19323826.15744  23627166.7034                   23627170.4224
 -37417080.37647 -29145408.83544  23529054.7194                   23529049.5434
 -22694058.81548 -17668889.79745  21206251.7584                   21206250.5944
 -13583772.07747 -10569711.13044  23579038.0394                   23579039.7854
 -32212139.69448 -25091019.77547  20278465.6484                   20278463.6524
  -5655262.42347  -4319148.70544  23372084.6094                   23372082.1054
 11  9 22  1 44  0.0000000  0  9G18G15G05G25G02G26G30G29G21
  -2126328.30047  -1642082.98144  22928333.8754                   22928333.0044
 -16764583.08147 -13048409.50046  21253655.1414                   21253653.4804
 -36668593.38647 -28557001.80945  22691490.6954                   22691489.1214
 -24813785.47647 -19319424.04044  23628242.4304                   23628246.0434
 -37430466.19147 -29155839.31144  23526506.8914                   23526502.5004
 -22784029.34248 -17738996.65146  21189130.9304                   21189129.6294
 -13594078.06947 -10577741.78944  23577077.0784                   23577078.5234
 -32306919.25348 -25164873.95547  20260430.3134                   20260428.0084
  -5793984.49047  -4427243.74844  23345686.1564                   23345683.5904
 11  9 22  1 44 30.0000000  0  9G18G15G05G25G02G26G30G29G21
  -2268775.85847  -1753080.97244  22901227.0944                   22901226.7704
 -16902699.42547 -13156032.54446  21227371.7974                   21227370.5234
 -36660268.74947 -28550515.07445  22693075.1724                   22693073.7974
 -24808076.98147 -19314975.90144  23629328.6954                   23629330.6374
 -37443721.08446 -29166167.83544  23523983.7034                   23523981.6684
 -22873336.38748 -17808586.51646  21172136.8444                   21172135.1334
 -13604165.34347 -10585602.08244  23575157.5634                   23575158.2734
 -32401196.80648 -25238336.96447  20242489.5634                   20242487.8754
  -5932752.86746  -4535374.87844  23319279.9454                   23319276.9654
 11  9 22  1 45  0.0000000  0  9G18G15G05G25G02G26G30G29G21
  -2410987.17947  -1863894.91244  22874164.5634                   22874164.2114
 -17040373.11147 -13263310.66946  21201173.7424                   21201171.5904
 -36651878.25847 -28543977.03345  22694671.6564                   22694669.6684
 -24802313.29047 -19310484.71844  23630426.0234                   23630428.5124
 -37456845.22747 -29176394.46644  23521487.4774                   23521484.2384
 -22961979.88248 -17877659.32046  21155267.6954                   21155266.6024
 -13614037.75147 -10593294.91144  23573278.5634                   23573279.8444
 -32494971.52748 -25311408.16547  20224644.9454                   20224642.9264
  -6071568.03946  -4643542.43744  23292863.8054                   23292861.8874
 11  9 22  1 45 30.0000000  0  9G18G15G05G25G02G26G30G29G21
  -2552960.08347  -1974523.06744  22847148.3754                   22847147.1564
 -17177600.05748 -13370240.68846  21175060.2664                   21175058.7304
 -36643421.94047 -28537387.71045  22696280.6884                   22696278.7854
 -24796495.51547 -19305951.47644  23631532.5944                   23631536.2234
 -37469836.48847 -29186517.55044  23519015.5944                   23519012.0394
 -23049956.53148 -17946212.51746  21138526.7894                   21138524.8244
 -13623696.40547 -10600821.11343  23571440.2274                   23571441.1604
 -32588240.19948 -25384085.03947  20206896.5704                   20206894.6334
  -6210427.52047  -4751744.56244  23266439.7194                   23266437.2704
 11  9 22  1 46  0.0000000  0  9G18G15G05G25G02G26G30G29G21
  -2694695.21147  -2084965.94444  22820177.0474                   22820176.2384
 -17314378.41348 -13476821.16846  21149032.5864                   21149030.4844
 -36634902.43347 -28530749.13045  22697901.7974                   22697899.5274
 -24790627.61047 -19301379.13944  23632649.3594                   23632652.9304
 -37482695.64347 -29196537.69643  23516567.7504                   23516562.5944
 -23137266.51248 -18014246.23745  21121912.4694                   21121910.4384
 -13633145.38247 -10608184.02043  23569642.6334                   23569643.6564
 -32681002.14148 -25456367.05247  20189244.3834                   20189242.1954
  -6349331.97647  -4859981.69444  23240007.3524                   23240004.9304
 11  9 22  1 46 30.0000000  0  9G18G15G05G25G02G26G30G29G21
  -2836192.48947  -2195223.47744  22793250.9064                   22793249.2624
 -17450706.12348 -13583050.49046  21123090.0234                   21123088.2734
 -36626322.19747 -28524063.22345  22699534.3674                   22699532.6764
 -24784712.88847 -19296770.36544  23633775.3594                   23633779.9454
 -37495422.53047 -29206454.71543  23514146.2034                   23514141.1914
 -23223908.70848 -18081759.58945  21105424.9144                   21105422.8954
 -13642388.19847 -10615386.23344  23567884.1804                   23567885.0164
 -32773256.87948 -25528253.85047  20171688.9454                   20171686.8244
  -6488281.35547  -4968253.83444  23213565.3984                   23213564.4104
 11  9 22  1 47  0.0000000  0  9G18G15G05G25G02G26G30G29G21
  -2977451.76547  -2305295.56544  22766370.2504                   22766368.8554
 -17586580.92248 -13688926.90446  21097234.1414                   21097232.6844
 -36617682.95847 -28517331.35745  22701178.5864                   22701177.3204
 -24778754.34146 -19292127.45944  23634908.4844                   23634912.9064
 -37508017.04347 -29216268.59844  23511750.2584                   23511745.1954
 -23309882.66548 -18148752.24846  21089064.4384                   21089062.8444
 -13651427.91046 -10622430.18443  23566163.1724                   23566163.8834
 -32865002.99748 -25599744.31147  20154230.1804                   20154228.1844
  -6627275.65047  -5076560.93844  23187115.3674                   23187113.1254
 11  9 22  1 47 30.0000000  0  9G18G15G05G25G02G26G30G29G21
  -3118472.09047  -2415181.44644  22739535.3594                   22739533.8714
 -17721999.66448 -13794447.93846  21071464.6484                   21071462.7344
 -36608985.59447 -28510554.19545  22702833.6484                   22702831.6564
 -24772754.36946 -19287452.33344  23636050.5084                   23636054.9694
 -37520478.10847 -29225978.50244  23509378.8134                   23509375.4414
 -23395186.54248 -18215222.76246  21072831.6954                   21072829.6414
 -13660267.13247 -10629317.88643  23564481.2424                   23564482.7114
 -32956238.45048 -25670836.85047  20136868.5234                   20136866.1524
  -6766313.83547  -5184902.30344  23160658.1024                   23160655.0744
 11  9 22  1 48  0.0000000  0  9G18G15G05G25G02G26G30G29G21
  -3259250.10747  -2524878.49944  22712745.5084                   22712744.5084
 -17856957.16648 -13899609.57846  21045782.8204                   21045780.7774
 -36600229.10947 -28503730.97245  22704499.7734                   22704498.3164
 -24766713.15347 -19282744.99844  23637200.0944                   23637203.8164
 -37532802.22846 -29235581.77543  23507031.0634                   23507029.4064
 -23479816.57548 -18281168.20746  21056727.1334                   21056725.3364
 -13668905.95047 -10636049.52044  23562838.0234                   23562839.6724
 -33046959.22748 -25741528.34347  20119605.0784                   20119602.8164
  -6905392.75247  -5293275.38345  23134191.6094                   23134189.1884
 11  9 22  1 48 30.0000000  0  9G18G15G05G25G02G26G30G29G21
  -1824361.70946  -1406783.51644  22985795.5944                   22985794.7734
 -16416027.32448 -12776807.03546  21319983.0234                   21319980.5314
 -35015996.46947 -27269263.97645  23005969.2814                   23005967.7154
 -23185214.39246 -18050408.44044  23938149.5474                   23938154.5474
 -35969569.70446 -28017478.58043  23804505.6334                   23804502.5124
 -21988349.82348 -17118986.29346  21340543.8594                   21340541.7114
 -12101927.91646  -9415027.68443  23861023.7424                   23861025.5664
 -31561741.80748 -24584216.05347  20402232.5864                   20402230.6724
  -5469087.90046  -4174076.63045  23407511.2504                   23407509.2774
 11  9 22  1 49  0.0000000  0  9G18G15G05G25G02G26G30G29G21
  -1964657.71146  -1516104.98344  22959097.7814                   22959096.7704
 -16550058.37248 -12881246.77146  21294477.1724                   21294475.7274
 -35007130.21247 -27262355.21645  23007656.0864                   23007654.7624
 -23179102.60747 -18045646.15144  23939313.0864                   23939317.0784
 -35981622.78446 -28026870.51943  23802212.6174                   23802209.0904
 -22071632.68248 -17183881.98446  21324695.8364                   21324693.7704
 -12110178.51246  -9421456.70843  23859454.2194                   23859455.2704
 -31651432.83648 -24654105.13947  20385164.7814                   20385162.4844
  -5608250.12647  -4282514.59644  23381029.8134                   23381027.2704
 11  9 22  1 49 30.0000000  0  9G18G15G05G25G02G26G30G29G21
  -2104713.82047  -1625239.48144  22932446.0314                   22932444.7774
 -16683623.91748 -12985323.75146  21269060.9774                   21269059.4534
 -34998213.29847 -27255406.96945  23009353.1414                   23009351.9384
 -23172961.20946 -18040860.69843  23940481.0554                   23940485.1024
 -35993541.30246 -28036157.67243  23799944.1024                   23799941.1644
 -22154242.41248 -17248253.17346  21308975.3674                   21308973.8594
 -12118241.19046  -9427739.33243  23857918.5554                   23857921.1844
 -31740608.50648 -24723592.66547  20368195.2034                   20368192.7624
  -5747455.00347  -4390985.81344  23354539.4384                   23354537.2154
 11  9 22  1 50  0.0000000  0  9G18G15G05G25G02G26G30G29G21
  -2244528.91947  -1734186.20444  22905840.0784                   22905838.8834
 -16816720.92448 -13089035.64946  21243732.9774                   21243731.0044
 -34989246.53147 -27248419.87945  23011059.8594                   23011057.6414
 -23166792.64947 -18036054.06544  23941655.3984                   23941659.1684
 -36005324.11546 -28045339.13043  23797701.4924                   23797699.8134
 -22236177.22947 -17312098.45545  21293383.7734                   21293381.8954
 -12126118.11846  -9433877.26643  23856420.1644                   23856422.0594
 -31829266.82348 -24792677.05847  20351324.6174                   20351322.3324
  -5886701.22047  -4499489.22044  23328041.7504                   23328039.3404
 11  9 22  1 50 30.0000000  0  9G18G15G05G25G02G26G30G29G21
  -2384103.91947  -1842945.80844  22879280.0234                   22879278.5164
 -16949348.40048 -13192381.69446  21218494.9694                   21218492.7664
 -34980232.90347 -27241396.29345  23012774.7504                   23012773.3054
 -23160601.06646 -18031229.54743  23942832.5634                   23942837.2814
 -36016972.30647 -28054415.67543  23795486.4614                   23795481.6764
 -22317437.70147 -17375418.28045  21277920.2424                   21277918.6724
 -12133813.81246  -9439873.96743  23854956.2114                   23854957.9654
 -31917407.95748 -24861358.44247  20334551.5234                   20334549.3134
  -6025989.70147  -4608025.59244  23301536.3284                   23301533.6334
 11  9 22  1 51  0.0000000  0  9G18G15G05G25G02G26G30G29G21
  -2523437.65047  -1951517.43044  22852765.8834                   22852763.6844
 -17081503.20248 -13295359.40446  21193346.6724                   21193344.7504
 -34971172.77947 -27234336.47245  23014499.3594                   23014497.0744
 -23154388.24447 -18026388.49944  23944015.9304                   23944019.3164
 -36028484.31647 -28063386.00744  23793295.0784                   23793291.3054
 -22398021.84247 -17438211.08246  21262585.7114                   21262583.4694
 -12141330.25246  -9445730.91943  23853526.0704                   23853527.6334
 -32005029.71048 -24929635.11547  20317877.7274                   20317875.0864
  -6165319.05847  -4716593.75144  23275022.6724                   23275018.9844
 11  9 22  1 51 30.0000000  0  9G18G15G05G25G02G26G30G29G21
  -2662526.79447  -2059898.46844  22826297.6254                   22826296.1094
 -17213179.80148 -13397964.49046  21168289.2034                   21168288.0704
 -34962064.93547 -27227239.45445  23016232.5234                   23016230.0784
 -23148154.26247 -18021530.95044  23945202.7034                   23945207.2034
 -36039856.79747 -28072247.68944  23791131.2344                   23791128.1414
 -22477926.17648 -17500474.17046  21247380.7584                   21247378.2504
 -12148667.57546  -9451448.35243  23852129.6174                   23852131.0984
 -32092127.86648 -24997503.77347  20301302.9534                   20301300.7974
  -6304686.01247  -4825191.27244  23248501.3984                   23248498.8094
 11  9 22  1 52  0.0000000  0  9G18G15G05G25G02G26G30G29G21
  -2801373.60547  -2168090.66344  22799876.3284                   22799874.8054
 -17344378.33048 -13500197.05146  21143323.1564                   21143321.1214
 -34952914.00547 -27220108.84745  23017973.4454                   23017971.5204
 -23141904.50847 -18016661.11244  23946390.9304                   23946395.7584
 -36051092.02146 -28081002.39744  23788992.5164                   23788991.0634
 -22557152.54247 -17562208.95846  21232304.2664                   21232302.7704
 -12155831.43046  -9457030.61843  23850766.0314                   23850767.6484
 -32178704.08848 -25064965.75347  20284828.2974                   20284826.0984
  -6444092.86747  -4933819.84244  23221973.0784                   23221970.5824
 11  9 22  1 52 30.0000000  0  9G18G15G05G25G02G26G30G29G21
  -2939978.91546  -2276094.65144  22773499.8754                   22773498.5704
 -17475097.25148 -13602055.89846  21118447.9224                   21118445.9344
 -34943722.23347 -27212946.42445  23019722.9064                   23019720.8594
 -23135642.54547 -18011781.77044  23947584.3834                   23947588.2384
 -36062190.43747 -28089650.56244  23786881.5634                   23786878.6254
 -22635701.16547 -17623415.65646  21217357.0634                   21217355.6134
 -12162825.58546  -9462480.69243  23849435.2974                   23849437.4144
 -32264757.64248 -25132020.45547  20268453.1884                   20268450.7464
  -6583539.34447  -5042479.33544  23195437.0084                   23195434.1414
 11  9 22  1 53  0.0000000  0  9G18G15G05G25G02G26G30G29G21
  -3078341.34646  -2383909.37944  22747169.8984                   22747169.9184
 -17605333.70748 -13703538.80946  21093664.9694                   21093662.7234
 -34934490.24047 -27205752.68345  23021479.2194                   23021477.9264
 -23129370.62447 -18006894.60544  23948777.6884                   23948781.4964
 -36073150.84747 -28098191.16445  23784795.8134                   23784792.8094
 -22713570.77847 -17684093.24445  21202538.4454                   21202536.7544
 -12169652.39946  -9467800.41143  23848136.2974                   23848137.7074
 -32350287.10448 -25198666.76847  20252177.1024                   20252174.9384
  -6723025.02546  -5151169.52244  23168893.8134                   23168891.8164
 11  9 22  1 53 30.0000000  0  9G18G15G05G25G02G26G30G29G21
  -3216461.13747  -2491535.07844  22720886.8674                   22720885.1054
 -17735085.86848 -13804644.32646  21068973.8054                   21068971.8674
 -34925220.15347 -27198529.23345  23023243.7974                   23023241.0864
 -23123091.90147 -18002002.19944  23949972.0234                   23949975.9264
 -36083973.60547 -28106624.48345  23782736.5944                   23782733.0904
 -22790760.79547 -17744241.29346  21187849.8754                   21187848.1024
 -12176315.22446  -9472992.25243  23846868.4694                   23846870.7544
 -32435291.53848 -25264903.95847  20236001.3524                   20235998.6644
  -6862548.35657  -5259888.73854  23142343.5864                   23142341.4884
 11  9 22  1 54  0.0000000  0  9G18G15G05G25G02G26G30G29G21
  -3354337.31647  -2598970.94644  22694649.7974                   22694649.0904
 -17864350.34748 -13905369.84446  21044375.1484                   21044372.7894
 -34915912.75947 -27191276.71345  23025014.8754                   23025012.9614
 -23116808.26647 -17997105.94344  23951167.8834                   23951172.3094
 -36094657.09946 -28114949.30044  23780702.4384                   23780699.5044
 -22867269.83447 -17803858.67946  21173290.3284                   21173288.4104
 -12182816.13147  -9478057.93643  23845631.9924                   23845633.6134
 -32519768.78148 -25330730.36947  20219925.9844                   20219923.7074
  -7002109.36047  -5368637.48545  23115785.9064                   23115783.2814
 11  9 22  1 54 30.0000000  0  9G18G15G05G25G02G26G30G29G21
  -3491968.41847  -2706215.86845  22668459.9304                   22668458.5864
 -17993124.02848 -14005712.91446  21019870.6644                   21019868.7304
 -34906568.31847 -27183995.32345  23026793.0944                   23026790.4264
 -23110521.67147 -17992207.40444  23952363.8754                   23952368.7774
 -36105200.10546 -28123164.68544  23778697.2734                   23778693.1604
 -22943096.61647 -17862944.44546  21158861.0004                   21158859.1454
 -12189157.34547  -9482999.17143  23844425.2034                   23844426.1414
 -32603717.04748 -25396144.57447  20203950.7424                   20203948.6644
  -7141705.85347  -5477413.87945  23089221.5704                   23089219.1374
 11  9 22  1 55  0.0000000  0  9G18G15G05G25G02G26G30G29G21
  -3629354.93247  -2813270.17345  22642316.2424                   22642314.2774
 -18121405.24048 -14105672.24846  20995459.5004                   20995457.5044
 -34897189.14447 -27176686.86545  23028577.9614                   23028575.6644
 -23104235.50647 -17987309.18044  23953560.7274                   23953564.9064
 -36115602.92247 -28131270.81144  23776717.7894                   23776714.7304
 -23018240.78047 -17921498.31146  21144561.7734                   21144559.7624
 -12195342.47847  -9487818.85443  23843248.0084                   23843248.7704
 -32687135.85048 -25461146.22147  20188076.7584                   20188074.6724
  -7281338.07547  -5586218.14645  23062650.1414                   23062647.9884
 11  9 22  1 55 30.0000000  0  9G18G15G05G25G02G26G30G29G21
  -3766495.76847  -2920133.04545  22616218.4774                   22616216.4884
 -18249190.95948 -14205245.48646  20971142.3364                   20971140.5634
 -34887775.97447 -27169351.94145  23030368.9534                   23030366.8094
 -23097951.81346 -17982412.86644  23954756.2344                   23954760.2194
 -36125864.59447 -28139266.93144  23774764.9144                   23774761.5274
 -23092701.64247 -17979519.73645  21130391.9144                   21130390.1914
 -12201373.81046  -9492518.60844  23842100.4454                   23842101.5664
 -32770023.39548 -25525733.90347  20172304.0634                   20172301.9574
  -7421004.73447  -5695049.22245  23036072.5234                   23036069.7934
 11  9 22  1 56  0.0000000  0  9G18G15G05G25G02G26G30G29G21
  -3903391.16547  -3026804.67444  22590168.2274                   22590166.6174
 -18376479.19848 -14304431.08546  20946920.3444                   20946918.1954
 -34878330.77547 -27161992.04145  23032167.0394                   23032163.9104
 -23091673.73546 -17977520.94844  23955951.3524                   23955955.5394
 -36135984.72547 -28147152.78044  23772837.8364                   23772836.4964
 -23166478.81548 -18037008.41946  21116352.7034                   21116350.5084
 -12207254.66246  -9497101.12544  23840980.9224                   23840983.7934
 -32852378.81948 -25589906.93647  20156632.2034                   20156629.8404
  -7560705.59647  -5803906.98845  23009488.3134                   23009485.6484
 11  9 22  1 56 30.0000000  0  9G18G15G05G25G02G26G30G29G21
  -4040041.24847  -3133285.15644  22564164.3204                   22564162.7814
 -18503268.35448 -14403227.76646  20922793.5784                   20922791.6604
 -34868855.15446 -27154608.44244  23033969.0164                   23033968.4144
 -23085404.28446 -17972635.74944  23957145.0084                   23957148.4024
 -36145963.64446 -28154928.60843  23770939.4534                   23770937.7664
 -23239572.12148 -18093964.20646  21102443.8984                   21102442.4574
 -12212988.29447  -9501568.94843  23839890.4924                   23839892.7424
 -32934201.48648 -25653664.84647  20141061.5634                   20141059.4844
  -7700440.40647  -5912791.21345  22982898.0554                   22982895.8164
 11  9 22  1 57  0.0000000  0  9G18G15G05G25G02G26G30G29G21
  -4176446.50247  -3239574.88744  22538207.5554                   22538205.9804
 -18629557.07448 -14501634.51146  20898761.5784                   20898759.5084
 -34859351.56147 -27147203.03745  23035777.9924                   23035776.1174
 -23079147.07446 -17967760.05244  23958334.8054                   23958340.1604
 -36155801.73847 -28162594.63643  23769067.8914                   23769063.8524
 -23311981.95347 -18150387.42345  21088664.3834                   21088662.7344
 -12218578.56946  -9505925.08144  23838825.8054                   23838828.9024
 -33015491.01948 -25717007.32347  20125592.6884                   20125591.1604
  -7840209.32247  -6021701.99245  22956300.3914                   22956298.8674
 11  9 22  1 57 30.0000000  0  9G18G15G05G25G02G26G30G29G21
  -4312604.28747  -3345671.75745  22512297.4844                   22512295.6134
 -18755340.58448 -14599647.57846  20874825.2734                   20874823.6094
 -34849819.21746 -27139775.22245  23037591.5554                   23037590.7274
 -23072902.47647 -17962894.23344  23959523.0314                   23959527.5864
 -36165496.01147 -28170148.55344  23767222.8054                   23767219.3874
 -23383705.58648 -18206275.93546  21075015.7584                   21075014.0274
 -12224026.05546  -9510169.88143  23837790.2584                   23837791.8404
 -33096244.95648 -25779932.46747  20110225.8524                   20110223.6334
  -7980009.29147  -6130636.98045  22929697.2894                   22929695.7304
 11  9 22  1 58  0.0000000  0  9G18G15G05G25G02G26G30G29G21
  -4448515.76947  -3451576.73644  22486434.0554                   22486432.2934
 -18880618.45648 -14697266.65546  20850985.8754                   20850983.3134
 -34840260.60747 -27132326.97745  23039411.9924                   23039409.8794
 -23066674.64647 -17958041.42144  23960707.8674                   23960713.8324
 -36175047.64246 -28177591.39643  23765405.0394                   23765402.2234
 -23454744.16448 -18261630.63945  21061497.4224                   21061495.6684
 -12229335.29246  -9514307.03544  23836779.1334                   23836781.5044
 -33176462.92048 -25842439.95447  20094961.1564                   20094958.7734
  -8119841.28647  -6239596.92044  22903087.8134                   22903085.4494
 11  9 22  1 58 30.0000000  0  9G18G15G05G25G02G26G30G29G21
  -3008756.40547  -2329686.21945  22760411.1564                   22760409.4734
 -17429964.45248 -13566886.86546  21127035.6884                   21127034.0984
 -33255257.99146 -25897260.01045  23341027.1804                   23341025.2664
 -21485046.78847 -16725604.18444  24261682.6724                   24261686.8834
 -34609036.21146 -26957322.71843  24063406.6804                   24063405.1024
 -21949675.24248 -17088849.62245  21347902.3834                   21347900.7974
 -10659089.14446  -8290738.59944  24135586.6414                   24135589.1294
 -31680721.80248 -24676927.38347  20379590.7274                   20379588.5354
  -6684280.08347  -5120977.76244  23176266.1334                   23176263.8954
 11  9 22  1 59  0.0000000  0  9G18G15G05G25G02G26G30G29G21
  -3144175.05447  -2435207.15144  22734641.7034                   22734640.0164
 -17554224.50448 -13663712.83446  21103390.2034                   21103387.7504
 -33245651.96747 -25889774.81445  23342855.3754                   23342853.0784
 -21478861.25047 -16720784.37744  24262860.1484                   24262863.3324
 -34618302.01045 -26964542.95743  24061641.9144                   24061641.9184
 -22019343.19848 -17143136.32046  21334645.4224                   21334643.2734
 -10664131.10646  -8294667.42144  24134628.3674                   24134630.0204
 -31759865.92248 -24738598.10847  20364530.3524                   20364527.7194
  -6824174.29947  -5229986.19145  23149645.3914                   23149642.1764
 11  9 22  1 59 30.0000000  0  9G18G15G05G25G02G26G30G29G21
  -3279346.75247  -2540535.67845  22708919.5634                   22708917.8444
 -17677972.47748 -13760139.77946  21079841.5784                   21079839.4804
 -33236024.14147 -25882272.61444  23344686.5864                   23344684.6524
 -21472700.65147 -16715983.97844  24264032.0234                   24264035.8244
 -34627423.98946 -26971650.88843  24059908.0554                   24059905.3914
 -22088325.30248 -17196888.59245  21321518.5704                   21321516.2154
 -10669043.63646  -8298495.41343  24133693.6484                   24133694.5514
 -31838471.60148 -24799849.27847  20349572.0394                   20349569.8324
  -6964098.50947  -5339018.02645  23123018.5394                   23123015.2464
 11  9 22  2  0  0.0000000  0  9G18G15G05G25G02G26G30G29G21
  -3414269.90847  -2645670.48745  22683244.4694                   22683243.0514
 -17801205.05748 -13856165.11546  21056391.1484                   21056388.6844
 -33226374.96747 -25874753.75945  23346523.1334                   23346521.3404
 -21466566.60247 -16711204.25444  24265199.5634                   24265203.8014
 -34636401.20646 -26978646.10643  24058199.5474                   24058197.3204
 -22156620.18748 -17250105.36245  21308521.8284                   21308520.2034
 -10673828.59846  -8302223.96943  24132781.7814                   24132784.4344
 -31916536.71348 -24860679.23247  20334716.8364                   20334714.7734
  -7104050.79847  -5448071.71645  23096386.1334                   23096383.1724
 11  9 22  2  0 30.0000000  0  9G18G15G05G25G02G26G30G29G21
  -3548946.48547  -2750613.19545  22657616.0634                   22657614.5474
 -17923921.57248 -13951788.33546  21033039.4304                   21033036.9694
 -33216706.57147 -25867219.96445  23348363.1484                   23348361.6884
 -21460463.14647 -16706448.34944  24266360.2974                   24266364.0274
 -34645233.98146 -26985528.81243  24056518.8524                   24056516.7274
 -22224228.80048 -17302787.36045  21295657.1334                   21295655.1764
 -10678490.32546  -8305856.50843  24131894.2344                   24131897.4694
 -31994061.62448 -24921088.23347  20319964.1094                   20319962.0784
  -7244031.56047  -5557147.60545  23069749.2734                   23069747.3054
 11  9 22  2  1  0.0000000  0  9G18G15G05G25G02G26G30G29G21
  -3683376.91947  -2855364.09945  22632035.0784                   22632033.2304
 -18046121.12048 -14047008.71646  21009785.2274                   21009782.5594
 -33207022.03647 -25859673.57245  23350206.7274                   23350204.3524
 -21454394.02146 -16701719.28144  24267514.9304                   24267520.8404
 -34653923.33046 -26992299.74843  24054864.9454                   24054862.2424
 -22291152.37348 -17354935.56346  21282921.7664                   21282919.2034
 -10683032.94646  -8309396.22843  24131030.4774                   24131033.2934
 -32071046.80548 -24981076.68047  20305314.2274                   20305312.1054
  -7384041.92047  -5666246.52745  23043105.8914                   23043103.2384
 11  9 22  2  1 30.0000000  0  9G18G15G05G25G02G26G30G29G21
  -3817559.52647  -2959921.88945  22606500.9384                   22606499.0864
 -18167799.96748 -14141823.36046  20986630.5084                   20986628.4574
 -33197321.09647 -25852114.42245  23352052.0554                   23352050.0744
 -21448360.50046 -16697017.92543  24268663.6804                   24268667.4734
 -34662467.44147 -26998957.52844  24053239.9614                   24053237.3284
 -22357389.32348 -17406548.75746  21270317.3054                   21270315.0824
 -10687457.89246  -8312844.28243  24130188.2664                   24130190.5084
 -32147489.83148 -25040642.66747  20290767.7814                   20290766.1914
  -7524079.06847  -5775366.34745  23016458.3284                   23016455.0594
 11  9 22  2  2  0.0000000  0  9G18G15G05G25G02G26G30G29G21
  -3951492.46547  -3064285.11845  22581014.0864                   22581012.4534
 -18288954.66148 -14236229.56946  20963575.8674                   20963572.9964
 -33187603.37547 -25844542.20444  23353901.2504                   23353898.1094
 -21442363.64946 -16692345.19843  24269804.6484                   24269809.6724
 -34670864.28747 -27005500.53544  24051642.5084                   24051638.8204
 -22422937.81648 -17457625.47446  21257843.7034                   21257842.0704
 -10691766.42446  -8316201.60243  24129369.2194                   24129370.7544
 -32223388.34448 -25099784.35747  20276324.8054                   20276322.8164
  -7664140.55647  -5884505.11445  22989804.4614                   22989802.9144
 11  9 22  2  2 30.0000000  0  9G18G15G05G25G02G26G30G29G21
  -4085176.80447  -3168454.65545  22555574.7894                   22555572.5554
 -18409584.51948 -14330226.82146  20940620.4614                   20940618.7194
 -33177871.87747 -25836959.22244  23355752.4774                   23355751.1524
 -21436407.20046 -16687703.88643  24270937.6174                   24270941.9844
 -34679114.81247 -27011929.46843  24050071.3364                   24050067.1604
 -22487798.95648 -17508166.60046  21245500.8594                   21245499.2664
 -10695962.78146  -8319471.49043  24128570.9064                   24128572.6804
 -32298742.88048 -25158502.16747  20261985.1724                   20261983.0354
  -7804227.39347  -5993663.63245  22963147.2424                   22963144.6564
 11  9 22  2  3  0.0000000  0  9G18G15G05G25G02G26G30G29G21
  -4218611.34947  -3272429.52145  22530183.0864                   22530181.9534
 -18529686.76748 -14423812.95146  20917765.8524                   20917763.3164
 -33168126.50547 -25829365.46845  23357607.7504                   23357605.7274
 -21430493.09546 -16683095.59443  24272062.4224                   24272068.0164
 -34687217.48747 -27018243.16943  24048530.2734                   24048526.1724
 -22551972.00448 -17558171.55145  21233289.2504                   21233287.1994
 -10700049.08646  -8322655.63443  24127793.5164                   24127794.1804
 -32373551.77048 -25216794.79547  20247749.5944                   20247747.9344
  -7944337.74547  -6102840.47345  22936485.3444                   22936481.5354
 11  9 22  2  3 30.0000000  0  9G18G15G05G25G02G26G30G29G21
  -4351795.59747  -3376209.35445  22504838.8134                   22504836.5354
 -18649258.40448 -14516985.61146  20895011.9694                   20895009.9924
 -33158367.72447 -25821761.21545  23359464.9384                   23359462.8204
 -21424623.00246 -16678521.59842  24273180.9534                   24273183.7504
 -34695171.61346 -27024441.27843  24047016.7194                   24047012.5864
 -22615456.04048 -17607639.61445  21221208.2734                   21221206.1684
 -10704027.24546  -8325755.54943  24127036.2894                   24127038.6024
 -32447812.94948 -25274660.64147  20233618.3444                   20233616.5394
  -8084469.77747  -6212034.19745  22909818.2584                   22909816.6564
 11  9 22  2  4  0.0000000  0  9G18G15G05G25G02G26G30G29G21
  -4484731.18747  -3479795.42545  22479541.6644                   22479540.0394
 -18768299.23848 -14609744.66746  20872358.9614                   20872356.3164
 -33148598.82247 -25814149.13745  23361324.3284                   23361322.5124
 -21418801.56647 -16673985.57043  24274289.2814                   24274292.8874
 -34702978.71447 -27030524.67544  24045531.5554                   24045526.9224
 -22678253.01048 -17656572.28445  21209258.6334                   21209256.8244
 -10707902.30746  -8328775.12243  24126298.7584                   24126300.0664
 -32521528.26448 -25332101.13747  20219590.6724                   20219588.5354
  -8224624.14147  -6321245.32945  22883148.3754                   22883145.9804
 11  9 22  2  4 30.0000000  0  9G18G15G05G25G02G26G30G29G21
  -4617417.38347  -3583187.16045  22454292.8524                   22454290.7704
 -18886807.29648 -14702088.56546  20849807.7584                   20849805.1294
 -33138821.04747 -25806530.12444  23363184.0944                   23363183.6764
 -21413031.02347 -16669489.10443  24275386.9224                   24275389.6374
 -34710637.97347 -27036492.90144  24044072.9064                   24044069.3164
 -22740362.60448 -17704969.36146  21197439.7504                   21197437.6254
 -10711676.81546  -8331716.30143  24125580.8914                   24125581.6214
 -32594696.58948 -25389115.39947  20205667.4774                   20205664.7734
  -8364800.94047  -6430473.93045  22856473.7114                   22856470.0044
 11  9 22  2  5  0.0000000  0  9G18G15G05G25G02G26G30G29G21
  -4749853.86647  -3686384.31145  22429089.9774                   22429088.2464
 -19004780.46148 -14794015.66046  20827358.2114                   20827355.6294
 -33129035.45047 -25798905.00045  23365047.5784                   23365045.1054
 -21407313.80447 -16665034.21043  24276474.7424                   24276479.7584
 -34718148.94247 -27042345.63043  24042643.6724                   24042640.6524
 -22801784.97748 -17752830.92646  21185751.3674                   21185749.5984
 -10715353.42646  -8334581.24943  24124881.1174                   24124881.7704
 -32667316.86348 -25445702.61447  20191848.3834                   20191845.7934
  -8504998.88347  -6539719.01545  22829794.5234                   22829791.3794
 11  9 22  2  5 30.0000000  0  9G18G15G05G25G02G26G30G29G21
  -4882039.19647  -3789385.74845  22403936.2034                   22403934.3554
 -19122215.54648 -14885523.47946  20805010.7584                   20805008.7734
 -33119241.42047 -25791273.28745  23366909.7664                   23366909.2464
 -21401651.02747 -16660621.75343  24277552.8364                   24277556.4024
 -34725509.94746 -27048081.34543  24041243.2114                   24041239.8364
 -22862518.67048 -17800155.88045  21174193.9774                   21174191.9064
 -10718933.78746  -8337371.12643  24124199.8834                   24124200.8714
 -32739387.14148 -25501861.26447  20178133.8284                   20178131.6604
  -8645215.46547  -6648978.60245  22803111.7344                   22803108.6454
 11  9 22  2  6  0.0000000  0  9G18G15G05G25G02G26G30G29G21
  -5013972.92347  -3892191.13545  22378830.3284                   22378827.8404
 -19239110.32048 -14976610.28846  20782766.4304                   20782764.5554
 -33109439.99547 -25783635.81044  23368775.7974                   23368773.8554
 -21396044.87447 -16656253.43644  24278619.9844                   24278624.9884
 -34732719.93846 -27053699.60543  24039869.7344                   24039868.3204
 -22922563.35448 -17846943.92045  21162767.7344                   21162765.5784
 -10722420.25346  -8340087.86343  24123535.5314                   24123538.2664
 -32810906.44548 -25557590.57647  20164523.8914                   20164521.8404
  -8785449.38647  -6758251.72845  22776426.6884                   22776423.7504
 11  9 22  2  6 30.0000000  0  9G18G15G05G25G02G26G30G29G21
  -5145656.71547  -3994801.79645  22353771.5704                   22353769.8874
 -19355464.83148 -15067276.09246  20760624.7664                   20760622.7584
 -33099634.23247 -25775994.96444  23370641.3524                   23370639.7304
 -21390499.85346 -16651932.78644  24279675.0864                   24279679.8634
 -34739780.64646 -27059201.52844  24038527.7194                   24038525.2774
 -22981921.21448 -17893196.78545  21151472.7424                   21151470.8134
 -10725817.70546  -8342735.24743  24122889.0784                   24122891.3404
 -32881875.82148 -25612891.38447  20151018.7424                   20151016.1454
  -8925701.96947  -6867539.36845  22749737.7894                   22749734.0354
 11  9 22  2  7  0.0000000  0  9G18G15G05G25G02G26G30G29G21
  -5277089.11847  -4097216.57045  22328760.8754                   22328758.1374
 -19471275.74148 -15157518.31346  20738586.9144                   20738584.3364
 -33089823.83246 -25768350.57044  23372507.6644                   23372506.8444
 -21385017.08546 -16647660.63544  24280718.3754                   24280723.7734
 -34746690.23947 -27064585.63744  24037213.0004                   24037208.6954
 -23040591.02948 -17938913.50546  21140308.1644                   21140305.9734
 -10729127.56946  -8345314.39743  24122259.3754                   24122261.8554
 -32952293.29848 -25667762.13347  20137618.8984                   20137616.4104
  -9065970.60447  -6976839.52645  22723045.2274                   22723042.0314
 11  9 22  2  7 30.0000000  0  9G18G15G05G25G02G26G30G29G21
  -5408272.58947  -4199437.34545  22303797.2664                   22303795.2974
 -19586543.61948 -15247337.39946  20716652.1724                   20716649.9224
 -33080013.17047 -25760705.91544  23374375.4534                   23374373.1454
 -21379601.72146 -16643441.02844  24281749.6564                   24281753.8204
 -34753451.26846 -27069853.94244  24035925.7504                   24035923.2544
 -23098575.69948 -17984096.35546  21129273.9694                   21129271.7814
 -10732355.35947  -8347829.55743  24121645.1644                   24121647.0944
 -33022160.72648 -25722204.27747  20124323.6414                   20124321.7544
  -9206257.21647  -7086153.67245  22696348.9924                   22696347.2034
 11  9 22  2  8  0.0000000  0  9G18G15G05G25G02G26G30G29G21
  -5539203.24547  -4301461.12945  22278881.8594                   22278879.7504
 -19701263.17948 -15336729.23046  20694821.7424                   20694819.1604
 -33070199.32747 -25753058.75444  23376242.1484                   23376240.4534
 -21374252.45846 -16639272.95144  24282766.3284                   24282772.0434
 -34760059.20346 -27075003.00144  24034668.0394                   24034666.0234
 -23155871.75948 -18028742.62146  21118370.9694                   21118369.4024
 -10735500.09546  -8350280.06744  24121047.3204                   24121049.4964
 -33091474.01848 -25776214.62347  20111133.7504                   20111131.5514
  -9346557.00847  -7195478.09345  22669650.9384                   22669648.1174
 11  9 22  2  8 30.0000000  0  9G18G15G05G25G02G26G30G29G21
  -5669881.75447  -4403288.43745  22254014.1644                   22254012.7304
 -19815433.80148 -15425693.30146  20673095.6414                   20673093.6414
 -33060384.48147 -25745410.83144  23378110.5864                   23378108.9454
 -21368972.97546 -16635159.22444  24283771.7734                   24283776.9454
 -34766515.13546 -27080033.64843  24033439.3134                   24033436.8794
 -23212480.51648 -18072853.33646  21107598.1174                   21107597.2664
 -10738565.75546  -8352668.88143  24120463.1954                   24120465.9804
 -33160233.83448 -25829793.68447  20098048.8834                   20098046.9144
  -9486870.36847  -7304813.11245  22642950.4844                   22642946.9804
 11  9 22  2  9  0.0000000  0  9G18G15G05G25G02G26G30G29G21
  -4224886.46747  -3277318.00545  22528988.0314                   22528986.1334
 -18353632.04348 -14286626.95346  20951267.4694                   20951264.8834
 -31475152.05947 -24510164.75044  23679769.9064                   23679767.0594
 -19788348.00346 -15403503.57144  24584554.7814                   24584559.1524
 -33197400.54846 -25857346.97143  24332032.7814                   24332030.2624
 -21692982.64048 -16888829.00046  21396749.3284                   21396747.6524
  -9166137.24346  -7127399.90043  24419686.4454                   24419689.7544
 -31653019.15048 -24655340.68247  20384862.5314                   20384860.2304
  -8051774.00947  -6186556.11245  22916039.7734                   22916036.3834
 11  9 22  2  9 30.0000000  0  9G18G15G05G25G02G26G30G29G21
  -4355065.82147  -3378756.38645  22504215.7194                   22504212.9384
 -18466703.81048 -14374734.77546  20929750.3284                   20929748.4844
 -31465342.97047 -24502521.32944  23681636.6724                   23681634.1684
 -19783219.86946 -15399507.74643  24585530.6644                   24585535.6254
 -33203555.88146 -25862143.28244  24330861.3284                   24330858.8204
 -21748222.33148 -16931872.90746  21386237.6094                   21386235.8554
  -9169057.73346  -7129675.66643  24419131.2424                   24419133.4884
 -31720674.13048 -24708058.84047  20371988.2034                   20371986.6684
  -8192116.11047  -6295913.52045  22889333.9844                   22889330.6844
 11  9 22  2 10  0.0000000  0  9G18G15G05G25G02G26G30G29G21
  -4484993.83247  -3479998.90945  22479491.0864                   22479488.9774
 -18579222.27248 -14462411.46046  20908338.7274                   20908336.4414
 -31455537.25647 -24494880.50044  23683502.8984                   23683500.8914
 -19778170.08546 -15395573.01244  24586492.3914                   24586497.1644
 -33209559.23846 -25866821.20343  24329718.4534                   24329716.9614
 -21802776.95247 -16974382.97946  21375855.9454                   21375854.9144
  -9171908.72846  -7131897.20443  24418589.3984                   24418591.2624
 -31787774.93648 -24760345.16947  20359219.3204                   20359216.9614
  -8332470.08247  -6405280.18645  22862625.4384                   22862622.8874
 11  9 22  2 10 30.0000000  0  9G18G15G05G25G02G26G30G29G21
  -4614671.98147  -3581046.73545  22454813.6564                   22454811.6844
 -18691187.30948 -14549656.89546  20887032.8444                   20887030.1484
 -31445737.40946 -24487244.28644  23685367.6094                   23685366.1644
 -19773202.29946 -15391702.12544  24587437.1094                   24587442.7074
 -33215411.45746 -25871381.42043  24328605.7424                   24328602.8554
 -21856648.32547 -17016360.66845  21365604.8444                   21365602.9264
  -9174694.42246  -7134067.99543  24418059.1954                   24418061.3754
 -31854322.52948 -24812200.42247  20346555.7424                   20346553.3834
  -8472836.42847  -6514656.47745  22835914.4844                   22835911.7544
 11  9 22  2 11  0.0000000  0  9G18G15G05G25G02G26G30G29G21
  -4744099.84347  -3681899.54845  22430184.4924                   22430182.4734
 -18802597.34847 -14636469.87246  20865831.9224                   20865829.4184
 -31435944.50047 -24479613.38145  23687230.9454                   23687229.0904
 -19768318.95147 -15387897.10344  24588367.1484                   24588371.7544
 -33221112.18345 -25875823.54643  24327519.6484                   24327518.2504
 -21909836.72947 -17057806.15545  21355483.0784                   21355481.3364
  -9177417.52946  -7136189.82243  24417540.8284                   24417541.7664
 -31920316.40248 -24863624.21347  20333997.2664                   20333995.1994
  -8613213.92247  -6624041.47745  22809201.6094                   22809199.1604
 11  9 22  2 11 30.0000000  0  9G18G15G05G25G02G26G30G29G21
  -4873275.69247  -3782555.96945  22405603.0864                   22405601.7544
 -18913448.04448 -14722847.00346  20844737.7664                   20844735.1564
 -31426157.36846 -24471987.07745  23689093.2664                   23689091.9654
 -19763520.35647 -15384158.04444  24589279.5004                   24589284.9414
 -33226658.88356 -25880145.66953  24326463.8674                   24326462.6804
 -21962340.39247 -17098718.09345  21345492.1174                   21345490.7974
  -9180078.71946  -7138263.58243  24417035.5394                   24417035.0594
 -31985753.92748 -24914614.47447  20321545.4144                   20321543.6644
  -8753599.01547  -6733432.38245  22782486.9384                   22782484.0354
 11  9 22  2 12  0.0000000  0  9G18G15G05G25G02G26G30G29G21
  -5002199.14047  -3883015.72145  22381070.0234                   22381067.7344
 -19023738.00148 -14808787.17946  20823750.2274                   20823747.9964
 -31416376.82446 -24464365.86244  23690954.9144                   23690953.7664
 -19758808.67447 -15380486.73643  24590176.3364                   24590181.1724
 -33232051.41246 -25884347.73443  24325438.8984                   24325435.4654
 -22014159.79847 -17139096.83245  21335631.3134                   21335629.2074
  -9182680.65646  -7140291.08243  24416538.7504                   24416538.8134
 -32050633.99248 -24965170.35547  20309198.5864                   20309196.7814
  -8893990.96147  -6842828.64745  22755771.1644                   22755767.1684
 11  9 22  2 12 30.0000000  0  9G18G15G05G25G02G26G30G29G21
  -5130874.26247  -3983281.97445  22356583.6724                   22356581.9264
 -19133469.73847 -14894292.39446  20802868.9694                   20802866.4734
 -31406608.32146 -24456754.00944  23692813.4144                   23692811.2664
 -19754190.52847 -15376888.30744  24591055.4924                   24591060.4614
 -33237293.46246 -25888432.38443  24324441.5394                   24324435.6134
 -22065299.64747 -17178946.05945  21325899.7734                   21325897.4454
  -9185230.18446  -7142277.84543  24416054.4454                   24416054.9884
 -32114960.89548 -25015295.20147  20296957.9064                   20296955.0704
  -9034392.94647  -6952232.73045  22729053.3204                   22729049.6564
 11  9 22  2 13  0.0000000  0  9G18G15G05G25G02G26G30G29G21
  -5259298.27447  -4083352.54745  22332145.3674                   22332143.0554
 -19242638.89148 -14979359.22746  20782094.8134                   20782092.3984
 -31396850.11346 -24449150.24944  23694670.9534                   23694668.2934
 -19749665.63447 -15373362.58343  24591916.6174                   24591921.7114
 -33242381.83346 -25892397.27342  24323473.3054                   24323468.5124
 -22115757.71547 -17218264.01646  21316297.9774                   21316295.7154
  -9187727.51246  -7144223.91043  24415579.5164                   24415580.6994
 -32178731.56048 -25064986.60847  20284822.5864                   20284820.3794
  -9174801.08147  -7061641.62845  22702334.0864                   22702331.3444
 11  9 22  2 13 30.0000000  0  9G18G15G05G25G02G26G30G29G21
  -5387471.96347  -4183228.09045  22307754.7504                   22307752.3874
 -19351245.14947 -15063987.42346  20761427.5474                   20761425.5904
 -31387104.34446 -24441556.11844  23696525.5864                   23696522.3954
 -19745237.54847 -15369912.23843  24592759.6954                   24592764.5474
 -33247317.64746 -25896243.36943  24322533.5704                   24322529.9024
 -22165535.89547 -17257052.19945  21306825.3754                   21306823.6994
  -9190176.52245  -7146132.32043  24415112.4924                   24415114.4384
 -32241946.73048 -25114245.17547  20272793.2584                   20272791.0274
  -9315215.54347  -7171055.41345  22675614.8284                   22675611.7624
 11  9 22  2 14  0.0000000  0  8G18G15G05G25G26G30G29G21
  -5515394.64347  -4282908.01045  22283411.9534                   22283410.1254
 -19459285.92848 -15148175.02146  20740868.1024                   20740865.6604
 -31377370.99546 -24433971.70544  23698376.8204                   23698375.5274
 -19740907.77647 -15366538.51543  24593582.8984                   24593590.0004
 -22214633.91447 -17295310.39045  21297482.0004                   21297479.8594
  -9192579.14746  -7148004.53542  24414655.5164                   24414658.6454
 -32304605.32048 -25163070.03847  20260869.9844                   20260867.3014
  -9455634.31347  -7280472.59945  22648893.7894                   22648890.8524
 11  9 22  2 14 30.0000000  0  8G18G15G05G25G26G30G29G21
  -5643068.30347  -4382393.90445  22259116.4384                   22259113.4264
 -19566761.98348 -15231922.56046  20720416.0474                   20720413.4574
 -31367653.41846 -24426399.59144  23700225.9924                   23700225.1684
 -19736680.92147 -15363244.96043  24594388.1644                   24594393.5554
 -22263054.53447 -17333040.71945  21288267.7734                   21288266.0234
  -9194940.20846  -7149844.40242  24414205.7814                   24414207.2894
 -32366708.98648 -25211462.50247  20249051.5394                   20249049.4804
  -9596058.63447  -7389894.07545  22622171.9694                   22622168.7664
 11  9 22  2 15  0.0000000  0  8G18G15G05G25G26G30G29G21
  -5770488.19647  -4481682.04345  22234868.6954                   22234865.9344
 -19673667.37948 -15315225.42846  20700072.4534                   20700070.1094
 -31357947.93946 -24418836.87344  23702072.0084                   23702072.0434
 -19732554.64647 -15360029.84643  24595173.1254                   24595178.5634
 -22310793.83347 -17370240.15845  21279183.6094                   21279181.3244
  -9197258.04045  -7151650.60542  24413765.6954                   24413766.7664
 -32428252.99848 -25259418.86647  20237340.6174                   20237338.0944
  -9736482.65247  -7499315.32545  22595449.9774                   22595447.2584
 11  9 22  2 15 30.0000000  0  8G18G15G05G25G26G30G29G21
  -5897654.64847  -4580772.72745  22210669.6094                   22210667.8554
 -19780000.12547 -15398082.07846  20679837.8444                   20679835.5124
 -31348255.25846 -24411284.20044  23703917.7274                   23703916.1254
 -19728531.03246 -15356894.66343  24595939.0164                   24595944.0514
 -22357852.42547 -17406909.17845  21270228.6174                   21270226.9494
  -9199534.93646  -7153424.90642  24413332.4384                   24413333.0234
 -32489236.80348 -25306938.70647  20225735.3364                   20225733.2704
  -9876905.52447  -7608735.67845  22568728.7424                   22568725.6334
 11  9 22  2 16  0.0000000  0  8G18G15G05G25G26G30G29G21
  -6024574.54947  -4679671.25645  22186517.6484                   22186515.4694
 -19885766.55048 -15480497.43846  20659711.6254                   20659709.2704
 -31338583.57747 -24403747.80944  23705758.1804                   23705756.5984
 -19724619.88746 -15353847.22943  24596683.1174                   24596688.7464
 -22404238.25047 -17443053.94946  21261401.4454                   21261399.8554
  -9201781.12445  -7155175.27742  24412904.4144                   24412907.0204
 -32549667.54848 -25354027.59047  20214235.9924                   20214233.6454
 -10017333.41447  -7718159.96045  22542006.1094                   22542003.5204
 11  9 22  2 16 30.0000000  0  8G18G15G05G25G26G30G29G21
  -6151247.59648  -4778377.44545  22162412.3984                   22162409.9454
 -19990964.38348 -15562469.74046  20639692.9454                   20639690.6604
 -31328933.58347 -24396228.34344  23707594.6804                   23707592.5474
 -19720823.06646 -15350888.75743  24597406.6254                   24597411.5084
 -22449951.78047 -17478674.87645  21252702.5234                   21252700.6644
  -9203998.82046  -7156903.40642  24412482.0864                   24412484.7734
 -32609544.12648 -25400684.65147  20202841.5314                   20202839.3754
 -10157764.74647  -7827586.90345  22515282.4224                   22515279.3834
 11  9 22  2 17  0.0000000  0  8G18G15G05G25G26G30G29G21
  -6277676.48048  -4876893.37045  22138354.1804                   22138350.8554
 -20095595.08048 -15644000.12446  20619782.0164                   20619780.5204
 -31319308.89747 -24388728.61744  23709426.5554                   23709423.7154
 -19717145.57646 -15348023.40543  24598106.0084                   24598111.4304
 -22494996.53647 -17513774.67245  21244130.8594                   21244129.1914
  -9206193.61346  -7158613.66042  24412065.3984                   24412066.6564
 -32668869.67348 -25446912.34247  20191552.1174                   20191550.5084
 -10298200.00747  -7937016.91745  22488558.6334                   22488555.5744
 11  9 22  2 17 30.0000000  0  8G18G15G05G25G26G30G29G21
  -6403863.08047  -4975220.51545  22114341.4534                   22114338.6254
 -20199659.35648 -15725089.13346  20599979.5004                   20599977.1294
 -31309712.45247 -24381250.81944  23711252.8054                   23711250.3594
 -19713591.83645 -15345254.38342  24598781.5164                   24598788.3874
 -22539375.48347 -17548355.64545  21235686.0704                   21235684.0704
  -9208370.06346  -7160309.59442  24411651.6174                   24411652.1134
 -32727645.55748 -25492711.72647  20180368.2194                   20180365.1724
 -10438641.41147  -8046451.72745  22461833.0004                   22461830.0004
 11  9 22  2 18  0.0000000  0  7G18G15G05G26G30G29G21
  -6529807.79548  -5073359.17445  22090374.7034                   22090372.5354
 -20303156.58048 -15805736.28146  20580284.5234                   20580282.0314
 -31300145.83047 -24373796.34644  23713072.3594                   23713070.9024
 -22583090.07047 -17582418.93545  21227367.2734                   21227365.2304
  -9210531.93246  -7161994.22342  24411239.9144                   24411239.4184
 -32785872.73148 -25538083.53347  20169287.6254                   20169285.7154
 -10579088.54248  -8155891.00745  22435107.2504                   22435103.8594
 11  9 22  2 18 30.0000000  0  7G18G15G05G26G30G29G21
  -6655507.85448  -5171307.16745  22066454.2974                   22066452.3524
 -20406082.02248 -15885937.90346  20560698.7894                   20560696.0204
 -31290606.59647 -24366363.17044  23714887.9304                   23714886.3754
 -22626137.62347 -17615962.48045  21219175.9384                   21219173.8754
  -9212678.05946  -7163666.50842  24410831.0314                   24410832.9304
 -32843547.47948 -25583024.89247  20158312.1024                   20158310.2704
 -10719536.33048  -8265330.78445  22408380.6724                   22408377.5434
 11  9 22  2 19  0.0000000  0  7G18G15G05G26G30G29G21
  -5205537.76648  -4041460.26645  22342374.8444                   22342372.8404
 -18933009.85148 -14738089.42646  20841014.6954                   20841012.2664
 -29705675.08547 -23131351.66044  24016489.9844                   24016489.4104
 -21093097.19648 -16421385.51245  21510903.8444                   21510902.0164
  -7639390.50746  -5937728.16042  24710218.8444                   24710219.6564
 -31325246.94948 -24399933.57547  20447235.0164                   20447233.0474
  -9284557.87747  -7147165.70245  22681447.7894                   22681444.9184
 11  9 22  2 19 30.0000000  0  7G18G15G05G26G30G29G21
  -5330747.23448  -4139026.01845  22318548.3444                   22318546.3284
 -19034787.36048 -14817396.54146  20821646.8524                   20821644.2154
 -29696192.85247 -23123962.90744  24018295.5864                   24018293.7234
 -21134813.76848 -16453891.91345  21502965.1954                   21502962.6724
  -7641513.43146  -5939382.44542  24709814.3284                   24709816.7894
 -31381816.30848 -24444013.59847  20436470.3594                   20436468.1414
  -9425003.34347  -7256603.65545  22654722.2504                   22654719.2114
 11  9 22  2 20  0.0000000  0  7G18G15G05G26G30G29G21
  -5455715.41848  -4236403.74145  22294767.9454                   22294765.7774
 -19135992.55548 -14896257.70046  20802388.7034                   20802386.3524
 -29686744.09547 -23116600.22544  24020092.8674                   24020091.3484
 -21175869.82348 -16485883.63745  21495152.5784                   21495150.2194
  -7643632.35146  -5941033.60542  24709410.8054                   24709413.1724
 -31437836.70848 -24487665.85747  20425809.9144                   20425808.2114
  -9565449.26047  -7366041.99345  22627995.8914                   22627993.2274
 11  9 22  2 20 30.0000000  0  7G18G15G05G26G30G29G21
  -5580445.43848  -4333595.88445  22271032.5474                   22271029.8484
 -19236627.58748 -14974674.57846  20783238.5314                   20783235.6914
 -29677332.75847 -23109266.65744  24021883.7734                   24021882.2424
 -21216269.43248 -16517363.83045  21487464.9144                   21487462.5554
  -7645753.03945  -5942686.18442  24709007.4064                   24709010.0474
 -31493310.74648 -24530892.38647  20415253.7734                   20415251.5434
  -9705897.92247  -7475482.44045  22601269.6484                   22601266.8164
 11  9 22  2 21  0.0000000  0  7G18G15G05G26G30G29G21
  -5704937.82548  -4430602.86745  22247341.9614                   22247339.1294
 -19336691.68448 -15052646.56846  20764196.8984                   20764194.7114
 -29667960.54546 -23101963.62444  24023667.1024                   24023664.9494
 -21256014.63548 -16548334.09845  21479901.4224                   21479899.6844
  -7647878.99045  -5944342.91842  24708603.8284                   24708605.8444
 -31548239.32748 -24573693.87847  20404801.0004                   20404798.9494
  -9846349.06547  -7584924.84845  22574542.5634                   22574539.6134
 11  9 22  2 21 30.0000000  0  7G18G15G05G26G30G29G21
  -5829196.68848  -4527427.88845  22223696.2974                   22223693.9224
 -19436187.78648 -15130175.97247  20745263.1884                   20745260.6644
 -29658632.03946 -23094694.67643  24025442.1804                   24025440.8914
 -21295110.35648 -16578798.28445  21472461.5394                   21472460.0234
  -7650016.91345  -5946008.94942  24708195.7974                   24708198.6524
 -31602626.64148 -24616073.60747  20394451.6804                   20394449.5044
  -9986804.91347  -7694370.92845  22547814.7584                   22547811.1804
 11  9 22  2 22  0.0000000  0  7G18G15G05G26G30G29G21
  -5953221.98448  -4624070.91745  22200095.0634                   22200093.0434
 -19535114.74248 -15207261.87346  20726438.1174                   20726435.2664
 -29649347.97246 -23087460.34044  24027209.9844                   24027208.4104
 -21333557.62847 -16608757.18645  21465145.5634                   21465143.7974
  -7652169.26345  -5947686.21942  24707788.2584                   24707788.7544
 -31656472.56748 -24658031.48647  20384205.0164                   20384203.0474
 -10127264.31747  -7803819.78045  22521086.0634                   22521083.1844
 11  9 22  2 22 30.0000000  0  7G18G15G05G26G30G29G21
  -6077013.87047  -4720532.02945  22176538.3834                   22176536.0904
 -19633471.08648 -15283903.15346  20707720.9614                   20707718.7384
 -29640109.15446 -23080261.37244  24028967.2034                   24028966.5434
 -21371357.50647 -16638211.63245  21457952.4924                   21457950.3284
  -7654338.65145  -5949376.79342  24707375.1724                   24707374.8244
 -31709776.90748 -24699567.32147  20374061.5084                   20374059.7344
 -10267726.06847  -7913270.42945  22494357.0474                   22494354.4694
 11  9 22  2 23  0.0000000  0  7G18G15G05G26G30G29G21
  -6200572.54048  -4816811.45045  22153025.9454                   22153023.1174
 -19731256.60348 -15360099.63146  20689113.5314                   20689110.7704
 -29630916.95146 -23073098.69644  24030717.2504                   24030715.5594
 -21408511.65147 -16667162.90145  21450882.0704                   21450880.4064
                                  24706955.539
 -31762540.37548 -24740681.70147  20364021.4534                   20364018.8634
 -10408189.41547  -8022722.35345  22467627.8364                   22467624.3714
 11  9 22  2 23 30.0000000  0  7G18G15G05G26G30G29G21
  -6323897.78047  -4912908.98145  22129557.7194                   22129555.1334
 -19828469.71448 -15435850.08146  20670614.1484                   20670612.1214
 -29621771.70446 -23065972.50544  24032456.2194                   24032455.2544
 -21445021.26047 -16695611.92345  21443934.6954                   21443933.1214
  -7658740.03315                  24706537.953
 -31814762.71448 -24781374.42047  20354083.5864                   20354081.5664
 -10548652.76147  -8132174.28745  22440898.1254                   22440894.9024
 11  9 22  2 24  0.0000000  0  7G18G15G05G26G30G29G21
  -6446990.52847  -5008825.32445  22106133.7344                   22106131.1884
 -19925109.84148 -15511154.04246  20652224.0784                   20652221.4144
 -29612674.52146 -23058883.87444  24034187.2504                   24034187.0314
 -21480887.64847 -16723559.74645  21437109.3754                   21437106.8594
  -7660977.522 5                  24706111.266
 -31866444.50248 -24821645.93447  20344248.9614                   20344246.7274
 -10689115.27147  -8241625.52245  22414169.2584                   22414166.0434
 11  9 22  2 24 30.0000000  0  7G18G15G05G26G30G29G21
  -6569849.26948  -5104559.34645  22082754.1644                   22082751.5204
 -20021174.95148 -15586009.94746  20633943.4534                   20633940.9264
 -29603625.26246 -23051832.43844  24035909.6254                   24035907.7304
 -21516111.00947 -16751006.49445  21430406.7584                   21430404.4924
                                  24705679.500
 -31917584.73148 -24861495.45447  20334517.0704                   20334515.0084
 -10829574.88547  -8351074.53245  22387440.5864                   22387437.0664
 11  9 22  2 25  0.0000000  0  7G18G15G05G26G30G29G21
  -6692476.22647  -5200112.73945  22059419.3834                   22059416.9264
 -20116665.49848 -15660418.12346  20615772.2194                   20615769.7194
 -29594626.47546 -23044820.45544  24037622.6024                   24037619.5124
 -21550694.46247 -16777954.63045  21423825.9614                   21423823.5664
                                  24705242.500
 -31968185.58548 -24900924.68447  20324888.1954                   20324886.2544
 -10970031.69747  -8460521.35445  22360712.5164                   22360709.2734
 11  9 22  2 25 30.0000000  0  7G18G15G05G26G30G29G21
  -6814870.79547  -5295485.07945  22036128.3444                   22036125.4924
 -20211580.18748 -15734377.58946  20597710.2974                   20597707.8324
 -29585678.39446 -23037847.92944  24039325.7034                   24039322.7344
 -21584638.71447 -16804404.67745  21417366.3914                   21417364.4654
  -7667867.26015                  24704800.508
 -32018246.58948 -24939933.25447  20315361.6644                   20315359.4804
 -11110483.81047  -8569964.52145  22333985.5634                   22333981.8094
 11  9 22  2 26  0.0000000  0  7G18G15G05G26G30G29G21
  -6937034.58947  -5390677.57845  22012880.8674                   22012878.6684
 -20305919.89047 -15807889.01446  20579758.3134                   20579755.3754
 -29576783.23747 -23030916.68044  24041018.2664                   24041015.3794
 -21617946.74247 -16830358.94845  21411028.0634                   21411025.6564
  -7670234.22015                  24704350.828
 -32067769.29548 -24978522.36547  20305938.0234                   20305936.0394
 -11250931.65047  -8679404.35745  22307258.9774                   22307256.0824
 11  9 22  2 26 30.0000000  0  7G18G15G05G26G30G29G21
  -7058967.43747  -5485690.12045  21989678.1024                   21989675.3164
 -20399683.54248 -15880951.57246  20561915.6644                   20561912.6524
 -29567941.76847 -23024027.20344  24042700.2344                   24042698.0004
 -21650619.99847 -16855818.62045  21404810.5084                   21404808.5474
  -7672641.57715                  24703892.500
 -32116754.34948 -25016692.52647  20296616.2664                   20296614.4414
 -11391374.08447  -8788839.96345  22280533.5234                   22280530.4964
 11  9 22  2 27  0.0000000  0  7G18G15G05G26G30G29G21
  -7180672.31247  -5580525.03445  21966518.5234                   21966515.5514
 -20492872.31248 -15953566.17246  20544182.4614                   20544179.6844
 -29559156.98947 -23017181.93344  24044371.9924                   24044370.4344
 -21682662.04047 -16880786.41145  21398713.1174                   21398710.5944
  -7675093.92315                  24703425.992
 -32165203.92048 -25054445.44047  20287396.5474                   20287394.4884
 -11531811.67247  -8898271.79445  22253808.5944                   22253806.2344
 11  9 22  2 27 30.0000000  0  6G18G15G05G26G29G21
  -7302145.22447  -5675179.17145  21943403.0864                   21943400.3164
 -20585481.48747 -16025729.12546  20526559.2344                   20526556.3204
 -29550425.49146 -23010378.18344  24046033.7584                   24046033.4924
 -21714070.31647 -16905260.38045  21392736.2274                   21392733.9804
 -32213114.59448 -25091778.42647  20278279.6174                   20278277.1724
 -11672239.24747  -9007695.80745  22227086.2194                   22227083.4964
 11  9 22  2 28  0.0000000  0  6G18G15G05G26G29G21
  -7423389.87247  -5769655.45145  21920330.7344                   21920328.4454
 -20677513.56248 -16097442.39946  20509046.5634                   20509043.7034
 -29541751.49847 -23003619.21744  24047684.5554                   24047684.2194
 -21744850.05747 -16929244.57545  21386879.2114                   21386877.4694
 -32260490.14348 -25128694.44147  20269264.5314                   20269262.3404
 -11812659.00547  -9117113.74445  22200366.1414                   22200362.9064
 11  9 22  2 28 30.0000000  0  6G18G15G05G26G29G21
  -7544406.35447  -5863953.94345  21897301.9144                   21897300.0274
 -20768968.22548 -16168705.74046  20491643.2274                   20491640.3634
 -29533136.05046 -22996905.87444  24049323.7114                   24049323.1414
 -21775002.60847 -16952740.04345  21381141.0474                   21381139.1214
 -32307331.05148 -25165193.85647  20260350.8364                   20260348.6724
 -11953070.06748  -9226524.88945  22173646.4534                   22173643.0274
 11  9 22  2 29  0.0000000  0  6G18G15G05G26G29G21
  -7665190.51147  -5958071.38945  21874317.6644                   21874314.8444
 -20859840.36448 -16239515.18346  20474350.5394                   20474347.7344
 -29524575.60146 -22990235.43043  24050952.9534                   24050952.3834
 -21804525.35847 -16975744.76345  21375522.9454                   21375520.7464
 -32353633.30648 -25201273.52347  20251539.7194                   20251537.4924
 -12093466.32247  -9335924.49245  22146930.3054                   22146926.4694
 11  9 22  2 29 30.0000000  0  6G18G15G05G26G29G21
  -6210318.35747  -4824404.71745  22151170.3594                   22151167.2624
 -19374706.03247 -15082267.62046  20756962.4064                   20756959.6214
 -27940650.46046 -21756008.15743  24352363.9304                   24352362.7544
 -20257998.75947 -15770659.08545  21669817.3364                   21669814.6804
 -30823975.93848 -24009332.71047  20542623.8914                   20542621.3444
 -10658421.71947  -8217707.83845  22420009.2974                   22420006.4104
 11  9 22  2 30  0.0000000  0  6G18G15G05G26G29G21
  -6330641.23847  -4918162.73645  22128273.6564                   22128271.1054
 -19464413.59848 -15152169.57746  20739891.5314                   20739888.6724
 -27932204.07446 -21749426.43443  24353970.6884                   24353969.3284
 -20286269.42347 -15792688.15445  21664437.2194                   21664435.7504
 -30869205.30148 -24044576.36547  20534017.1484                   20534015.1374
 -10798787.27348  -8327083.53645  22393298.6564                   22393295.5394
 11  9 22  2 30 30.0000000  0  6G18G15G05G26G29G21
  -6450739.69447  -5011745.89045  22105419.7584                   22105416.7274
 -19553543.80548 -15221621.65946  20722930.9304                   20722928.0594
 -27923822.04746 -21742894.94943  24355565.8204                   24355564.6994
 -20313922.41847 -15814235.91145  21659175.1334                   21659172.5904
 -30913904.54048 -24079406.91947  20525511.1334                   20525508.4694
 -10939141.53948  -8436450.40745  22366589.9144                   22366587.5274
 11  9 22  2 31  0.0000000  0  6G18G15G05G26G29G21
  -6570616.98548  -5105156.68445  22082607.7974                   22082604.6134
 -19642098.96948 -15290625.65046  20706078.8914                   20706076.2114
 -27915508.06346 -21736416.55143  24357147.5314                   24357148.1994
 -20340962.45147 -15835306.04445  21654029.5474                   21654027.0944
 -30958077.31248 -24113827.26047  20517105.5554                   20517103.4224
 -11079486.09647  -8545809.71945  22339883.3984                   22339880.0004
 11  9 22  2 31 30.0000000  0  6G18G15G05G26G29G21
  -6690276.31648  -5198397.65345  22059837.4614                   22059834.4144
 -19730081.15248 -15359183.17246  20689336.9774                   20689334.1374
 -27907265.22646 -21729993.54544  24358715.9614                   24358716.3364
 -20367393.87447 -15855901.95045  21649000.4614                   21648997.8014
 -31001727.06648 -24147840.04947  20508799.0944                   20508796.4184
 -11219822.27048  -8655162.52445  22313178.1174                   22313174.8954
 11  9 22  2 32  0.0000000  0  6G18G15G05G26G29G21
  -6809716.63447  -5291467.96745  22037108.1094                   22037105.5474
 -19817488.97548 -15427293.14446  20672703.1804                   20672700.6994
 -27899093.30646 -21723625.86143  24360271.6174                   24360270.6954
 -20393217.29247 -15876024.07145  21644086.0004                   21644083.6564
 -31044853.46948 -24181445.03847  20500592.2504                   20500589.9844
 -11360147.66547  -8764506.92145  22286475.0004                   22286471.0944
 11  9 22  2 32 30.0000000  0  6G18G15G05G26G29G21
  -6928940.06148  -5384369.26345  22014420.8914                   22014418.4064
 -19904323.70748 -15494956.53547  20656179.5474                   20656177.0004
 -27890995.20346 -21717315.64244  24361813.0004                   24361811.1294
 -20418436.47147 -15895675.37245  21639286.8284                   21639284.8594
 -31087458.69848 -24214643.92847  20492484.9614                   20492482.6454
 -11500462.94448  -8873843.44545  22259774.2734                   22259770.9264
 11  9 22  2 33  0.0000000  0  6G18G15G05G26G29G21
  -7047944.83948  -5477100.19345  21991775.1644                   21991772.5044
 -19990583.00648 -15562171.54147  20639764.4774                   20639762.0664
 -27882969.13746 -21711061.65944  24363339.9384                   24363337.3954
 -20443051.07047 -15914855.57345  21634602.6094                   21634600.9064
 -31129541.64548 -24247435.82247  20484476.9064                   20484474.1254
 -11640764.69447  -8983169.42945  22233076.0084                   22233071.8054
 11  9 22  2 33 30.0000000  0  6G18G15G05G26G29G21
  -7166733.39548  -5569662.64345  21969170.0864                   21969166.8714
 -20076268.42148 -15628939.37047  20623459.3594                   20623456.7194
 -27875017.68746 -21704865.79144  24364853.5004                   24364851.0904
 -20467065.36147 -15933567.97445  21630033.3524                   21630030.9574
 -31171104.73648 -24279822.65447  20476567.6954                   20476565.4964
 -11781053.43247  -9092485.26945  22206379.6174                   22206376.1484
 11  9 22  2 34  0.0000000  0  6G18G15G05G26G29G21
  -7285305.18848  -5662056.17145  21946606.8674                   21946603.5204
 -20161378.87548 -15695259.17247  20607263.5944                   20607260.8634
 -27867141.60946 -21698728.58344  24366352.7424                   24366350.6214
 -20490480.52847 -15951813.54845  21625577.5314                   21625574.6214
 -31212148.33348 -24311804.67847  20468757.2194                   20468755.0274
 -11921327.53147  -9201789.69545  22179685.7974                   22179683.1684
 11  9 22  2 34 30.0000000  0  6G18G15G05G26G29G21
  -7403661.42848  -5754281.75845  21924084.5784                   21924081.1054
 -20245914.27448 -15761130.88447  20591176.3364                   20591174.2544
 -27859341.40246 -21692650.47044  24367836.5394                   24367835.1684
 -20513298.68047 -15969593.91345  21621234.9614                   21621232.2624
 -31252673.08148 -24343382.41247  20461045.2974                   20461043.3404
 -12061585.20348  -9311081.33545  22152995.9694                   22152992.6374
 11  9 22  2 35  0.0000000  0  6G18G15G05G26G29G21
  -7521803.04748  -5846340.08845  21901602.7894                   21901599.6844
 -20329875.38948 -15826555.09647  20575199.7974                   20575197.1214
 -27851619.21946 -21686633.18744  24369305.7734                   24369304.6684
 -20535522.73447 -15986911.34845  21617005.9384                   21617004.0904
 -31292681.04648 -24374557.44047  20453432.5164                   20453430.0314
 -12201827.14547  -9420360.72445  22126308.9534                   22126305.3244
 11  9 22  2 35 30.0000000  0  6G18G15G05G26G29G21
  -7639730.58348  -5938231.61745  21879161.7274                   21879158.3984
 -20413262.12948 -15891531.75647  20559331.1254                   20559328.5704
 -27843974.95346 -21680676.63444  24370760.8444                   24370757.7074
 -20557154.81547 -16003767.50345  21612889.3284                   21612887.6294
 -31332173.18148 -24405330.54047  20445917.3914                   20445915.3484
 -12342051.38147  -9529626.31645  22099624.8674                   22099621.9844
 11  9 22  2 36  0.0000000  0  6G18G15G05G26G29G21
  -7757445.38148  -6029957.36845  21856761.3834                   21856757.8244
 -20496075.06948 -15956061.29547  20543571.9694                   20543570.2194
 -27836410.71246 -21674782.39844  24372200.2344                   24372197.6844
 -20578197.96047 -16020164.76145  21608885.4224                   21608883.7034
 -31371151.10948 -24435702.94447  20438499.9844                   20438498.1564
 -12482257.76747  -9638877.99145  22072944.1954                   22072940.8594
 11  9 22  2 36 30.0000000  0  6G18G15G05G26G29G21
  -7874946.25148  -6121516.43245  21834401.8134                   21834398.0664
 -20578312.80748 -16020142.61846  20527923.1884                   20527920.4964
 -27828926.04946 -21668950.19544  24373624.5634                   24373621.7814
 -20598652.79847 -16036103.57545  21604993.3364                   21604991.0434
 -31409614.56148 -24465674.46347  20431180.6094                   20431178.1174
 -12622443.47047  -9748113.56945  22046267.6484                   22046264.0394
 11  9 22  2 37  0.0000000  0  6G18G15G05G26G29G21
  -7992233.43048  -6212908.97945  21812081.9774                   21812079.2934
 -20659973.97547 -16083774.67346  20512383.4774                   20512380.9414
 -27821521.05646 -21663180.11244  24375032.7734                   24375031.7344
 -20618520.84047 -16051585.15545  21601211.6254                   21601209.2114
 -31447563.75748 -24495245.27547  20423959.2734                   20423957.2344
 -12762606.78347  -9857331.70345  22019596.0394                   22019591.8954
 11  9 22  2 37 30.0000000  0  6G18G15G05G26G29G21
  -8109308.94548  -6304136.59845  21789803.7974                   21789800.8164
 -20741060.94648 -16146959.29446  20496953.5004                   20496949.9614
 -27814198.00346 -21657473.88143  24376427.4924                   24376424.8444
 -20637806.22647 -16066612.71745  21597542.0004                   21597539.1884
 -31485001.41548 -24524417.48447  20416835.1724                   20416833.1484
 -12902747.89247  -9966532.53645  21992927.9774                   21992924.2704
 11  9 22  2 38  0.0000000  0  6G18G15G05G26G29G21
  -8226173.17148  -6395199.55945  21767564.9534                   21767561.4024
 -20821573.44448 -16209696.27046  20481632.1254                   20481628.9104
 -27806957.54546 -21651831.98543  24377805.2344                   24377803.7194
 -20656510.87947 -16081187.77145  21593982.7194                   21593980.0984
 -31521928.80548 -24553192.06847  20409807.8444                   20409805.9574
 -13042865.55547 -10075715.08645  21966264.2114                   21966261.3134
 11  9 22  2 38 30.0000000  0  6G18G15G05G26G29G21
  -8342825.21048  -6486097.19645  21745366.9224                   21745363.5824
 -20901509.52448 -16271984.10746  20466420.5314                   20466418.2274
 -27799799.18146 -21646254.00843  24379165.8364                   24379164.9534
 -20674635.58347 -16095310.90545  21590533.8754                   21590531.5124
 -31558345.18448 -24581568.46447  20402878.1334                   20402876.0004
 -13182956.99047 -10184877.22045  21939606.2814                   21939602.4414
 11  9 22  2 39  0.0000000  0  7G18G15G05G22G26G29G21
  -8459268.52948  -6576832.18145  21723208.6254                   21723206.0904
 -20980872.30647 -16333825.21147  20451318.6484                   20451315.9184
 -27792726.36146 -21640742.74443  24380512.9384                   24380510.0124
  23410988.70056  18255804.93553  24533968.2584                   24533964.2464
 -20692185.65747 -16108986.27645  21587193.8284                   21587191.4024
 -31594254.55648 -24609549.79347  20396044.7344                   20396042.4024
 -13323023.99047 -10294020.29945  21912951.8914                   21912948.1724
 11  9 22  2 39 30.0000000  0  7G18G15G05G22G26G29G21
  -7000081.44148  -5439803.22045  22000882.7114                   22000879.2154
 -19484241.42448 -15167619.30046  20736117.8914                   20736115.5514
 -26210321.69946 -20407700.21043  24681634.0784                   24681630.0124
  24834264.78145  19364851.60043  24804806.8524                   24804806.2154
 -19133744.59247 -14894616.61045  21883755.2664                   21883753.7464
 -30054238.51448 -23409537.27047  20689100.2034                   20689097.9574
 -11887641.82847  -9175540.66845  22186095.7424                   22186092.2274
 11  9 22  2 40  0.0000000  0  7G18G15G05G22G26G29G21
  -7116112.49948  -5530216.97345  21978802.5704                   21978798.7074
 -19562462.33848 -15228570.63747  20721232.5704                   20721230.1724
 -26203425.85446 -20402326.91543  24682946.1094                   24682942.1024
  24682242.95646  19246393.30843  24775880.1484                   24775877.5274
 -19150156.12747 -14907404.81845  21880631.8674                   21880630.6684
 -30089141.17948 -23436734.15347  20682458.2974                   20682456.1644
 -12027659.19848  -9284645.07145  22159452.0554                   22159447.9064
 11  9 22  2 40 30.0000000  0  7G18G15G05G22G26G29G21
  -7231936.56648  -5620469.43245  21956761.9844                   21956758.3914
 -19640110.29048 -15289075.51346  20706456.9064                   20706454.3524
 -26196617.91146 -20397021.98042  24684242.9924                   24684236.9384
  24530350.97945  19128036.15943  24746973.6804                   24746973.4494
 -19165999.86547 -14919750.57545  21877617.6724                   21877615.5314
 -30123540.13748 -23463538.52747  20675912.3674                   20675910.4344
 -12167647.78448  -9393727.05745  22132812.1484                   22132808.8134
 11  9 22  2 41  0.0000000  0  7G18G15G05G22G26G29G21
  -7347547.72848  -5710555.98345  21934761.5164                   21934758.4654
 -19717179.23848 -15349129.19846  20691791.2894                   20691788.8204
 -26189892.45146 -20391781.27143  24685522.0314                   24685516.2424
  24378594.90346  19009784.96843  24718095.7814                   24718093.7774
 -19181272.02847 -14931650.94545  21874711.2894                   21874708.5864
 -30157430.40248 -23489946.52546  20669463.1174                   20669461.0944
 -12307600.51148  -9502781.11345  22106180.4384                   22106176.4924
 11  9 22  2 41 30.0000000  0  7G18G15G05G22G26G29G21
  -7462944.14248  -5800475.21345  21912801.9304                   21912799.2234
 -19793666.76048 -15408729.85547  20677236.1644                   20677233.2154
 -26183247.13546 -20386603.07443  24686786.5234                   24686783.0704
  24226977.98546  18891642.10043  24689243.8674                   24689242.3634
 -19195972.70447 -14943106.01845  21871913.6644                   21871911.8714
 -30190811.01648 -23515957.40446  20663111.3364                   20663109.4844
 -12447513.37148  -9611804.09145  22079556.3834                   22079552.0124
 11  9 22  2 42  0.0000000  0  7G18G15G05G22G26G29G21
  -7578127.13448  -5890228.13445  21890883.7894                   21890880.3794
 -19869574.09448 -15467878.40247  20662791.4454                   20662788.8794
 -26176683.66846 -20381488.74243  24688035.5474                   24688032.7584
  24075499.36145  18773607.07443  24660418.2584                   24660416.3794
 -19210104.70547 -14954117.97545  21869224.8054                   21869223.3954
 -30223683.60948 -23541572.41547  20656855.8914                   20656853.4804
 -12587385.58748  -9720795.39845  22052939.5864                   22052935.5434
 11  9 22  2 42 30.0000000  0  7G18G15G05G22G26G29G21
  -7693095.09648  -5979813.51345  21869005.9924                   21869002.5434
 -19944899.05248 -15526573.15347  20648457.6804                   20648455.4964
 -26170200.64146 -20376437.06443  24689269.5474                   24689266.1484
  23924161.53646  18655681.67643  24631620.2584                   24631616.4774
 -19223668.39147 -14964687.06245  21866642.9384                   21866642.0354
 -30256047.50848 -23566791.04646  20650697.2274                   20650694.5944
 -12727213.41348  -9829752.11946  22026330.6414                   22026327.2034
 11  9 22  2 43  0.0000000  0  7G18G15G05G22G26G29G21
  -7807846.53148  -6069230.15545  21847169.8914                   21847166.2034
 -20019639.77148 -15584812.64847  20634234.8834                   20634231.9804
 -26163796.71846 -20371446.99543  24690488.4534                   24690484.3874
  23772966.45446  18537867.58243  24602847.0004                   24602843.9064
 -19236664.36747 -14974813.80245  21864170.6564                   21864168.3634
 -30287901.69548 -23591612.51447  20644635.6414                   20644633.0474
 -12866993.60548  -9938671.70046  21999731.4694                   21999727.3714
 11  9 22  2 43 30.0000000  0  7G18G15G05G22G26G29G21
  -7922382.95748  -6158479.27445  21825374.0634                   21825370.6024
 -20093797.62648 -15642597.97347  20620122.9774                   20620120.4414
 -26157473.44147 -20366519.76544  24691691.6484                   24691687.8984
  23621913.47546  18420164.18543  24574103.5234                   24574101.0864
 -19249095.99647 -14984500.77345  21861805.2664                   21861803.0824
 -30319248.66148 -23616038.73147  20638670.3984                   20638667.9884
 -13006726.28947 -10047554.29045  21973141.2274                   21973137.7584
 11  9 22  2 44  0.0000000  0  7G18G15G05G22G26G29G21
  -8036704.16848  -6247560.67945  21803619.1564                   21803616.5124
 -20167372.12248 -15699928.73346  20606122.4774                   20606120.3014
 -26151230.75146 -20361655.28544  24692879.4774                   24692876.9574
  23471003.72546  18302572.41443  24545386.3754                   24545384.2894
 -19260965.20747 -14993749.51545  21859546.5704                   21859544.3054
 -30350088.80048 -23640070.02546  20632801.7114                   20632799.4184
 -13146409.07047 -10156397.98245  21946560.5784                   21946556.8244
 11  9 22  2 44 30.0000000  0  7G18G15G05G22G26G29G21
  -8150812.30947  -6336476.08446  21781905.1094                   21781902.5234
 -20240364.84848 -15756806.15747  20592231.9224                   20592228.9384
 -26145070.52846 -20356855.08944  24694051.5004                   24694049.3404
  23320235.88746  18185091.12343  24516696.0864                   24516693.0274
 -19272275.58747 -15002562.81145  21857394.2814                   21857391.6294
 -30380424.96448 -23663708.61246  20627028.8984                   20627026.8914
 -13286041.70847 -10265202.60745  21919989.5634                   21919985.8134
 11  9 22  2 45  0.0000000  0  7G18G15G05G22G26G29G21
  -8264705.52648  -6425223.99746  21760232.0314                   21760229.1094
 -20312774.27748 -15813229.06747  20578452.6954                   20578450.3014
 -26138991.55646 -20352118.23744  24695207.8134                   24695206.3094
  23169612.24446  18067722.20243  24488032.4844                   24488030.3524
 -19283027.56047 -15010940.95145  21855347.7424                   21855345.4654
 -30410256.38348 -23686953.87646  20621352.4144                   20621349.8014
 -13425620.45947 -10373965.22646  21893427.6024                   21893424.2584
 11  9 22  2 45 30.0000000  0  7G18G15G05G22G26G29G21
  -8378384.28348  -6513804.80045  21738599.8984                   21738596.2854
 -20384600.72448 -15869197.71747  20564785.4064                   20564782.9884
 -26132994.18846 -20347444.99843  24696349.6334                   24696347.6054
  23019132.81746  17950465.78143  24459396.5784                   24459394.6724
 -19293223.95747 -15018886.19745  21853407.4534                   21853405.5044
 -30439584.09248 -23709806.63546  20615771.5164                   20615769.0314
 -13565144.37247 -10482685.13446  21866877.4304                   21866873.9144
 11  9 22  2 46  0.0000000  0  7G18G15G05G22G26G29G21
  -8491850.04148  -6602219.62845  21717007.7814                   21717004.4614
 -20455844.62548 -15924712.41946  20551227.5944                   20551224.9104
 -26127079.28646 -20342836.03443  24697475.2974                   24697473.2344
  22868797.54446  17833321.60443  24430789.7894                   24430787.0234
 -19302867.49047 -15026400.64945  21851572.9844                   21851570.7934
 -30468410.10048 -23732268.46146  20610285.8444                   20610283.6484
 -13704611.90847 -10591361.09846  21840337.8284                   21840334.6334
 11  9 22  2 46 30.0000000  0  7G18G15G05G22G26G29G21
  -8605101.59548  -6690467.54745  21695456.5554                   21695453.5474
 -20526504.94448 -15979772.39846  20537781.6334                   20537778.7934
 -26121245.66646 -20338290.36143  24698585.0944                   24698583.3284
  22718608.40646  17716291.31843  24402209.4774                   24402206.3444
 -19311958.90047 -15033484.86845  21849842.6254                   21849840.5274
 -30496733.96948 -23754339.00946  20604896.0554                   20604893.8244
 -13844019.79148 -10699990.56646  21813809.8444                   21813805.6374
 11  9 22  2 47  0.0000000  0  7G18G15G05G22G26G29G21
  -8718137.65848  -6778547.56345  21673946.6724                   21673943.6174
 -20596580.39948 -16034376.63046  20524446.6414                   20524444.7464
 -26115492.73746 -20333807.51743  24699679.3754                   24699677.7974
  22568567.20146  17599376.26543  24373657.0784                   24373654.5084
 -19320499.44147 -15040139.83545  21848217.0634                   21848215.1804
 -30524555.80248 -23776018.36146  20599601.8524                   20599599.6374
 -13983365.55147 -10808571.63246  21787292.7974                   21787289.1094
 11  9 22  2 47 30.0000000  0  7G18G15G05G22G26G29G21
  -8830957.65048  -6866459.19546  21652477.6564                   21652474.2734
 -20666070.43548 -16088524.69947  20511222.9304                   20511220.6564
 -26109819.61945 -20329386.88643  24700759.5164                   24700757.2344
  22418674.92846  17482577.27143  24345134.0704                   24345131.2934
 -19328490.42847 -15046366.57345  21846696.8914                   21846694.4534
 -30551875.83948 -23797306.71846  20594403.0944                   20594400.6054
 -14122645.86047 -10917101.70846  21760788.3364                   21760784.7464
 11  9 22  2 48  0.0000000  0  7G18G15G05G22G26G29G21
  -8943564.38748  -6954204.68445  21631049.4924                   21631045.7274
 -20734977.44048 -16142218.44746  20498110.4694                   20498107.8874
 -26104228.70145 -20325030.43442  24701822.8674                   24701821.4734
  22268930.06647  17365893.14143  24316638.2034                   24316636.3364
 -19335936.49247 -15052168.71145  21845279.4384                   21845277.2274
 -30578697.39148 -23818206.64446  20589298.8364                   20589296.1604
 -14261862.06147 -11025581.81846  21734296.3054                   21734292.3244
 11  9 22  2 48 30.0000000  0  6G18G15G22G26G29G21
  -9055956.96848  -7041783.28445  21609661.6954                   21609658.0554
 -20803300.66848 -16195457.30147  20485109.0704                   20485106.3324
  22119333.77946  17249324.75343  24288170.6954                   24288168.8014
 -19342839.03547 -15057547.33345  21843966.2344                   21843963.6564
 -30605020.55348 -23838718.20746  20584289.5784                   20584287.1484
 -14401011.10148 -11134009.59546  21707817.0704                   21707813.3554
 11  9 22  2 49  0.0000000  0  6G18G15G22G26G29G21
  -9168132.43048  -7129192.69846  21588315.0164                   21588312.3014
 -20871036.59148 -16248238.52247  20472219.1724                   20472216.6214
  21969890.42346  17132875.62843  24259732.6804                   24259729.4304
 -19349196.97047 -15062501.55845  21842755.9534                   21842753.6884
 -30630843.14148 -23858839.71546  20579375.8134                   20579373.7424
 -14540087.74848 -11242380.96946  21681351.8204                   21681348.2854
 11  9 22  2 49 30.0000000  0  6G18G15G22G26G29G21
  -7704663.44748  -5988827.22645  21866804.3984                   21866801.0904
 -19362759.82148 -15072957.90346  20759234.7274                   20759232.0704
  23396028.63246  18244152.34043  24531117.1954                   24531112.8524
 -17779588.54047 -13839430.06945  22141443.1564                   22141440.0314
 -29080741.65148 -22650968.42446  20874350.4844                   20874348.0394
 -13103661.25748 -10123087.54946  21954694.6484                   21954691.2234
 11  9 22  2 50  0.0000000  0  6G18G15G22G26G29G21
  -7816399.21748  -6075894.01146  21845541.6254                   21845538.2154
 -19429316.32848 -15124820.09947  20746569.4844                   20746566.5434
  23246897.58446  18127946.60143  24502738.0944                   24502734.6174
 -17784858.08047 -13843536.19345  22140439.7584                   22140437.2974
 -29105560.47648 -22670307.77746  20869627.6644                   20869625.6174
 -13242580.03048 -10231335.92646  21928259.0704                   21928255.5904
 11  9 22  2 50 30.0000000  0  6G18G15G22G26G29G21
  -7927916.17448  -6162790.30145  21824321.0704                   21824316.9534
 -19495284.05748 -15176223.49347  20734016.3524                   20734013.3364
  23097922.97646  18011862.69043  24474389.2034                   24474384.7974
 -17789587.45047 -13847221.44645  22139540.1254                   22139537.4964
 -29129880.11448 -22689258.14546  20864999.5164                   20864997.5084
 -13381418.82348 -10339521.93146  21901839.0314                   21901835.5004
 11  9 22  2 51  0.0000000  0  6G18G15G22G26G29G21
  -8039220.11947  -6249520.61746  21803139.9384                   21803136.8164
 -19560668.89448 -15227172.70047  20721573.4844                   20721571.0944
  22949099.53446  17895896.59943  24446069.2664                   24446065.5744
 -17793784.98347 -13850492.24745  22138741.2424                   22138739.4774
 -29153707.24948 -22707824.74446  20860465.2894                   20860463.6454
 -13520180.99348 -10447648.25346  21875433.6484                   21875429.5554
 11  9 22  2 51 30.0000000  0  6G18G15G22G26G29G21
  -8150311.62147  -6336085.37646  21782000.2034                   21781996.8984
 -19625471.81248 -15277668.46247  20709242.1724                   20709239.0984
  22800427.49147  17780048.41443  24417777.5234                   24417773.0824
 -17797453.38147 -13853350.73545  22138043.1884                   22138040.4344
 -29177043.55948 -22726008.90246  20856024.7664                   20856022.3014
 -13658864.64848 -10555713.40746  21849042.7664                   21849039.2154
 11  9 22  2 52  0.0000000  0  6G18G15G22G26G29G21
  -8261192.18847  -6422485.79446  21760900.6174                   21760896.7154
 -19689694.10348 -15327711.79347  20697021.1334                   20697018.8134
  22651906.21146  17664317.79744  24389514.5704                   24389511.5004
 -17800595.94347 -13855799.49545  22137444.9614                   22137442.7274
 -29199890.96547 -22743812.10946  20851677.0944                   20851674.5474
 -13797468.64048 -10663716.48046  21822667.3204                   21822663.8914
 11  9 22  2 52 30.0000000  0  6G18G15G22G26G29G21
  -8371862.85447  -6508722.62846  21739840.2424                   21739837.1214
 -19753336.66248 -15377303.37546  20684910.5084                   20684907.4064
  22503535.08347  17548704.10043  24361280.4844                   24361277.8054
 -17803215.90447 -13857841.02345  22136946.8054                   22136945.4494
 -29222251.92847 -22761236.23046  20847422.0084                   20847419.4964
 -13935992.15348 -10771656.83946  21796307.3754                   21796303.5474
 11  9 22  2 53  0.0000000  0  6G18G15G22G26G29G21
  -8482321.58647  -6594794.34446  21718820.9064                   21718817.3754
 -19816397.94448 -15426442.02646  20672910.2504                   20672907.0864
  22355316.72046  17433209.47143  24333075.3834                   24333073.4884
 -17805313.81147 -13859475.76644  22136547.6884                   22136545.1724
 -29244125.71447 -22778280.74546  20843259.2584                   20843256.9024
 -14074431.43447 -10879531.57046  21769962.7274                   21769959.4344
 11  9 22  2 53 30.0000000  0  6G18G15G22G26G29G21
  -8592570.16547  -6680702.27546  21697841.1724                   21697837.2034
 -19878879.56748 -15475128.99247  20661020.6414                   20661017.8954
  22207250.41147  17317833.30943  24304899.0784                   24304896.7504
 -17806893.19047 -13860706.45245  22136247.0474                   22136244.8444
 -29265514.90248 -22794947.66746  20839189.3134                   20839186.9384
 -14212785.73348 -10987340.08546  21743635.1254                   21743631.2074
 11  9 22  2 54  0.0000000  0  6G18G15G22G26G29G21
  -8702609.79647  -6766447.39946  21676901.2344                   21676897.8244
 -19940782.90448 -15523365.33346  20649240.5004                   20649237.7304
  22059335.63946  17202575.20943  24276750.9144                   24276748.2074
 -17807957.48247 -13861535.77745  22136044.7504                   22136042.1414
 -29286421.55048 -22811238.57646  20835211.1414                   20835208.8324
 -14351053.93647 -11095081.52146  21717323.5084                   21717319.0594
 11  9 22  2 54 30.0000000  0  6G18G15G22G26G29G21
  -8812438.24147  -6852027.95846  21656001.2344                   21655998.1334
 -20002106.07748 -15571149.61147  20637571.5944                   20637568.6914
  21911575.15046  17087437.34244  24248633.1954                   24248629.7624
 -17808506.96947 -13861963.93545  22135940.1254                   22135938.3794
 -29306844.69847 -22827152.75346  20831324.7424                   20831322.4024
 -14489231.81148 -11202752.56146  21691029.3524                   21691024.9924
 11  9 22  2 55  0.0000000  0  6G18G15G22G26G29G21
  -8922057.70347  -6937445.68346  21635141.5634                   21635137.7894
 -20062851.32248 -15618483.54247  20626011.6094                   20626008.5824
  21763967.62746  16972418.66443  24220544.4064                   24220541.5744
 -17808545.88347 -13861994.27744  22135931.8204                   22135929.8094
 -29326787.64447 -22842692.71746  20827529.6024                   20827527.3484
 -14627318.74747 -11310352.74146  21664752.2664                   21664748.4494
 11  9 22  2 55 30.0000000  0  6G18G15G22G26G29G21
  -9031464.40447  -7022697.59046  21614321.8134                   21614318.3714
 -20123015.25348 -15665364.51246  20614562.8134                   20614559.4694
  21616517.45146  16857522.57144  24192485.6254                   24192482.4384
 -17808072.47447 -13861625.39845  22136022.1644                   22136020.3164
 -29346247.77947 -22857856.48246  20823826.5554                   20823824.4844
 -14765308.82547 -11417877.46546  21638493.3914                   21638489.8014
 11  9 22  2 56  0.0000000  0  7G18G15G09G22G26G29G21
  -9140660.70447  -7107785.57046  21593542.2424                   21593539.2734
 -20182600.40448 -15711794.48846  20603224.4224                   20603220.7974
  26543951.61555  20698164.05152  24809513.5784                   24809513.5944
  21469222.65546  16742747.50144  24164456.0474                   24164452.4224
 -17807091.81247 -13860861.24345  22136209.4064                   22136207.8134
 -29365228.68647 -22872646.80946  20820214.2504                   20820212.0634
 -14903202.66147 -11525327.18546  21612252.8524                   21612249.3164
 11  9 22  2 56 30.0000000  0  7G18G15G09G22G26G29G21
  -9249650.50647  -7192712.64046  21572802.2734                   21572798.9694
 -20241611.02448 -15757776.76346  20591994.9224                   20591991.5274
  26379159.08246  20569754.46542  24778157.3984                   24778153.9384
  21322080.08346  16628091.03443  24136456.3834                   24136453.1334
 -17805609.80347 -13859706.43144  22136490.9774                   22136489.2344
 -29383735.27147 -22887067.56246  20816692.8364                   20816690.9024
 -15041002.05747 -11632703.32246  21586030.3984                   21586027.3244
 11  9 22  2 57  0.0000000  0  7G18G15G09G22G26G29G21
  -9358432.65047  -7277477.88746  21552102.1334                   21552099.0514
 -20300045.99948 -15803310.49546  20580874.7034                   20580871.7074
  26214269.70446  20441269.38743  24746778.2664                   24746777.6484
  21175092.29046  16513555.15943  24108485.4064                   24108481.1884
 -17803627.26147 -13858161.56745  22136868.3674                   22136866.5784
 -29401767.23748 -22901118.45346  20813261.5234                   20813259.4494
 -15178702.18947 -11740002.10946  21559827.2424                   21559823.3754
 11  9 22  2 57 30.0000000  0  7G18G15G09G22G26G29G21
  -9467007.13247  -7362081.31846  21531440.7664                   21531437.7464
 -20357905.60248 -15848395.89046  20569864.7894                   20569861.3954
  26049287.11146  20312711.72143  24715381.7734                   24715382.2344
  21028259.29046  16399139.88543  24080542.6334                   24080540.4774
 -17801146.65947 -13856228.66244  22137340.4614                   22137338.4654
 -29419325.93447 -22914800.56746  20809920.0084                   20809917.8834
 -15316301.72147 -11847222.49046  21533642.8914                   21533639.1214
 11  9 22  2 58  0.0000000  0  7G18G15G09G22G26G29G21
  -9575369.30047  -7446519.33746  21510820.1644                   21510816.6764
 -20415185.56548 -15893029.60946  20558964.3524                   20558961.2584
  25884219.67746  20184087.91143  24683972.8834                   24683971.6054
  20881586.45946  16284849.49544  24052632.8284                   24052629.0704
 -17798165.64147 -13853905.78844  22137907.3444                   22137906.4304
 -29436408.08247 -22928111.35246  20806669.4534                   20806667.0784
 -15453794.03947 -11954359.34046  21507479.0784                   21507475.2584
 11  9 22  2 58 30.0000000  0  7G18G15G09G22G26G29G21
  -9683517.84047  -7530790.85946  21490240.5314                   21490236.9964
 -20471885.04848 -15937211.01546  20548175.0164                   20548172.0984
  25719072.25946  20055401.71743  24652545.4534                   24652544.3834
  20735076.13746  16170685.73144  24024752.9384                   24024748.6414
 -17794684.89347 -13851193.51644  22138570.2194                   22138568.2774
 -29453013.37947 -22941050.56746  20803509.6954                   20803507.5314
 -15591174.53848 -12061409.06546  21481336.5864                   21481332.5554
 11  9 22  2 59  0.0000000  0  7G18G15G09G22G26G29G21
  -9791451.18447  -7614894.71946  21469701.0634                   21469697.6174
 -20528002.84548 -15980939.14946  20537496.1564                   20537493.0434
  25553849.79446  19926657.02844  24621104.1954                   24621103.9654
  20588730.19946  16056649.98144  23996903.9774                   23996900.4614
 -17790705.53847 -13848092.74445  22139327.7034                   22139325.8244
 -29469141.45347 -22953617.92446  20800441.0864                   20800438.3134
 -15728439.67247 -12168368.89046  21455215.3134                   21455211.5594
 11  9 22  2 59 30.0000000  0  7G18G15G09G22G26G29G21
  -8323746.49647  -6471228.66346  21748996.2344                   21748992.4384
 -19008118.18548 -14796613.42846  20826720.6644                   20826717.6024
  26963980.77646  21025460.56244  24889442.9064   24889442.6414   22017973.66546
  17170346.24144                  24268879.9224                   24268876.3874
 -16210810.84547 -12617005.96644  22439971.3984                   22439969.8014
 -27909373.82647 -21738214.57446  21097254.3594                   21097252.4884
 -14290163.54547 -11047634.22746  21728910.1644                   21728906.5084
 11  9 22  3  0  0.0000000  0  7G18G15G09G22G26G29G21
  -8431251.89848  -6554999.07246  21728538.5004                   21728534.7704
 -19063076.13348 -14839437.79546  20816262.1954                   20816259.7304
  26798616.82546  20896605.68244  24857976.3364   24857974.9414   21871956.32246
  17056566.51244                  24241093.7584                   24241090.7304
 -16205843.76247 -12613135.52744  22440917.4224                   22440914.1454
 -27924554.03248 -21750043.32046  21094365.8524                   21094364.3554
 -14427193.83948 -11154411.06146  21702834.4534                   21702830.5784
 11  9 22  3  0 30.0000000  0  7G18G15G09G22G26G29G21
  -8538543.35747  -6638602.76246  21708121.4774                   21708118.3094
 -19117454.38448 -14881810.44946  20805914.6724                   20805911.6844
  26633188.36346  20767700.44744  24826495.8134   24826494.8554   21726104.67947
  16942915.93844                  24213339.1804                   24213336.2504
 -16200385.65047 -12608882.42944  22441955.7274                   22441952.9144
 -27939261.77048 -21761503.90846  21091567.4924                   21091564.7304
 -14564102.45147 -11261093.07546  21676781.3834                   21676777.4574
 11  9 22  3  1  0.0000000  0  7G18G15G09G22G26G29G21
  -8645622.97248  -6722041.36146  21687744.8754                   21687741.0634
 -19171256.04748 -14923733.81146  20795676.6724                   20795673.7194
  26467695.85046  20638745.39844  24795003.0084   24795002.6914   21580416.59246
  16829392.78344                  24185615.6414                   24185611.4654
 -16194441.65547 -12604250.74544  22443086.2194                   22443083.5824
 -27953500.73148 -21772599.21646  21088857.8674                   21088855.6214
 -14700889.82948 -11367680.62846  21650751.6174                   21650747.6484
 11  9 22  3  1 30.0000000  0  7G18G15G09G22G26G29G21
  -8752490.80747  -6805314.97046  21667408.6564                   21667404.8554
 -19224481.48748 -14965208.17846  20785547.8834                   20785545.3594
  26302143.24346  20509743.49144  24763499.7424   24763499.1134   21434892.82246
  16715997.68643                  24157922.9534                   24157918.9304
 -16188013.89747 -12599242.10244  22444309.1884                   22444306.1054
 -27967272.13548 -21783330.19946  21086237.0864                   21086234.9384
 -14837553.54448 -11474171.80046  21624745.5004                   21624741.1334
 11  9 22  3  2  0.0000000  0  7G18G15G09G22G26G29G21
  -8859148.15148  -6888424.53346  21647112.4534                   21647108.2814
 -19277132.40948 -15006234.84746  20775529.0164                   20775526.2154
  26136533.27846  20380696.87144  24731985.3444   24731983.7934   21289532.99846
  16602730.37543                  24130261.8524                   24130259.0234
 -16181105.82147 -12593859.22244  22445624.5314                   22445621.9654
 -27980578.59148 -21793698.86546  21083704.7584                   21083702.3204
 -14974092.24548 -11580565.56646  21598763.3984                   21598759.6174
 11  9 22  3  2 30.0000000  0  7G18G15G09G22G26G29G21
  -8965596.55448  -6971371.30446  21626855.0234                   21626852.2384
 -19329210.98248 -15046815.54446  20765618.5864                   20765615.8444
  25970867.79146  20251606.97043  24700459.4694   24700458.8404   21144336.05346
  16489589.97243                  24102631.2974                   24102629.1884
 -16173721.60847 -12588105.32444  22447029.0864                   22447027.4184
 -27993422.68048 -21803707.26546  21081261.0634                   21081259.0124
 -15110504.92548 -11686861.13346  21572804.8204                   21572800.4304
 11  9 22  3  3  0.0000000  0  7G18G15G09G22G26G29G21
  -9071835.09248  -7054154.53646  21606639.7664                   21606636.4924
 -19380716.93048 -15086950.03846  20755817.7664                   20755814.3014
  25805151.42646  20122477.39043  24668925.5474   24668924.6644   20999303.60946
  16376577.69544                  24075033.4694                   24075029.0744
 -16165863.05047 -12581981.76944  22448525.0394                   22448521.5554
 -28005805.85948 -21813356.51446  21078904.3444                   21078902.3554
 -15246788.58448 -11793056.15946  21546870.5634                   21546866.5554
 11  9 22  3  3 30.0000000  0  8G18G15G09G22G06G26G29G21
  -9177866.12348  -7136776.07746  21586462.3364                   21586458.6134
 -19431652.97948 -15126640.46546  20746124.4924                   20746121.3364
  25639385.76646  19993309.41043  24637380.9144   24637379.4614   20854433.63746
  16263692.17344                  24047465.2034                   24047461.6884
  28119411.69755  21925753.92652  24851754.6094                   24851753.1024
 -16157534.42047 -12575491.91644  22450108.6884                   22450107.4804
 -28017731.07448 -21822648.89646  21076635.0164                   21076632.2584
 -15382943.22147 -11899150.65946  21520961.4384                   21520957.4614
 11  9 22  3  4  0.0000000  0  8G18G15G09G22G06G26G29G21
  -9283692.64148  -7219238.26546  21566324.3284                   21566320.1024
 -19482023.19048 -15165889.96146  20736539.4144                   20736536.8554
  25473571.16846  19864103.44443  24605828.1804   24605825.5634   20709723.71247
  16150931.28344                  24019928.1094                   24019924.5594
  27955129.09645  21797741.62142  24820493.0004                   24820491.5124
 -16148741.38047 -12568640.21744  22451782.7114                   22451780.6884
 -28029203.15748 -21831588.20646  21074451.9144                   21074449.0394
 -15518969.35048 -12005145.02246  21495076.2194                   21495072.0474
 11  9 22  3  4 30.0000000  0  8G18G15G09G22G06G26G29G21
  -9389318.06548  -7301543.76446  21546224.4614                   21546220.7424
 -19531830.89648 -15204701.15546  20727061.4454                   20727057.9774
  25307708.33245  19734859.69142  24574264.3134   24574260.7034   20565171.52747
  16038293.30144                  23992421.1954                   23992417.5004
  27791104.87946  21669930.63543  24789280.6094                   24789279.6454
 -16139489.31047 -12561430.80344  22453543.2274                   22453541.9574
 -28040226.03548 -21840177.48246  21072353.8834                   21072352.0784
 -15654867.53748 -12111039.69446  21469215.5634                   21469211.4534
 11  9 22  3  5  0.0000000  0  8G18G15G09G22G06G26G29G21
  -9494737.99348  -7383689.13246  21526163.0234                   21526159.4304
 -19581072.20648 -15243070.99246  20717691.5394                   20717688.1054
                                  24542693.7814   24542692.7544   20420782.26647
  15925782.25444                  23964944.7034                   23964939.3984
  27627346.35346  21542326.58443  24758118.8914                   24758117.3094
 -16129776.15747 -12553862.13044  22455392.1954                   22455390.0394
 -28050797.00248 -21848414.62946  21070342.8754                   21070340.4574
 -15790630.75648 -12216829.18846  21443380.5554                   21443376.1414
 11  9 22  3  5 30.0000000  0  8G18G15G09G22G06G26G29G21
  -9599952.35848  -7465674.30146  21506141.6174                   21506138.3134
 -19629748.35548 -15281000.45946  20708428.5084                   20708425.0784
  24975866.14655  19476281.55552  24511115.9774   24511114.8014   20276555.99046
  15813398.18644                  23937497.8594                   23937495.2074
  27463856.26946  21414931.80943  24727007.6024                   24727005.8364
 -16119604.86447 -12545936.43444  22457326.8834                   22457324.6024
 -28060917.86948 -21856301.04146  21068417.0314                   21068414.7034
 -15926256.43148 -12322511.51646  21417572.0084                   21417568.3554
 11  9 22  3  6  0.0000000  0  8G18G15G09G22G06G26G29G21
  -9704958.18848  -7547496.99746  21486159.7274                   21486156.1414
 -19677856.81748 -15318487.55346  20699273.7034                   20699271.0664
  24809897.22445  19346955.22342  24479532.5004   24479531.2424   20132496.40746
  15701144.01643                  23910085.1724                   23910079.5354
  27300640.73846  21287750.94542  24695948.6954                   24695946.4844
 -16108974.71346 -12537653.22944  22459350.3204                   22459348.4924
 -28070586.93648 -21863835.39346  21066576.4694                   21066574.4614
 -16061740.11448 -12428083.19946  21391790.4614                   21391786.3324
 11  9 22  3  6 30.0000000  0  8G18G15G09G22G06G26G29G21
  -9809756.44048  -7629157.94346  21466217.2344                   21466212.9494
 -19725399.08648 -15355533.47746  20690226.6484                   20690223.3874
  24643901.59045  19217608.08843  24447944.1254   24447944.1134   19988603.46946
  15589019.77144                  23882703.0554                   23882699.3554
  27137701.94045  21160785.69143  24664941.2894                   24664939.6484
 -16097888.69646 -12529014.77444  22461459.6334                   22461458.4264
 -28079806.23548 -21871019.27046  21064822.4534                   21064820.0514
 -16197079.69348 -12533542.58246  21366035.8054                   21366032.1804
 11  9 22  3  7  0.0000000  0  8G18G15G09G22G06G26G29G21
  -9914346.39547  -7710656.57546  21446315.0234                   21446310.4384
 -19772375.20547 -15392138.23246  20681287.2814                   20681284.3444
  24477883.81845  19088243.67543  24416353.3524   24416352.8204   19844878.30746
  15477026.27644                  23855352.3834                   23855349.7464
  26975043.66645  21034039.14842  24633989.3204                   24633987.0634
 -16086348.90146 -12520022.75044  22463655.6094                   22463653.6564
 -28088576.54848 -21877853.29846  21063153.3754                   21063151.8714
 -16332271.38747 -12638886.74646  21340309.8834                   21340305.2734
 11  9 22  3  7 30.0000000  0  8G18G15G09G22G06G26G29G21
 -10018729.54047  -7791994.06346  21426450.7034                   21426447.1804
 -19818786.93247 -15428303.19346  20672455.1414                   20672451.8324
  24311846.29146  18958863.90443  24384758.3594   24384756.3284   19701320.45947
  15365163.14144                  23828034.7974                   23828031.1254
  26812667.54646  20907512.36843  24603089.6334                   24603089.2384
 -16074359.07247 -12510680.02644  22465937.1804                   22465936.2034
 -28096900.72948 -21884339.67046  21061569.8524                   21061567.9574
 -16467314.93047 -12744115.46046  21314612.1254                   21314608.0594
 11  9 22  3  8  0.0000000  0  8G18G15G09G22G06G26G29G21
 -10122907.93247  -7873171.99746  21406626.3984                   21406622.5904
 -19864637.79747 -15464031.13546  20663730.1804                   20663727.1094
  24145790.56645  18829469.88643  24353157.1484   24353157.0164   19557927.75047
  15253428.67744                  23800747.9454                   23800743.6724
  26650574.45146  20781206.18843  24572244.8594                   24572243.9844
 -16061923.71046 -12500990.17844  22468304.0474                   22468301.5514
 -28104782.85348 -21890481.62546  21060069.8674                   21060067.8524
 -16602209.66847 -12849228.24046  21288942.5944                   21288938.1914
 11  9 22  3  8 30.0000000  0  8G18G15G09G22G06G26G29G21
 -10226883.54847  -7954191.92946  21386840.5314                   21386836.7424
 -19909930.25247 -15499323.94446  20655111.3204                   20655108.4104
  23979718.62345  18700063.31743  24321555.0234   24321554.8834   19414699.03847
  15141822.03744                  23773492.0004                   23773488.0554
  26488765.38646  20655121.23943  24541453.6954                   24541452.0004
 -16049047.33646 -12490956.61744  22470754.1804                   22470752.2424
 -28112226.24948 -21896281.69846  21058653.1024                   21058651.4024
 -16736954.34347 -12954224.07046  21263301.4844                   21263297.0664
 11  9 22  3  9  0.0000000  0  8G18G15G09G22G06G26G29G21
 -10330655.25947  -8035052.96446  21367093.5944                   21367089.2934
 -19954664.04748 -15534181.44346  20646598.7274                   20646595.8554
  23813634.77746  18570647.43743  24289950.9534   24289949.5514   19271635.74646
  15030344.19243                  23746267.8204                   23746264.0664
  26327244.19446  20529260.66843  24510717.4144                   24510715.8284
 -16035731.56646 -12480580.72744  22473288.4454                   22473285.7894
 -28119231.45548 -21901740.30946  21057320.4454                   21057318.2424
 -16871546.76448 -13059101.26046  21237689.2974                   21237685.1254
 11  9 22  3  9 30.0000000  0  8G18G15G09G22G06G26G29G21
  -8858802.58447  -6888154.74346  21647177.6724                   21647173.1294
 -18423421.04147 -14341005.07046  20937984.8054                   20937981.3874
  25222966.25746  19668827.88944  24558137.6804   24558136.7544   20704160.80147
  16146597.60643                  24018867.7034                   24018862.3914
  27741436.95346  21631229.18042  24779828.0864                   24779826.6994
 -14446561.65246 -11242266.51144  22775697.1254                   22775694.5704
 -26550382.12148 -20679260.33146  21355862.6484                   21355860.5474
 -15430561.89148 -11936255.87746  21511899.1644                   21511895.2344
 11  9 22  3 10  0.0000000  0  8G18G15G09G22G06G26G29G21
  -8962171.52447  -6968701.93446  21627507.0164                   21627503.5234
 -18467044.23347 -14374997.14846  20929683.3754                   20929680.5314
  25056866.70946  19539399.75544  24526529.7504   24526528.8554   20561426.28247
  16035376.00844                  23991707.2894                   23991701.9884
  27580496.78046  21505821.37142  24749201.9924                   24749200.6174
 -14432378.36546 -11231214.60844  22778396.6024                   22778393.5664
 -26556519.28648 -20684042.56146  21354694.4844                   21354692.9224
 -15564845.07247 -12040892.08846  21486346.5314                   21486342.5314
 11  9 22  3 10 30.0000000  0  8G18G15G09G22G06G26G29G21
  -9065341.52347  -7049094.11346  21607874.5784                   21607871.0234
 -18510116.11848 -14408559.64846  20921487.3594                   20921484.2234
  24890762.37146  19409967.86444  24494921.6024   24494919.9614   20418854.19947
  15924280.96744                  23964576.7734                   23964571.7854
  27419848.97446  21380641.30542  24718632.6954                   24718630.2704
 -14417767.79746 -11219829.75744  22781176.3134                   22781173.6174
 -26562227.77948 -20688490.75846  21353608.6254                   21353606.3834
 -15698972.50347 -12145406.93546  21460822.7274                   21460818.4104
 11  9 22  3 11  0.0000000  0  8G18G15G09G22G06G26G29G21
  -9168312.97847  -7129331.56846  21588279.4304                   21588275.8054
 -18552637.67347 -14441693.32546  20913395.6804                   20913392.2424
  24724657.13646  19280535.31644  24463312.7194   24463312.1604   20276444.91747
  15813312.81145                  23937477.0314                   23937473.1764
  27259496.34246  21255691.30142  24688117.8524                   24688116.0944
 -14402732.43546 -11208113.87744  22784037.0474                   22784034.3524
 -26567508.60848 -20692605.71346  21352603.5004                   21352601.8244
 -15832941.66847 -12249798.46246  21435329.3204                   21435325.4694
 11  9 22  3 11 30.0000000  0  8G18G15G09G22G06G26G29G21
  -9271087.05547  -7209415.24746  21568722.5784                   21568718.8634
 -18594611.79747 -14474400.42946  20905408.0394                   20905405.1334
  24558553.10247  19151103.69144  24431703.8524   24431703.2114   20134197.17947
  15702470.53144                  23910407.9694                   23910403.1994
  27099440.21946  21130972.25143  24657660.5554                   24657658.4184
 -14387276.44046 -11196070.22044  22786978.2194                   22786976.4024
 -26572365.82848 -20696390.55546  21351679.3364                   21351677.0474
 -15966751.75147 -12354066.03946  21409866.2734                   21409861.5044
 11  9 22  3 12  0.0000000  0  8G18G15G09G22G06G26G29G21
  -9373664.40747  -7289345.61246  21549202.4924                   21549198.7734
 -18636038.98747 -14506681.34446  20897524.6254                   20897521.3874
  24392453.81447  19021675.80844  24400096.8914   24400096.0124   19992111.72247
  15591754.73144                  23883369.4224                   23883366.1564
  26939683.22446  21006486.44243  24627259.4534                   24627258.2304
 -14371402.86146 -11183701.25944  22789998.9144                   22789996.9774
 -26576800.99948 -20699846.54946  21350835.5004                   21350833.3484
 -16100400.28647 -12458207.73146  21384433.3204                   21384429.4224
 11  9 22  3 12 30.0000000  0  8G18G15G09G22G06G26G29G21
  -9476046.26547  -7369123.66246  21529720.0944                   21529716.5164
 -18676921.25048 -14538537.65146  20889744.9614                   20889742.0164
  24226362.22147  18892253.84244  24368489.5704   24368489.1054   19850187.76047
  15481164.76044                  23856361.8594                   23856358.3204
  26780227.75345  20882235.61343  24596914.8984                   24596913.9104
 -14355115.05347 -11171009.44244  22793098.9534                   22793095.6564
 -26580816.53948 -20702975.55346  21350070.6414                   21350068.9344
 -16233885.64347 -12562222.27046  21359031.9534                   21359027.9144
 11  9 22  3 13  0.0000000  0  8G18G15G09G22G06G26G29G21
  -9578234.99847  -7448751.21546  21510273.7194                   21510270.4454
 -18717262.53148 -14569972.39946  20882068.6484                   20882065.2974
  24060279.45247  18762838.82944  24336885.9304   24336884.1294   19708423.32647
  15370699.06744                  23829385.0474                   23829379.8634
  26621073.87445  20758219.72342  24566629.3364                   24566628.6254
 -14338417.91346 -11157998.72644  22796276.1174                   22796274.6254
 -26584416.71648 -20705780.89946  21349386.0084                   21349383.4064
 -16367208.13748 -12666109.92846  21333661.3134                   21333658.0084
 11  9 22  3 13 30.0000000  0  8G18G15G09G22G06G26G29G21
  -9680230.67647  -7528228.32746  21490864.7274                   21490860.7704
 -18757063.84048 -14600986.39946  20874494.7114                   20874491.2194
  23894209.42046  18633433.65543  24305283.7814   24305282.0004   19566818.97347
  15260358.03144                  23802439.5084                   23802434.1454
  26462224.69645  20634441.31543  24536401.9304                   24536400.5084
 -14321314.19847 -11144671.17844  22799531.3204                   22799530.4614
 -26587603.46648 -20708264.07646  21348779.0634                   21348777.5744
 -16500365.22948 -12769868.67246  21308322.4694                   21308318.1604
 11  9 22  3 14  0.0000000  0  8G18G15G09G22G06G26G29G21
  -9782033.18147  -7607554.94146  21471492.3444                   21471488.5164
 -18796325.84648 -14631580.17346  20867023.4144                   20867020.2274
  23728156.29446  18504041.70943  24273683.6804   24273681.1414   19425375.32847
  15150142.28344                  23775523.4224                   23775517.8794
  26303683.16846  20510902.52143  24506231.9774                   24506230.2584
 -14303806.36946 -11131028.69644  22802861.7974                   22802860.8134
 -26590378.19148 -20710426.20646  21348251.3444                   21348249.3484
 -16633353.99847 -12873496.26746  21283015.7584                   21283011.6054
 11  9 22  3 14 30.0000000  0  8G18G15G09G22G06G26G29G21
  -9883644.59947  -7686732.63446  21452156.2664                   21452152.6174
 -18835051.70348 -14661756.14746  20859653.7814                   20859650.6484
  23562121.90846  18374664.33343  24242089.2274   24242087.5164   19284090.81846
  15040050.58444                  23748636.0234                   23748633.1174
  26145450.11146  20387604.10943  24476122.2734                   24476119.2584
 -14285898.98747 -11117074.90944  22806270.6414                   22806268.3914
 -26592744.56248 -20712270.13946  21347800.9844                   21347798.9414
 -16766174.18547 -12976992.50446  21257740.6334                   21257736.3244
 11  9 22  3 15  0.0000000  0  8G18G15G09G22G06G26G29G21
  -9985068.74947  -7765764.43446  21432855.7974                   21432852.2034
 -18873246.18348 -14691518.07046  20852385.5554                   20852382.6564
  23396106.33446  18245301.63843  24210496.9924   24210494.0124   19142962.11546
  14930080.29344                  23721780.2424                   23721777.5784
  25987524.84746  20264545.58643  24446069.2814                   24446068.3054
 -14267598.31446 -11102814.62944  22809752.3134                   22809749.8594
 -26594708.03548 -20713800.13446  21347427.1024                   21347425.3834
 -16898826.53048 -13080357.95346  21232498.1094                   21232494.1214
 11  9 22  3 15 30.0000000  0  8G18G15G09G22G06G26G29G21
 -10086302.73948  -7844648.03346  21413591.7584                   21413588.2974
 -18910907.05748 -14720864.20546  20845219.0394                   20845216.9224
  23230116.56546  18115959.05443  24178909.7894   24178909.0904   19001992.72047
  14820234.16944                  23694955.9144                   23694952.0314
  25829913.53046  20141731.69343  24416077.1174                   24416074.6684
 -14248903.73947 -11088247.41244  22813310.3594                   22813308.5004
 -26596267.36348 -20715015.21146  21347130.7034                   21347128.5554
 -17031305.56248 -13183588.34746  21207287.9454                   21207283.8524
 11  9 22  3 16  0.0000000  0  8G18G15G09G22G06G26G29G21
 -10187347.90247  -7923384.49746  21394363.7194                   21394359.5354
 -18948037.21448 -14749796.78546  20838153.1174                   20838150.1454
  23064155.06346  17986638.48443  24147329.3674   24147326.1174   18861181.69347
  14710511.35244                  23668160.7894                   23668155.7304
  25672617.16846  20019163.19343  24386144.0704                   24386143.1174
 -14229819.52146 -11073376.69244  22816941.5554                   22816940.3094
 -26597425.84348 -20715917.93146  21346910.3834                   21346908.0554
 -17163610.07747 -13286682.76646  21182111.1724                   21182107.0274
 11  9 22  3 16 30.0000000  0  8G18G15G09G22G06G26G29G21
 -10288205.50748  -8001974.81046  21375170.9304                   21375167.1684
 -18984638.97748 -14778317.62946  20831188.1564                   20831185.4024
  22898224.58946  17857342.12543  24115753.8674   24115751.7464   18720528.14247
  14600911.24744                  23641395.0004                   23641389.5514
  25515637.76646  19896841.73843  24356271.7584                   24356270.0554
 -14210349.33946 -11058205.14244  22820646.2504                   22820643.2274
 -26598186.14248 -20716510.37446  21346765.6724                   21346763.4924
 -17295738.90247 -13389640.27046  21156967.9144                   21156963.6484
 11  9 22  3 17  0.0000000  0  8G18G15G09G22G06G26G29G21
 -10388878.08847  -8080420.94746  21356013.5634                   21356010.0004
 -19020715.50348 -14806429.19946  20824323.2734                   20824320.6844
  22732326.48046  17728070.95843  24084181.8754   24084181.7154   18580030.36746
  14491432.51043                  23614658.4384                   23614653.6954
  25358976.04546  19774767.67743  24326459.0944                   24326457.8834
 -14190498.22846 -11042736.76444  22824424.3674                   22824421.9884
 -26598552.51048 -20716795.86846  21346695.8594                   21346693.7774
 -17427691.91947 -13492460.78946  21131857.9144                   21131853.9024
 11  9 22  3 17 30.0000000  0  8G18G15G09G22G06G26G29G21
 -10489362.95547  -8158720.82846  21336891.9224                   21336888.3914
 -19056265.25148 -14834130.29646  20817557.9304                   20817555.6684
  22566467.48046  17598830.23643  24052620.9384   24052619.2194   18439691.71646
  14382077.72944                  23587953.0004                   23587948.7814
  25202637.44346  19652945.56343  24296710.0944                   24296706.6174
 -14170265.94846 -11026971.36843  22828274.2504                   22828272.3554
 -26598523.81748 -20716773.50346  21346701.9534                   21346699.9494
 -17559463.40748 -13595139.87146  21106782.6334                   21106778.6954
 11  9 22  3 18  0.0000000  0  8G18G15G09G22G06G26G29G21
 -10589662.75147  -8236876.49246  21317805.4844                   21317801.4694
 -19091292.19048 -14861424.01446  20810892.7814                   20810890.2734
  22400648.85247  17469621.00343  24021067.7734   24021066.1134   18299509.77247
  14272845.19844                  23561277.1884                   23561273.5554
  25046622.28046  19531375.28343  24267021.3364                   24267018.3634
 -14149657.74646 -11010912.99344  22832196.1484                   22832193.3714
 -26598104.39548 -20716446.70846  21346781.6174                   21346779.4694
 -17691053.37248 -13697677.49246  21081741.7814                   21081738.0784
 11  9 22  3 18 30.0000000  0  8G18G15G09G22G06G26G29G21
 -10689780.96347  -8314890.66746  21298753.3754                   21298750.1054
 -19125800.97148 -14888313.95546  20804326.2974                   20804323.2114
  22234871.39047  17340443.80843  23989521.3134   23989518.5474   18159481.70647
  14163732.50545                  23534630.7424                   23534627.1294
  24890930.00446  19410056.68343  24237392.5704                   24237391.3204
 -14128679.36046 -10994566.22643  22836188.1254                   22836185.5784
 -26597299.70748 -20715819.69546  21346934.6414                   21346932.0044
 -17822462.67548 -13800074.33546  21056735.8204                   21056731.6094
 11  9 22  3 19  0.0000000  0  8G18G15G09G22G06G26G29G21
 -10789713.73347  -8392760.34646  21279737.2034                   21279733.4224
 -19159789.18048 -14914798.26446  20797858.3594                   20797855.7814
  22069142.15346  17211304.14443  23957983.6484   23957981.1294   18019611.09947
  14054742.49844                  23508014.6094                   23508009.5204
  24735567.07346  19288994.78743  24207828.6564                   24207827.3524
 -14107330.35747 -10977930.65944  22840250.9454                   22840248.5124
 -26596108.01448 -20714891.11646  21347160.8984                   21347159.0164
 -17953685.14647 -13902325.60346  21031764.8594                   21031760.7934
 11  9 22  3 19 30.0000000  0  8G18G15G09G22G06G26G29G21
  -9314039.67847  -7242884.45246  21560548.4844                   21560544.8674
 -17617838.31948 -13713278.11046  21091281.8914                   21091279.1134
  23478889.45146  18309808.59043  24226249.1724   24226248.6134   19455321.82547
  15173478.19544                  23781220.6644                   23781215.0594
  26155960.00746  20395794.49943  24478120.7584                   24478119.0824
 -12510195.12346  -9733409.71944  23144175.2584                   23144173.7424
 -25019112.79848 -19486063.69146  21647253.5554                   21647251.2034
 -16509295.42648 -12776827.11146  21306623.0164                   21306619.1214
 11  9 22  3 20  0.0000000  0  8G18G15G09G22G06G26G29G21
  -9413606.90247  -7320469.29346  21541601.7344                   21541597.8094
 -17650793.06048 -13738957.13046  21085010.8054                   21085007.8524
  23313264.90347  18180750.57243  24194732.2584   24194729.6644   19315763.88347
  15064731.79843                  23754663.5944                   23754658.3164
  26001260.08946  20275249.11843  24448682.3834                   24448681.1764
 -12488116.24947  -9716205.38544  23148376.5784                   23148374.7704
 -25017156.83048 -19484539.57646  21647625.8054                   21647623.3594
 -16640140.68548 -12878784.44546  21281723.7034                   21281720.0984
 11  9 22  3 20 30.0000000  0  8G18G15G09G22G06G26G29G21
  -9512992.22948  -7397912.38246  21522689.0784                   21522685.5984
 -17683234.10248 -13764235.85246  21078837.5784                   21078834.8914
  23147697.75547  18051737.27444  24163225.5004   24163224.2424   19176362.47847
  14956107.37844                  23728136.4304                   23728131.2504
  25846895.04146  20154964.80243  24419308.2584                   24419305.4454
 -12465677.28846  -9698720.47843  23152647.3834                   23152643.8554
 -25014822.09948 -19482720.31946  21648069.8524                   21648068.1254
 -16770794.27148 -12980592.43446  21256861.0864                   21256857.1374
 11  9 22  3 21  0.0000000  0  8G18G15G09G22G06G26G29G21
  -9612197.88247  -7475215.47846  21503811.0474                   21503807.3054
 -17715164.80748 -13789116.92446  21072761.3984                   21072758.4454
  22982189.52847  17922769.93144  24131730.5864   24131730.4344   19037115.01447
  14847602.91645                  23701638.7584                   23701634.6374
  25692865.63046  20034941.93343  24389997.4144                   24389994.2734
 -12442882.95447  -9680958.65743  23156984.5474                   23156982.3404
 -25012112.99648 -19480609.31846  21648585.3594                   21648583.1294
 -16901255.90448 -13082250.87046  21232035.4384                   21232031.0704
